[[{"header":{"parameterUnit":"m.s-1","parameterCategory":1,"la1":30.6,"la2":28.766,"lo1":-90.7593,"lo2":-88.6598,"dy":0.0162,"dx":0.0183,"nx":116,"ny":114,"refTime":"2024-05-09T00:00:00:Z","depth":0,"parameterNumber":2,"parameterNumberName":"U-component_of_WINDS"},"data":[0.0,0.0,0.0,0.0,0.0,0.0,0.0,0.0,0.0,0.0,0.0,0.0,0.0,0.0,0.0,0.0,0.0,0.0,0.0,0.0,0.0,0.0,0.0,0.0,0.0,0.0,0.0,0.0,0.0,0.0,0.0,0.0,0.0,0.0,0.0,0.0,0.0,0.0,0.0,0.0,0.0,0.0,0.0,0.0,0.0,0.0,0.0,0.0,0.0,0.0,0.0,0.0,0.0,0.0,0.0,0.0,0.0,0.0,0.0,0.0,0.0,0.0,0.0,0.0,0.0,0.0,0.0,0.0,0.0,0.0,0.0,0.0,0.0,0.0,0.0,0.0,0.0,0.0,0.0,0.0,0.0,0.0,0.0,0.0,0.0,0.0,0.0,0.0,0.0,0.0,0.0,0.0,0.0,0.0,0.0,0.0,0.0,0.0,0.0,0.0,0.0,0.0,0.0,0.0,0.0,0.0,0.0,0.0,0.0,0.0,0.0,0.0,0.0,0.0,0.0,0.0,0.0,0.0,0.0,0.0,0.0,0.0,0.0,0.0,0.0,0.0,0.0,0.0,0.0,0.0,0.0,0.0,0.0,0.0,0.0,0.0,0.0,0.0,0.0,0.0,0.0,0.0,0.0,0.0,0.0,0.0,0.0,0.0,0.0,0.0,0.0,0.0,0.0,0.0,0.0,0.0,0.0,0.0,0.0,0.0,0.0,0.0,0.0,0.0,0.0,0.0,0.0,0.0,0.0,0.0,0.0,0.0,0.0,0.0,0.0,0.0,0.0,0.0,0.0,0.0,0.0,0.0,0.0,0.0,0.0,0.0,0.0,0.0,0.0,0.0,0.0,0.0,0.0,0.0,0.0,0.0,0.0,0.0,0.0,0.0,0.0,0.0,0.0,0.0,0.0,0.0,0.0,0.0,0.0,0.0,0.0,0.0,0.0,0.0,0.0,0.0,0.0,0.0,0.0,0.0,0.0,0.0,0.0,0.0,0.0,0.0,0.0,0.0,0.0,0.0,0.0,0.0,0.0,0.0,0.0,0.0,0.0,0.0,0.0,0.0,0.0,0.0,0.0,0.0,0.0,0.0,0.0,0.0,0.0,0.0,0.0,0.0,0.0,0.0,0.0,0.0,0.0,0.0,0.0,0.0,0.0,0.0,0.0,0.0,0.0,0.0,0.0,0.0,0.0,0.0,0.0,0.0,0.0,0.0,0.0,0.0,0.0,0.0,0.0,0.0,0.0,0.0,0.0,0.0,0.0,0.0,0.0,0.0,0.0,0.0,0.0,0.0,0.0,0.0,0.0,0.0,0.0,0.0,0.0,0.0,0.0,0.0,0.0,0.0,0.0,0.0,0.0,0.0,0.0,0.0,0.0,0.0,0.0,0.0,0.0,0.0,0.0,0.0,0.0,0.0,0.0,0.0,0.0,0.0,0.0,0.0,0.0,0.0,0.0,0.0,0.0,0.0,0.0,0.0,0.0,0.0,0.0,0.0,0.0,0.0,0.0,0.0,0.0,0.0,0.0,0.0,0.0,0.0,0.0,0.0,0.0,0.0,0.0,0.0,0.0,0.0,0.0,0.0,0.0,0.0,0.0,0.0,0.0,0.0,0.0,0.0,0.0,0.0,0.0,0.0,0.0,0.0,0.0,0.0,0.0,0.0,0.0,0.0,0.0,0.0,0.0,0.0,0.0,0.0,0.0,0.0,0.0,0.0,0.0,0.0,0.0,0.0,0.0,0.0,0.0,0.0,0.0,0.0,0.0,0.0,0.0,0.0,0.0,0.0,0.0,0.0,0.0,0.0,0.0,0.0,0.0,0.0,0.0,0.0,0.0,0.0,0.0,0.0,0.0,0.0,0.0,0.0,0.0,0.0,0.0,0.0,0.0,0.0,0.0,0.0,0.0,0.0,0.0,0.0,0.0,0.0,0.0,0.0,0.0,0.0,0.0,0.0,0.0,0.0,0.0,0.0,0.0,0.0,0.0,0.0,0.0,0.0,0.0,0.0,0.0,0.0,0.0,0.0,0.0,0.0,0.0,0.0,0.0,0.0,0.0,0.0,0.0,0.0,0.0,0.0,0.0,0.0,0.0,0.0,0.0,0.0,0.0,0.0,0.0,0.0,0.0,0.0,0.0,0.0,0.0,0.0,0.0,0.0,0.0,0.0,0.0,0.0,0.0,0.0,0.0,0.0,0.0,0.0,0.0,0.0,0.0,0.0,0.0,0.0,0.0,0.0,0.0,0.0,0.0,0.0,0.0,0.0,0.0,0.0,0.0,0.0,0.0,0.0,0.0,0.0,0.0,0.0,0.0,0.0,0.0,0.0,0.0,0.0,0.0,0.0,0.0,0.0,0.0,0.0,0.0,0.0,0.0,0.0,0.0,0.0,0.0,0.0,0.0,0.0,0.0,0.0,0.0,0.0,0.0,0.0,0.0,0.0,0.0,0.0,0.0,0.0,0.0,0.0,0.0,0.0,0.0,0.0,0.0,0.0,0.0,0.0,0.0,0.0,0.0,0.0,0.0,0.0,0.0,0.0,0.0,0.0,0.0,0.0,0.0,0.0,0.0,0.0,0.0,0.0,0.0,0.0,0.0,0.0,0.0,0.0,0.0,0.0,0.0,0.0,0.0,0.0,0.0,0.0,0.0,0.0,0.0,0.0,0.0,0.0,0.0,0.0,0.0,0.0,0.0,0.0,0.0,0.0,0.0,0.0,0.0,0.0,0.0,0.0,0.0,0.0,0.0,0.0,0.0,0.0,0.0,0.0,0.0,0.0,0.0,0.0,0.0,0.0,0.0,0.0,0.0,0.0,0.0,0.0,0.0,0.0,0.0,0.0,0.0,0.0,0.0,0.0,0.0,0.0,0.0,0.0,0.0,0.0,0.0,0.0,0.0,0.0,0.0,0.0,0.0,0.0,0.0,0.0,0.0,0.0,0.0,0.0,0.0,0.0,0.0,0.0,0.0,0.0,0.0,0.0,0.0,0.0,0.0,0.0,0.0,0.0,0.0,0.0,0.0,0.0,0.0,0.0,0.0,0.0,0.0,0.0,0.0,0.0,0.0,0.0,0.0,0.0,0.0,0.0,0.0,0.0,0.0,0.0,0.0,0.0,0.0,0.0,0.0,0.0,0.0,0.0,0.0,0.0,0.0,0.0,0.0,0.0,0.0,0.0,0.0,0.0,0.0,0.0,0.0,0.0,0.0,0.0,0.0,0.0,0.0,0.0,0.0,0.0,0.0,0.0,0.0,0.0,0.0,0.0,0.0,0.0,0.0,0.0,0.0,0.0,0.0,0.0,0.0,0.0,0.0,0.0,0.0,0.0,0.0,0.0,0.0,0.0,0.0,0.0,0.0,0.0,0.0,0.0,0.0,0.0,0.0,0.0,0.0,0.0,0.0,0.0,0.0,0.0,0.0,0.0,0.0,0.0,0.0,0.0,0.0,0.0,0.0,0.0,0.0,0.0,0.0,0.0,0.0,0.0,0.0,0.0,0.0,0.0,0.0,0.0,0.0,0.0,0.0,0.0,0.0,0.0,0.0,0.0,0.0,0.0,0.0,0.0,0.0,0.0,0.0,0.0,0.0,0.0,0.0,0.0,0.0,0.0,0.0,0.0,0.0,0.0,0.0,0.0,0.0,0.0,0.0,0.0,0.0,0.0,0.0,0.0,0.0,0.0,0.0,0.0,0.0,0.0,0.0,0.0,0.0,0.0,0.0,0.0,0.0,0.0,0.0,0.0,0.0,0.0,0.0,0.0,0.0,0.0,0.0,0.0,0.0,0.0,0.0,0.0,0.0,0.0,0.0,0.0,0.0,0.0,0.0,0.0,0.0,0.0,0.0,0.0,0.0,0.0,0.0,0.0,0.0,0.0,0.0,0.0,0.0,0.0,0.0,0.0,0.0,0.0,0.0,0.0,0.0,0.0,0.0,0.0,0.0,0.0,0.0,0.0,0.0,0.0,0.0,0.0,0.0,0.0,0.0,0.0,0.0,0.0,0.0,0.0,0.0,0.0,0.0,0.0,0.0,0.0,0.0,0.0,0.0,0.0,0.0,0.0,0.0,0.0,0.0,0.0,0.0,0.0,0.0,0.0,0.0,0.0,0.0,0.0,0.0,0.0,0.0,0.0,0.0,0.0,0.0,0.0,0.0,0.0,0.0,0.0,0.0,0.0,0.0,0.0,0.0,0.0,0.0,0.0,0.0,0.0,0.0,0.0,0.0,0.0,0.0,0.0,0.0,0.0,0.0,0.0,0.0,0.0,0.0,0.0,0.0,0.0,0.0,0.0,0.0,0.0,0.0,0.0,0.0,0.0,0.0,0.0,0.0,0.0,0.0,0.0,0.0,0.0,0.0,0.0,0.0,0.0,0.0,0.0,0.0,0.0,0.0,0.0,0.0,0.0,0.0,0.0,0.0,0.0,0.0,0.0,0.0,0.0,0.0,0.0,0.0,0.0,0.0,0.0,0.0,0.0,0.0,0.0,0.0,0.0,0.0,0.0,0.0,0.0,0.0,0.0,0.0,0.0,0.0,0.0,0.0,0.0,0.0,0.0,0.0,0.0,0.0,0.0,0.0,0.0,0.0,0.0,0.0,0.0,0.0,0.0,0.0,0.0,0.0,0.0,0.0,0.0,0.0,0.0,0.0,0.0,0.0,0.0,0.0,0.0,0.0,0.0,0.0,0.0,0.0,0.0,0.0,0.0,0.0,0.0,0.0,0.0,0.0,0.0,0.0,0.0,0.0,0.0,0.0,0.0,0.0,0.0,0.0,0.0,0.0,0.0,0.0,0.0,0.0,0.0,0.0,0.0,0.0,0.0,0.0,0.0,0.0,0.0,0.0,0.0,0.0,0.0,0.0,0.0,0.0,0.0,0.0,0.0,0.0,0.0,0.0,0.0,0.0,0.0,0.0,0.0,0.0,0.0,0.0,0.0,0.0,0.0,0.0,0.0,0.0,0.0,0.0,0.0,0.0,0.0,0.0,0.0,0.0,0.0,0.0,0.0,0.0,0.0,0.0,0.0,0.0,0.0,0.0,0.0,0.0,0.0,0.0,0.0,0.0,0.0,0.0,0.0,0.0,0.0,0.0,0.0,0.0,0.0,0.0,0.0,0.0,0.0,0.0,0.0,0.0,0.0,0.0,0.0,0.0,0.0,0.0,0.0,0.0,0.0,0.0,0.0,0.0,0.0,0.0,0.0,0.0,0.0,0.0,0.0,0.0,0.0,0.0,0.0,0.0,0.0,0.0,0.0,0.0,0.0,0.0,0.0,0.0,0.0,0.0,0.0,0.0,0.0,0.0,0.0,0.0,0.0,0.0,0.0,0.0,0.0,0.0,0.0,0.0,0.0,0.0,0.0,0.0,0.0,0.0,0.0,0.0,0.0,0.0,0.0,0.0,0.0,0.0,0.0,0.0,0.0,0.0,0.0,0.0,0.0,0.0,0.0,0.0,0.0,0.0,0.0,0.0,0.0,0.0,0.0,0.0,0.0,0.0,0.0,0.0,0.0,0.0,0.0,0.0,0.0,0.0,0.0,0.0,0.0,0.0,0.0,0.0,0.0,0.0,0.0,0.0,0.0,0.0,0.0,0.0,0.0,0.0,0.0,0.0,0.0,0.0,0.0,0.0,0.0,0.0,0.0,0.0,0.0,0.0,0.0,0.0,0.0,0.0,0.0,0.0,0.0,0.0,0.0,0.0,0.0,0.0,0.0,0.0,0.0,0.0,0.0,0.0,0.0,0.0,0.0,0.0,0.0,0.0,0.0,0.0,0.0,0.0,0.0,0.0,0.0,0.0,0.0,0.0,0.0,0.0,0.0,0.0,0.0,0.0,0.0,0.0,0.0,0.0,0.0,0.0,0.0,0.0,0.0,0.0,0.0,0.0,0.0,0.0,0.0,0.0,0.0,0.0,0.0,0.0,0.0,0.0,0.0,0.0,0.0,0.0,0.0,0.0,0.0,0.0,0.0,0.0,0.0,0.0,0.0,0.0,0.0,0.0,0.0,0.0,0.0,0.0,0.0,0.0,0.0,0.0,0.0,0.0,0.0,0.0,0.0,0.0,0.0,0.0,0.0,0.0,0.0,0.0,0.0,0.0,0.0,-1.2936,0.0,0.0,0.0,0.0,0.0,0.0,0.0,0.0,0.0,0.0,0.0,0.0,0.0,0.0,0.0,0.0,0.0,0.0,0.0,0.0,0.0,0.0,0.0,0.0,2.559,2.5625,2.5684,2.5703,2.5696,2.5658,0.0,0.0,0.0,0.0,0.0,2.5098,2.4879,2.4629,2.4407,2.4302,2.4116,2.3876,2.433,2.4392,2.4062,0.0,0.0,0.0,0.0,0.0,0.0,0.0,0.0,0.0,0.0,0.0,0.0,0.0,0.0,0.0,0.0,0.0,0.0,0.0,0.0,0.0,0.0,0.0,0.0,0.0,0.0,0.0,0.0,0.0,0.0,0.0,0.0,0.0,0.0,0.0,0.0,0.0,0.0,0.0,0.0,0.0,0.0,0.0,0.0,0.0,0.0,0.0,0.0,0.0,0.0,0.0,0.0,0.0,0.0,0.0,0.0,0.0,0.0,0.0,0.0,0.0,0.0,0.0,0.0,0.0,0.0,0.0,0.0,0.0,0.0,0.0,-1.3725,0.0,0.0,0.0,0.0,0.0,0.0,0.0,0.0,0.0,0.0,0.0,0.0,0.0,0.0,0.0,0.0,0.0,0.0,0.0,0.0,0.0,2.5486,2.5563,2.5574,2.5605,2.5684,2.5684,2.5681,2.5615,2.561,0.0,0.0,0.0,2.5151,2.5057,2.4693,2.4425,2.4247,2.4019,2.3786,2.3606,2.3922,2.389,2.3512,2.3457,0.0,0.0,0.0,0.0,0.0,0.0,0.0,0.0,0.0,0.0,0.0,0.0,0.0,0.0,0.0,0.0,0.0,0.0,0.0,0.0,0.0,0.0,0.0,0.0,0.0,0.0,0.0,0.0,0.0,0.0,0.0,0.0,0.0,0.0,0.0,0.0,0.0,0.0,0.0,0.0,0.0,0.0,0.0,0.0,0.0,0.0,0.0,0.0,0.0,0.0,0.0,0.0,0.0,0.0,0.0,0.0,0.0,0.0,0.0,0.0,0.0,0.0,0.0,-2.0171,-2.0172,-2.056,-2.0053,-1.9713,-1.9404,-1.7683,-1.6086,-1.4611,-1.454,0.0,0.0,0.0,0.0,0.0,0.0,0.0,0.0,0.0,0.0,0.0,0.0,0.0,0.0,0.0,0.0,0.0,0.0,0.0,2.5341,2.5428,2.5484,2.5541,2.5605,2.5664,2.5703,2.5697,2.5699,2.563,2.5515,2.5309,2.5096,2.4855,2.4613,2.4356,2.4037,2.3653,2.3661,2.3997,2.3221,2.3065,2.3534,2.4379,2.4603,2.4249,0.0,0.0,0.0,0.0,0.0,0.0,0.0,0.0,0.0,0.0,0.0,0.0,0.0,0.0,0.0,0.0,0.0,0.0,0.0,0.0,0.0,0.0,0.0,0.0,0.0,0.0,0.0,0.0,0.0,0.0,0.0,0.0,0.0,0.0,0.0,0.0,0.0,0.0,0.0,0.0,0.0,-1.4266,-1.588,0.0,0.0,0.0,0.0,0.0,0.0,0.0,0.0,0.0,0.0,0.0,0.0,0.0,-2.3173,-2.3165,-2.3251,-2.3047,-2.2483,-2.2022,-2.1742,-2.1628,-2.0764,-2.0479,-2.0651,-1.9942,0.0,-1.6318,-1.5171,0.0,0.0,0.0,0.0,0.0,0.0,0.0,0.0,0.0,0.0,0.0,0.0,0.0,0.0,0.0,0.0,0.0,0.0,0.0,0.0,0.0,2.5453,2.5537,2.5585,2.5662,2.5681,2.5644,2.5638,2.558,2.5456,2.5173,2.4943,2.4751,2.4445,2.4059,2.3628,2.3189,2.2885,2.2638,2.2876,2.2826,2.2598,2.3549,2.3387,2.2296,2.153,0.0,0.0,0.0,0.0,0.0,0.0,0.0,0.0,0.0,0.0,0.0,0.0,0.0,0.0,0.0,0.0,0.0,0.0,0.0,0.0,0.0,0.0,0.0,0.0,0.0,0.0,0.0,0.0,0.0,0.0,0.0,0.0,0.0,0.0,0.0,0.0,0.0,0.0,0.0,-1.5634,-1.7862,-1.8669,-2.0438,-2.1498,0.0,0.0,0.0,0.0,0.0,0.0,0.0,0.0,0.0,-2.4794,-2.5953,-2.6321,-2.5866,-2.6209,-2.6207,-2.5744,-2.4978,-2.4731,-2.4878,-2.3632,-2.2937,-2.2644,-2.2111,-2.0942,-1.9254,-1.7629,-1.6002,-1.4507,0.0,0.0,0.0,0.0,-1.0429,-0.9554,0.0,0.0,0.0,0.0,0.0,0.0,0.0,0.0,0.0,0.0,0.0,0.0,2.5341,2.5428,2.5503,2.5561,2.5657,2.5673,2.5604,2.5591,2.5514,2.5365,2.5062,2.4827,2.4642,2.4174,2.3629,2.3034,2.2565,2.2062,2.1547,2.2058,2.2041,2.1569,2.1902,2.1701,2.1085,2.0194,1.8962,1.7591,0.0,0.0,0.0,0.0,0.0,0.0,0.0,0.0,0.0,0.0,0.0,0.0,0.0,0.0,0.0,0.0,0.0,0.0,0.0,0.0,0.0,0.0,0.0,0.0,0.0,0.0,0.0,0.0,0.0,0.0,0.0,0.0,0.0,0.0,0.0,0.0,0.0,-1.9679,-2.0869,-2.1171,-2.2494,-2.343,0.0,0.0,0.0,0.0,0.0,0.0,-2.6278,-2.6834,-2.7321,-2.7869,-2.8898,-2.9179,-2.8541,-2.8945,-2.9093,-2.8868,-2.7761,-2.7429,-2.7697,-2.5942,-2.4921,-2.4409,-2.3644,-2.2794,-2.1702,-1.9704,-1.7773,-1.6048,-1.4863,-1.3599,-1.2333,-1.2025,-1.155,-1.101,0.0,0.0,0.0,0.0,0.0,0.0,0.0,0.0,0.0,0.0,0.0,2.5207,2.5207,2.5322,2.5422,2.5505,2.5629,2.5668,2.5592,2.5589,2.5492,2.5213,2.5004,2.4772,2.4523,2.3798,2.3097,2.2356,2.1641,2.1439,2.165,2.0246,2.0067,2.0899,1.9472,2.027,2.2542,2.0434,1.8956,1.7936,1.6162,0.0,0.0,0.0,0.0,0.0,0.0,0.0,0.0,0.0,0.0,0.0,0.0,0.0,0.0,0.0,0.0,0.0,0.0,0.0,0.0,0.0,0.0,0.0,0.0,0.0,0.0,0.0,0.0,0.0,0.0,0.0,0.0,0.0,0.0,0.0,0.0,0.0,0.0,-2.454,-2.5812,0.0,0.0,0.0,0.0,-2.7491,-2.8166,-2.8832,-2.9516,-2.9866,-3.0131,-3.0294,-3.0962,-3.1304,-3.1318,-3.13,-3.1348,-3.1334,-2.9763,-2.9078,-2.9,-2.6628,-2.5557,-2.5417,-2.3936,-2.3287,-2.3029,-2.0472,-1.836,-1.6569,-1.5031,-1.3493,-1.2115,-1.2007,-1.1738,-1.1421,0.0,0.0,0.0,0.0,0.0,2.5228,2.5209,2.5209,2.5209,2.5209,2.5209,2.5209,2.5209,2.5286,2.5351,2.543,2.5551,2.5609,2.5531,2.5579,2.5473,2.5221,2.5005,2.458,2.3958,2.324,2.2415,2.1464,2.0813,2.0004,1.9045,1.8774,1.8355,1.7812,1.7279,1.7576,1.8389,1.7735,1.6613,1.5277,1.4377,1.2852,0.0,0.0,0.0,0.0,0.0,0.0,0.0,0.0,0.0,0.0,0.0,0.0,0.0,0.0,0.0,0.0,0.0,0.0,0.0,0.0,0.0,0.0,0.0,0.0,0.0,0.0,0.0,0.0,0.0,0.0,0.0,0.0,0.0,0.0,0.0,0.0,0.0,-2.6945,-2.892,0.0,-2.9793,-3.031,-3.0714,-3.0834,-3.1283,-3.1679,-3.2179,-3.2717,-3.2976,-3.2856,-3.3499,-3.3561,-3.2976,-3.2554,-3.2274,-3.2028,-3.0455,-2.9738,-2.9627,-2.7475,-2.6333,-2.6032,-2.4814,-2.3897,-2.3202,-2.2304,-2.0876,-1.9173,-1.7858,-1.6365,-1.4926,-1.4114,-1.3239,-1.2333,0.0,0.0,0.0,2.5137,2.5141,2.5115,2.5096,2.5153,2.5191,2.5172,2.5191,2.5287,2.5547,2.5394,2.5405,2.5774,2.564,2.5524,2.551,2.5554,2.5479,2.5201,2.4879,2.4303,2.3446,2.2681,2.1796,2.0804,1.9828,1.8713,1.7382,1.717,1.6587,1.5658,1.5112,1.5059,1.5339,1.4899,1.4277,1.3599,1.3133,1.1731,1.0001,0.0,0.0,0.0,0.0,0.0,0.0,0.0,0.0,0.0,0.0,0.0,0.0,0.0,0.0,0.0,0.0,0.0,0.0,0.0,0.0,0.0,0.0,0.0,0.0,0.0,0.0,0.0,0.0,0.0,0.0,0.0,0.0,0.0,0.0,-2.7313,-2.9058,-2.9748,-3.1678,-3.2842,-3.2628,-3.3113,-3.358,-3.3816,-3.421,-3.468,-3.5164,-3.5474,-3.5437,-3.4966,-3.523,-3.5005,-3.3994,-3.3393,-3.3099,-3.3004,-3.1211,-3.0387,-3.0443,-2.8372,-2.7149,-2.6526,-2.5523,-2.4611,-2.3751,-2.3446,-2.2619,-2.1424,-1.9855,-1.8109,-1.6282,-1.5118,-1.3968,-1.284,0.0,2.5124,2.4989,2.4996,2.4984,2.4977,2.4912,2.5046,2.5153,2.5096,2.5141,2.5459,2.6182,2.5623,2.5566,2.6481,2.5857,2.5422,2.5503,2.5554,2.5479,2.5205,2.462,2.3916,2.3097,2.2165,2.126,2.0347,1.8751,1.761,1.6917,1.5423,1.4778,1.4755,1.3037,1.2957,1.401,1.2346,1.2198,1.3212,1.263,1.1396,0.9998,0.0,0.0,0.0,0.0,0.0,0.0,0.0,0.0,0.0,0.0,0.0,0.0,0.0,0.0,0.0,0.0,0.0,0.0,0.0,0.0,0.0,0.0,0.0,0.0,0.0,0.0,0.0,0.0,0.0,0.0,0.0,0.0,0.0,-2.7287,-2.9437,-3.155,-3.2938,-3.4059,-3.4723,-3.4777,-3.5123,-3.5621,-3.6335,-3.7004,-3.7691,-3.8397,-3.8084,-3.7492,-3.6448,-3.6114,-3.5457,-3.4428,-3.3797,-3.3797,-3.4287,-3.2064,-3.1137,-3.1378,-2.9244,-2.7829,-2.6973,-2.6057,-2.53,-2.4694,-2.374,-2.3276,-2.3007,-2.0772,-1.8346,-1.6105,-1.5068,-1.4022,-1.2844,2.4892,2.4809,2.4772,2.4783,2.4793,2.4792,2.4815,2.4874,2.4912,2.495,2.498,2.5072,2.5256,2.5101,2.5162,2.5561,2.5425,2.5389,2.5498,2.5564,2.5421,2.4996,2.4354,2.3603,2.2674,2.164,2.0426,1.9004,1.7684,1.6446,1.532,1.4063,1.3339,1.2991,1.2017,1.2113,1.2887,1.194,1.1691,1.1979,1.156,1.0703,0.9699,0.0,0.0,0.0,0.0,0.0,0.0,0.0,0.0,0.0,0.0,0.0,0.0,0.0,0.0,0.0,0.0,0.0,0.0,0.0,0.0,0.0,0.0,0.0,0.0,0.0,0.0,0.0,0.0,0.0,0.0,0.0,-2.7762,-2.9059,-2.901,-3.1867,-3.4358,-3.5493,-3.6913,-3.7872,-3.799,-3.8109,-3.8262,-3.8463,-3.8649,-3.8698,-3.8681,-3.8614,-3.8076,-3.6924,-3.683,-3.6175,-3.5005,-3.393,-3.3235,-3.3021,-3.1197,-3.0401,-3.0458,-2.8954,-2.796,-2.7284,-2.6414,-2.5375,-2.4225,-2.4039,-2.325,-2.2138,-2.1692,-2.0315,-1.8572,-1.7798,-1.573,-1.3124,2.4718,2.4633,2.4567,2.4543,2.4522,2.4561,2.4572,2.4639,2.4682,2.4701,2.4756,2.4934,2.5283,2.505,2.5096,2.5649,2.5392,2.5302,2.5492,2.5508,2.5356,2.4999,2.4342,2.3537,2.2599,2.1374,2.0036,1.8617,1.7162,1.5909,1.4821,1.3392,1.2591,1.2235,1.1376,1.1517,1.2407,1.1322,1.1098,1.1432,1.0701,1.0007,0.9614,0.988,1.0013,1.0045,1.0098,0.9923,0.9518,0.8388,0.0,0.0,0.0,0.0,0.0,0.0,0.0,0.0,0.0,0.0,0.0,0.0,0.0,0.0,0.0,0.0,0.0,0.0,0.0,0.0,0.0,0.0,0.0,0.0,-3.0049,-3.177,-3.2641,-3.4524,-3.6313,-3.7708,-3.8735,-3.9445,-3.9749,-3.9506,-3.9445,-3.9644,-3.9425,-3.9206,-3.902,-3.8867,-3.8428,-3.7552,-3.7385,-3.6692,-3.5362,-3.408,-3.3291,-3.2901,-3.1139,-3.0395,-3.0448,-2.9457,-2.861,-2.7802,-2.6837,-2.5752,-2.453,-2.4003,-2.2994,0.0,0.0,0.0,0.0,0.0,-1.5725,-1.3591,2.4632,2.4504,2.4337,2.4226,2.4207,2.4225,2.4244,2.4336,2.4409,2.4391,2.4538,2.4923,2.5653,2.5152,2.5136,2.6139,2.5538,2.5217,2.5492,2.5449,2.5305,2.5076,2.4418,2.3595,2.266,2.1193,1.9885,1.87,1.6896,1.5682,1.4969,1.3183,1.2308,1.2268,1.1091,1.1285,1.2391,1.0922,1.0746,1.1447,1.025,0.9651,0.9542,1.0255,1.0571,1.0717,1.1356,1.1276,1.0595,0.9705,0.0,0.0,0.0,0.0,0.0,0.0,0.0,0.0,0.0,0.0,0.0,0.0,0.0,0.0,0.0,0.0,0.0,0.0,0.0,0.0,0.0,0.0,0.0,0.0,-3.2542,-3.4984,-3.6985,-3.7251,-3.7885,-3.9546,-3.9763,-3.9969,-4.0353,-3.9968,-3.9811,-4.0177,-3.9684,-3.9379,-3.9325,-3.902,0.0,0.0,0.0,-3.7107,-3.5859,-3.4442,-3.3722,-3.3517,-3.1559,-3.0756,-3.0939,-3.0315,-2.9359,-2.8231,-2.718,-2.6181,-2.5132,-2.3838,-2.2651,-2.175,-2.1695,-2.0439,-1.8438,-1.6188,-1.493,-1.4267,2.422,2.4188,2.406,2.3785,2.3739,2.3785,2.3876,2.3921,2.4036,2.4275,2.435,2.4469,2.466,2.4561,2.4645,2.5067,2.505,2.5179,2.5566,2.5461,2.5246,2.4868,2.4163,2.3271,2.2175,2.0838,1.9427,1.7905,1.6399,1.5283,1.4478,1.2782,1.2094,1.2273,1.1366,1.1517,1.238,1.2075,1.1965,1.2042,1.172,1.0773,0.9548,1.0225,1.0822,1.141,1.2097,1.2342,1.2216,1.1153,1.0465,0.985,0.854,0.7614,0.0,0.0,0.0,0.0,0.0,0.0,0.0,0.0,0.0,0.0,0.0,0.0,0.0,0.0,0.0,0.0,0.0,0.0,0.0,-3.2206,-3.4868,-3.7085,-3.8576,-3.9513,-3.9995,-3.9885,-4.0204,-4.04,-4.0397,-4.0621,-4.0689,-4.0389,-4.0154,-3.9885,-3.9484,-3.9292,-3.9036,-3.8665,-3.8592,-3.8121,-3.7245,-3.5299,-3.413,-3.3612,0.0,0.0,-3.0684,-3.0003,-2.9073,-2.7952,-2.7213,-2.5807,-2.4,-2.3855,-2.2627,-2.0758,-2.0063,-1.9308,-1.8395,-1.6688,-1.5848,-1.5308,2.37,2.3793,2.3736,2.3404,2.3348,2.3362,2.3439,2.3506,2.361,2.3774,2.3925,2.4012,2.4045,2.4111,2.4269,2.4572,2.4943,2.5274,2.5584,2.5508,2.5293,2.4954,2.4306,2.3415,2.2287,2.1165,1.9766,1.8113,1.6773,1.5643,1.4607,1.3148,1.2415,1.2347,1.1696,1.1722,1.2317,1.2375,1.2233,1.2044,1.2249,1.1594,1.0594,1.1226,1.1788,1.235,1.3025,1.3312,1.3236,1.23,1.1829,1.1443,1.0114,0.8798,0.7395,0.0,0.0,0.0,0.0,0.0,0.0,0.0,0.0,0.0,0.0,0.0,0.0,0.0,0.0,-2.3,-2.5792,0.0,-3.171,-3.4474,-3.667,-3.8454,-3.958,-4.0546,-4.0972,-4.0385,-4.0767,-4.1122,-4.1303,-4.1241,-4.1196,-4.1196,-4.0874,-4.0414,-3.9885,-3.9782,-3.9542,-3.9053,-3.9044,-3.8663,-3.7855,-3.6127,-3.4763,-3.3768,-3.2003,-3.097,-3.0702,-3.0266,-2.9728,-2.8898,-2.7584,-2.6312,-2.4981,-2.301,-2.1396,-2.0014,-1.8753,-1.819,-1.7922,-1.6863,-1.6323,-1.5999,2.3194,2.3249,2.3263,2.3035,2.3005,2.2994,2.3005,2.3085,2.3194,2.3245,2.3458,2.3631,2.3674,2.3779,2.4008,2.4408,2.4962,2.5379,2.5585,2.5541,2.5396,2.5113,2.4537,2.3732,2.2667,2.1695,2.0406,1.875,1.7639,1.6459,1.5206,1.4064,1.3253,1.2738,1.2249,1.2195,1.2456,1.2757,1.2667,1.2416,1.2991,1.2671,1.2015,1.2544,1.2797,1.303,1.3647,1.385,1.372,1.299,1.2792,1.2607,1.1505,1.0014,0.8292,0.602,0.3853,0.0,0.0,0.0,0.0,0.0,0.0,0.0,0.0,-1.5347,-1.7044,-2.014,-2.2579,-2.5149,-2.821,-3.1165,-3.3957,-3.6352,-3.8204,-3.96,-4.0366,-4.1018,-4.1393,-4.1168,-4.1455,-4.1785,-4.2157,-4.1828,-4.1743,-4.2038,-4.1578,-4.0995,-4.0317,-4.0235,-3.9969,-3.9379,-3.9325,-3.9023,-3.8367,-3.6761,-3.5364,-3.4161,-3.2543,-3.1407,-3.0821,-3.0511,-3.0141,-2.9608,-2.752,-2.6448,-2.5835,-2.2138,-2.031,-1.9679,-1.8148,-1.7516,-1.7413,-1.6878,-1.6581,-1.6363,2.284,2.2546,2.2419,2.2634,2.2658,2.2665,2.2655,2.2671,2.2784,2.3076,2.3252,2.3419,2.3593,2.3625,2.3898,2.4521,2.4981,2.5321,2.5585,2.5599,2.5449,2.5111,2.4591,2.3939,2.3221,2.2158,2.1,1.9758,1.8823,1.7721,1.6406,1.5641,1.4752,1.3714,1.3365,1.3282,1.3433,1.4345,1.4405,1.4064,1.4985,1.4631,1.3564,1.3604,1.3203,1.2714,1.3264,1.3387,1.324,1.2797,1.274,1.2722,1.1889,1.1106,0.9863,0.6625,0.4485,0.2247,-0.2195,-0.4495,-0.6235,-0.8333,-0.961,-1.1238,0.0,-1.6326,-1.8373,-2.2099,-2.4917,-2.7631,-3.0565,-3.3926,-3.6489,-3.7412,-3.9425,-4.088,-4.0984,-4.1184,-4.1594,-4.2235,-4.218,-4.2157,-4.2198,-4.2498,-4.2577,-4.2198,-4.1997,-4.1508,-4.0625,-4.0431,-4.0087,-3.9501,-3.9501,-3.9379,-3.9148,-3.7048,-3.5655,-3.5059,-3.287,-3.1522,-3.0747,-2.9928,-2.9116,-2.8282,-2.5972,-2.4696,-2.4164,-2.2322,-2.1019,-2.003,-1.8816,-1.8002,-1.749,-1.7088,-1.6797,-1.6581,2.2571,2.2381,2.2215,2.2113,2.189,2.1823,2.2032,2.2086,2.2202,2.2641,2.2806,2.2995,2.3282,2.3554,2.3923,2.4369,2.4786,2.5149,2.5469,2.6007,2.5956,2.5194,2.5352,2.4861,2.3557,2.29,2.186,2.0415,1.9807,1.8821,1.7384,1.6901,1.635,1.5752,1.5635,1.5356,1.508,1.6182,1.5891,1.487,1.5875,1.5545,1.4506,1.4627,1.4277,1.3607,1.3497,1.3203,0.0,1.294,1.2779,1.2402,1.1931,1.077,0.8951,0.5699,0.3782,0.1935,-0.1765,-0.3876,-0.5673,-0.7863,-0.9248,-1.1177,-1.5226,-1.7201,-1.9304,-2.3323,-2.6269,-2.8961,-3.1839,-3.5027,-3.7513,-3.8339,-4.0223,-4.1499,-4.1258,-4.1502,-4.1596,-4.1247,-4.1322,-4.1776,-4.2698,-4.2558,-4.2468,-4.2711,-4.2258,-4.1779,-4.1429,-4.1105,-4.0625,-4.0037,-3.9764,-3.9337,-3.88,-3.7446,-3.6225,-3.5118,-3.3388,-3.217,-3.1377,-3.025,-2.8958,-2.7626,-2.6399,-2.5162,-2.3923,-2.2614,-2.1336,-2.0088,-1.9103,-1.8306,-1.7534,-1.7078,-1.674,-1.6581,2.2394,2.2265,2.2049,2.1754,2.1276,2.1055,2.1448,2.1584,2.1735,2.2082,2.2366,2.266,2.3028,2.3549,2.3982,2.4278,2.4664,2.5039,2.5389,2.6087,2.6133,2.5346,2.5749,2.5392,2.4106,2.3618,2.2886,2.1804,2.1376,2.056,1.939,1.9087,1.8658,1.8083,1.7968,1.7575,1.6977,1.7656,1.718,1.6011,1.6642,1.625,1.5372,1.5465,1.5103,1.4482,1.3694,1.3083,1.2592,1.2618,1.2258,1.174,1.1392,0.9931,0.7783,0.4741,0.2371,0.0119,-0.2167,-0.3803,-0.5389,-0.7736,-0.9346,-1.1483,-1.5532,-1.7789,-2.0112,-2.4028,-2.6918,-2.9572,-3.2117,-3.5038,-3.741,-3.8331,-4.0267,-4.1545,-4.1253,-4.1353,-4.1136,-4.0309,-4.0078,-4.0577,-4.2152,-4.1736,-4.1722,-4.2723,-4.185,-4.1324,-4.1444,-4.1361,-4.0899,-4.0141,-3.9832,-3.9261,-3.8453,-3.7503,-3.6423,-3.514,-3.3898,-3.2864,-3.1916,-3.0345,-2.8722,-2.719,-2.6832,-2.5659,-2.4002,-2.3154,-2.1823,-2.0187,-1.9539,-1.8656,-1.7755,-1.72,-1.6864,-1.6684,2.231,2.2049,2.1797,2.1708,2.1039,2.0632,2.0959,2.1245,2.1448,2.1524,2.1986,2.2478,2.2949,2.3617,2.4067,2.4284,2.4681,2.5032,2.5369,2.5605,2.5685,2.5583,2.5364,2.5143,2.4968,2.4248,2.4062,2.439,2.3842,2.3367,2.2945,2.2941,2.2077,2.0556,2.016,1.9677,1.9089,1.861,1.8176,1.7808,1.7421,1.6869,1.6255,1.6045,1.5556,1.4846,1.3611,1.2862,1.2255,1.1444,1.0978,1.0624,0.99,0.8695,0.6993,0.4174,0.0226,-0.3444,-0.4362,-0.5204,-0.6267,-0.8293,-1.0192,-1.2405,-1.5186,-1.8093,-2.0978,-2.3938,-2.6821,-2.9375,-3.1099,-3.3852,-3.6125,-3.702,-3.9264,-4.0958,-4.0998,-4.0453,-4.005,-4.0013,-3.8693,-3.839,-3.9939,-3.9845,-4.0336,-4.1903,-4.0573,-3.9784,-4.0029,-4.0799,-4.0665,-3.9465,-3.9465,-3.9197,-3.8606,-3.7166,-3.6041,-3.5261,-3.4511,-3.3443,-3.2028,-2.9911,-2.8217,-2.698,-2.65,-2.5528,-2.4245,-2.4059,-2.2565,-2.0402,-2.0199,-1.9319,-1.803,-1.7634,-1.7301,-1.6955,2.202,2.1886,2.1631,2.1055,2.0714,2.0447,2.0342,2.0712,2.1103,2.1417,2.182,0.0,0.0,0.0,0.0,0.0,2.4625,2.4954,2.5246,2.6002,2.6151,2.5566,2.6009,2.5878,2.5077,2.4738,2.4461,2.4224,2.3782,2.3372,2.2939,2.2647,2.2475,2.2415,2.1827,2.1374,2.1006,2.0515,2.0174,1.9937,1.9118,1.8848,1.8826,1.7488,1.6693,1.6108,0.0,1.3491,1.2414,1.2482,1.1941,1.1147,1.0701,0.9926,0.8271,0.3457,-0.1285,-0.4965,-0.5132,-0.5747,-0.6791,-0.8502,-1.0361,-1.2592,-1.5579,-1.8403,-2.1014,-2.3277,-2.58,-2.8018,-2.9637,-3.2144,-3.4504,-3.6004,-3.859,-4.0428,-4.0428,-4.1188,-4.0929,-3.8722,-3.8955,-3.8892,-3.7763,-3.8033,-3.9103,-4.1129,-3.978,-3.937,-4.0473,-4.0452,-4.0286,-4.0071,-3.9254,-3.8589,-3.8017,-3.7043,-3.6128,-3.5262,-3.3974,-3.2215,-3.0075,-2.92,-2.8136,-2.6922,-2.6107,-2.548,-2.5053,-2.3797,-2.2653,-2.1553,-2.0484,-1.9424,-1.8417,-1.7854,-1.7357,-1.6955,0.0,2.1691,2.1432,2.0845,2.0614,0.0,0.0,0.0,0.0,0.0,0.0,0.0,0.0,0.0,0.0,0.0,0.0,2.4867,2.5176,2.591,2.6113,2.5598,2.6087,2.6015,2.5216,2.5046,2.4903,2.4771,2.4469,2.4197,2.3993,2.364,2.3608,2.3835,2.3547,2.3285,2.2978,2.2234,2.1794,2.1513,1.995,1.9591,1.9866,1.8452,1.7612,0.0,1.6194,1.4801,1.3406,1.3236,1.2648,1.1913,1.149,1.0796,0.9124,0.3502,-0.0485,-0.3429,-0.5118,-0.6171,-0.7247,-0.8885,-1.0484,-1.2411,-1.527,-1.7696,-1.9892,-2.193,-2.3997,-2.5901,-2.7319,-2.9762,-3.2097,-3.3693,-3.6247,-3.8401,-3.9301,-3.9749,-3.956,-3.8349,-3.8608,-3.8554,-3.766,-3.7368,-3.7937,-3.9625,-3.8786,-3.8596,-3.9524,-3.9784,-3.9874,-3.9873,-3.8898,-3.8156,-3.7619,-3.6721,-3.5795,-3.4918,-3.3643,-3.1887,-2.9797,-2.9118,-2.8276,-2.724,-2.6134,-2.5483,-2.5082,-2.3644,-2.259,-2.1812,-2.0611,-1.9528,-1.8608,-1.8073,-1.7468,-1.6909,0.0,0.0,2.1229,0.0,0.0,0.0,0.0,0.0,0.0,0.0,0.0,0.0,0.0,0.0,0.0,0.0,0.0,0.0,2.5158,2.5387,2.5551,2.5683,2.562,2.5532,2.5409,2.5215,2.5401,2.5947,2.5799,2.5801,2.5909,2.5763,2.5358,2.478,2.5186,2.5142,2.4713,2.3531,2.2872,2.242,2.0042,1.9332,1.9568,1.8874,1.8277,1.7827,1.7666,1.6604,1.5129,1.3705,1.3117,1.2897,1.2291,1.1302,0.9406,0.4606,0.2395,0.0529,-0.4275,-0.6429,-0.7754,-0.9533,-1.0822,-1.2191,-1.4434,-1.6212,-1.8034,-2.0034,-2.166,-2.3124,-2.4411,-2.6885,-2.9151,-3.0474,-3.2778,-3.5331,-3.7921,-3.6783,-3.6552,-3.8841,-3.7809,-3.7548,-3.9231,-3.7797,-3.7034,-3.7692,-3.7616,-3.7529,-3.7496,-3.8852,-3.9413,-3.8923,-3.8442,-3.7953,-3.7525,-3.6239,-3.5138,-3.4246,-3.3488,-3.2409,-3.0994,-2.9701,-2.8671,-2.7819,-2.6515,-2.5429,-2.4512,-2.3622,-2.2501,-2.1233,-2.0652,-1.9719,-1.8661,-1.8278,-1.759,-1.6807,0.0,0.0,0.0,0.0,0.0,0.0,0.0,0.0,0.0,0.0,0.0,0.0,0.0,0.0,0.0,0.0,0.0,0.0,2.5038,2.5282,2.5464,2.5556,2.5584,2.5584,2.5556,2.5352,2.5313,2.5484,2.5097,2.4866,2.4801,2.4465,2.4272,2.4185,2.3653,2.3396,2.3338,2.2439,2.2361,2.2679,2.1117,2.0969,2.1476,1.9604,1.8736,1.8468,1.776,1.7242,1.6756,1.5584,1.462,1.4074,1.4811,1.273,1.0006,0.9843,0.5012,-0.0595,-0.2291,-0.6058,-0.9912,-1.1465,-1.2687,-1.3811,-1.5268,-1.6792,-1.8339,-1.9891,-2.091,-2.2077,-2.3807,-2.6,-2.8466,-3.1155,-3.4772,-3.7817,-3.9406,-4.0436,-4.0617,-3.945,-3.9614,-3.9298,-3.7939,-3.8553,-3.8833,-3.8249,-3.7344,-3.7284,-3.8464,-3.8793,-3.898,-3.903,-3.8277,-3.7833,-3.7644,-3.5959,-3.4567,-3.354,-3.2866,-3.1739,-3.0245,-2.9388,-2.8683,-2.7951,-2.6173,-2.5502,-2.5494,-2.3631,-2.2752,-2.2477,-2.1176,-2.0105,-1.915,-1.8513,-1.771,-1.6909,0.0,0.0,0.0,0.0,0.0,0.0,0.0,0.0,0.0,0.0,0.0,0.0,0.0,0.0,0.0,0.0,0.0,0.0,0.0,2.5178,2.5396,2.545,2.5582,2.5611,2.5564,2.5463,2.5379,2.5301,2.5046,2.4757,2.4489,2.4192,2.4016,2.3897,2.3618,2.3545,2.3557,2.2815,2.2754,0.0,0.0,2.1438,2.1802,2.0193,1.9498,1.9266,1.8472,1.8108,1.7895,1.745,1.6529,1.5707,1.6796,1.5756,1.4066,1.3292,0.9807,0.4896,-0.1025,-0.507,-0.8638,-1.3007,-1.4646,-1.5383,-1.6135,-1.7264,-1.8499,-1.9735,-2.0639,-2.1616,-2.2929,-2.5266,-2.7666,-2.9737,-3.3541,-3.6853,-3.8461,-3.9964,-4.0836,-4.0679,-4.1135,-4.1018,-3.9871,-4.0114,-4.0293,-4.0214,-3.9058,-3.8385,-3.847,-3.8999,-3.9056,-3.8474,-3.8117,-3.7721,-3.7248,-3.601,-3.4729,-3.3465,-3.3066,-3.2042,-3.0477,-2.9334,-2.8523,-2.7953,0.0,-2.5,-2.5058,-2.3363,-2.2694,-2.2614,-2.1421,-2.0497,-1.9734,-1.8821,-1.8027,-1.7324,0.0,0.0,0.0,0.0,0.0,0.0,0.0,0.0,0.0,0.0,2.1974,2.2377,2.2605,2.291,0.0,0.0,0.0,0.0,0.0,0.0,2.5282,2.5396,2.5573,2.5625,2.5529,2.5564,2.5507,2.5337,2.5292,2.508,2.4651,2.4491,2.4192,2.3813,2.4218,2.4346,2.4229,2.367,2.342,2.3295,2.19,2.1383,2.1385,0.0,2.0302,2.0047,1.9427,1.8988,1.8754,1.8958,1.8317,1.7556,1.8296,1.8987,1.893,1.5807,1.4879,1.2196,-0.0055,-0.3925,-0.641,-1.4553,-1.677,-1.7036,-1.7188,-1.7828,-1.87,-1.9782,-2.0767,-2.1632,-2.2265,-2.4698,-2.6923,-2.7907,-3.1293,-3.4596,-3.692,-3.7941,-3.9368,-4.1863,-4.2052,-4.2153,-4.2607,-4.159,-4.125,-4.2117,-4.1222,-3.9921,-3.8338,-3.9248,-3.9095,-3.7514,-3.7758,-3.7397,-3.6369,-3.5963,-3.4959,-3.3413,-3.3264,-3.2468,-3.1004,-2.9321,-2.8335,-2.7806,-2.5664,0.0,-2.408,-2.3165,-2.2572,-2.2217,-2.1623,-2.0993,-2.0295,-1.9294,-1.8501,-1.7809,0.0,0.0,0.0,0.0,0.0,0.0,0.0,0.0,0.0,0.0,2.184,2.231,0.0,0.0,0.0,0.0,0.0,0.0,0.0,0.0,0.0,2.5376,2.5432,2.5519,2.5663,2.557,2.5531,2.5554,2.5321,2.5118,2.4917,2.4622,2.4245,2.3803,2.371,2.349,2.3157,2.3057,2.298,2.2886,2.2324,2.1984,2.174,2.1238,0.0,0.0,1.9803,1.9435,1.9191,1.8831,1.8829,1.9043,1.9179,1.9031,1.8768,1.8577,1.5828,1.0773,0.1271,-0.3554,-0.8165,-1.746,-1.9389,-1.8969,-1.8916,-1.9117,-1.9684,-2.09,-2.1383,-2.2004,-2.3152,-2.4872,-2.6999,-2.9659,-3.2393,-3.5357,-3.8664,-3.9501,-4.015,-4.119,-4.0996,-4.0831,-4.0906,-4.0861,-4.0757,-4.0614,-4.0349,-4.0151,-4.0039,-3.8943,-3.7785,-3.6722,-3.6817,-3.6139,-3.4579,-3.4539,-3.364,-3.197,-3.1319,-3.0817,-3.034,-2.8921,-2.8005,-2.7406,-2.5897,0.0,-2.4432,-2.354,-2.2994,-2.2618,-2.2402,-2.1609,-2.0521,-2.0219,-1.9178,-1.7843,0.0,0.0,0.0,0.0,0.0,0.0,0.0,2.1417,2.1932,2.1735,2.2077,2.231,2.231,2.2782,2.314,0.0,0.0,0.0,0.0,0.0,0.0,0.0,0.0,0.0,2.559,2.5605,2.559,2.5554,0.0,2.5294,2.5107,2.4867,2.4584,2.4259,2.3948,2.3707,2.3502,2.333,2.3188,2.3058,2.2877,2.2702,2.2478,0.0,0.0,0.0,2.0039,1.9317,1.8535,1.8289,1.8272,1.839,1.8316,1.8326,1.8379,1.8521,1.7538,1.3651,0.089,-0.3322,-0.708,-1.9387,-2.2132,-2.1624,-2.0889,-2.1026,-2.1485,-2.2268,-2.2747,-2.3195,-2.3842,-2.5375,-2.7084,-2.8695,-3.1695,-3.4486,-3.6367,-3.8613,-4.0253,-4.0781,-4.1447,-4.1735,-4.1415,-4.1345,-4.1054,-4.0399,-3.979,-3.9406,-3.9313,-3.8428,-3.7753,-3.7355,-3.6644,-3.5824,-3.4871,-3.3828,-3.2805,-3.1837,-3.1095,-3.0437,-2.9831,-2.8581,-2.7807,-2.7377,-2.5798,0.0,-2.449,-2.3773,-2.326,-2.2889,-2.2601,-2.2016,-2.1224,-2.0484,-1.9451,-1.8298,0.0,0.0,0.0,0.0,0.0,0.0,2.115,2.154,2.1886,2.2152,2.2254,2.231,2.231,2.2721,2.3035,0.0,0.0,0.0,0.0,0.0,0.0,0.0,0.0,0.0,2.549,0.0,0.0,2.55,2.5587,0.0,0.0,0.0,0.0,0.0,2.4423,2.4242,2.419,2.3933,2.3719,0.0,0.0,2.3424,0.0,0.0,0.0,0.0,0.0,1.9192,1.7947,1.5896,1.48,1.4122,1.2998,1.4881,1.713,1.5383,1.5821,1.3409,-0.2502,-0.5857,-0.8095,-2.1405,-2.4492,-2.3971,-2.2811,-2.282,-2.3203,-2.3639,-2.4024,-2.4323,-2.4463,-2.5693,-2.6844,-2.74,-3.0305,-3.2832,-3.3791,-3.7067,-3.9602,-4.0269,-4.1706,-4.2453,-4.1985,-4.1745,-4.1184,-4.0088,-3.8917,-3.8193,-3.8023,-3.7748,-3.758,-3.7605,-3.6454,-3.548,-3.4697,-3.3269,-3.2172,-3.1463,-3.0835,-3.014,-2.9398,-2.827,-2.7606,-2.7205,-2.5729,0.0,0.0,-2.3921,-2.3523,-2.3172,-2.2768,-2.237,-2.1888,-2.0733,-1.9761,-1.885,0.0,0.0,0.0,0.0,0.0,0.0,2.0827,2.1386,2.1811,2.1857,2.2106,2.231,2.231,2.2552,2.2825,0.0,0.0,0.0,0.0,0.0,0.0,0.0,0.0,0.0,0.0,0.0,0.0,2.5505,2.5625,0.0,0.0,0.0,0.0,0.0,0.0,2.4674,2.4557,2.4509,0.0,0.0,0.0,0.0,0.0,0.0,0.0,0.0,0.0,1.9538,1.8405,0.9786,0.5609,0.3212,-0.1065,0.5861,1.419,0.7301,0.5636,0.2927,-1.134,-1.4573,-1.592,-2.4374,-2.5961,-2.5183,-2.4234,-2.3992,-2.4132,-2.465,-2.4663,-2.4674,-2.5051,-2.5207,-2.584,-2.7489,-2.8781,-3.0617,-3.3577,-3.5899,-3.7831,-3.9335,-4.0516,-4.1162,-4.1117,-4.1091,-4.0334,-3.854,-3.7247,-3.6784,-3.7345,-3.6637,-3.6136,-3.6028,-3.5591,-3.4183,-3.1712,-3.2527,-3.1755,-2.9467,-2.9336,-2.9145,-2.8934,-2.8041,-2.7267,-2.6657,-2.6016,-2.5373,0.0,-2.4204,-2.3797,-2.3508,-2.3319,-2.2768,-2.2123,-2.1527,-2.0521,-1.9347,0.0,0.0,0.0,0.0,0.0,0.0,2.0794,2.1355,2.1797,2.1797,2.2077,2.231,2.231,2.2394,2.2579,2.285,2.3253,0.0,0.0,0.0,0.0,0.0,0.0,0.0,0.0,0.0,2.5729,2.6286,2.5813,0.0,0.0,0.0,0.0,0.0,0.0,2.5119,2.5086,2.5037,0.0,0.0,0.0,0.0,0.0,0.0,0.0,0.0,0.0,0.0,1.1293,0.844,0.3673,-0.16,-0.46,-0.157,0.2515,-0.0349,-0.0867,-0.2926,-1.4029,-1.6079,-1.7057,-2.521,-2.6529,-2.5661,-2.496,-2.4722,-2.4762,-2.5182,-2.5178,-2.5159,-2.5391,-2.541,-2.58,-2.6991,-2.7923,-2.9296,-3.1636,-3.3501,-3.5498,-3.7742,-3.8853,-3.9852,-4.0905,-4.0992,-4.0241,-3.8408,-3.6862,-3.6308,-3.7026,-3.6919,-3.636,-3.5281,-3.4628,-3.3403,-3.1611,-3.1094,-3.0374,-2.9494,-2.9053,-2.8739,-2.8468,-2.8149,-2.7818,-2.7487,-2.6933,-2.6421,0.0,-2.5249,-2.4712,-2.4162,-2.3508,-2.2934,-2.2388,-2.1334,-2.0383,-1.9347,0.0,0.0,0.0,0.0,0.0,2.0695,2.0794,2.1198,2.154,2.1631,2.1945,2.2152,2.2152,2.2439,2.2717,2.2894,2.32,0.0,0.0,0.0,0.0,0.0,0.0,0.0,0.0,0.0,2.5978,2.6706,2.6373,2.6428,0.0,0.0,2.5746,2.5498,0.0,0.0,0.0,0.0,0.0,0.0,0.0,0.0,0.0,0.0,0.0,0.0,0.0,0.0,0.0,0.0,0.0,-0.8811,-1.0484,-1.0605,-0.9854,-0.8409,-0.784,-0.9467,-1.7626,-1.926,-2.0029,-2.5757,-2.6635,-2.5937,-2.5347,-2.5144,-2.5174,-2.5443,-2.5453,-2.5434,-2.5544,-2.5563,-2.5758,-2.6339,-2.7349,-2.8548,-3.005,-3.1932,-3.3965,-3.6113,-3.7108,-3.8314,-4.0093,-4.0508,-3.9916,-3.8117,-3.6859,-3.6307,-3.6559,-3.6521,-3.6035,-3.5035,-3.4147,-3.3015,-3.1578,-3.0433,-2.9802,-2.9654,-2.9173,-2.8748,-2.8404,-2.8474,-2.8344,-2.8136,-2.7625,-2.7137,0.0,-2.611,-2.5491,-2.4823,-2.3948,-2.2819,-2.1592,-2.086,-1.9648,-1.8112,0.0,0.0,0.0,0.0,0.0,2.0407,2.0761,2.0794,2.0942,2.1276,2.1601,2.1827,2.1827,2.2744,2.3376,2.3376,2.3215,0.0,0.0,0.0,0.0,0.0,0.0,0.0,2.479,2.5728,2.6294,2.651,2.743,2.7435,2.6611,2.6736,2.6329,2.552,0.0,0.0,0.0,0.0,0.0,0.0,0.0,0.0,0.0,0.0,0.0,0.0,0.0,0.0,0.0,0.0,0.0,0.0,0.0,-2.2131,-2.1384,-1.7129,-1.6212,-1.7851,-2.3712,-2.6126,-2.6856,-2.6338,-2.6252,-2.6091,-2.5372,-2.5251,-2.533,-2.5464,-2.5447,-2.5425,-2.5488,-2.5499,-2.5537,-2.5605,-2.7016,-2.8411,-2.9283,-3.1666,-3.364,-3.4518,-3.5344,-3.6545,-3.8357,-3.9374,-3.917,-3.734,-3.7121,-3.6718,-3.5866,-3.487,-3.4623,-3.5282,-3.4393,-3.2978,-3.1031,-3.0993,-3.0489,-2.9495,-2.9495,-2.9279,-2.8888,-2.8888,-2.8688,-2.8273,-2.7872,-2.743,0.0,-2.6506,-2.6038,-2.5508,-2.4847,-2.2367,-1.9335,-2.0276,-1.8346,-1.518,0.0,0.0,0.0,0.0,0.0,0.0,2.0441,2.0662,2.0827,2.0942,2.1245,2.1462,2.1462,2.2427,2.3059,2.3059,2.3529,0.0,0.0,0.0,0.0,0.0,0.0,0.0,2.5346,2.5772,2.665,2.8,2.7739,2.789,2.8352,2.7201,2.6539,2.6299,2.5791,2.5554,0.0,0.0,0.0,0.0,0.0,0.0,2.377,0.0,0.0,0.0,0.0,0.0,0.0,0.0,0.0,0.0,0.0,0.0,0.0,-1.9802,-2.0276,-2.1738,-2.4412,-2.5126,-2.5222,-2.5685,-2.5509,-2.5165,-2.5033,-2.5155,-2.5348,-2.548,-2.5376,-2.5272,-2.5287,-2.5786,-2.6192,-2.6204,-2.7202,-2.8276,-2.9137,-2.9978,-3.1484,-3.4146,-3.6274,-3.7752,-3.8363,-3.8209,-3.7847,-3.732,-3.6692,-3.6222,-3.594,-3.503,-3.427,-3.3727,-3.2848,-3.1821,-3.0603,-3.0603,-3.0348,-2.9839,-2.9893,-2.9676,-2.9237,-2.9338,-2.9193,-2.8837,-2.8753,-2.8506,0.0,-2.7812,-2.7397,-2.6878,-2.6169,-2.3359,-1.9656,-1.9422,-1.7163,-1.3932,0.0,0.0,0.0,0.0,0.0,0.0,2.02,2.0392,2.0527,2.0494,2.0795,2.1135,2.1375,2.254,2.3388,2.3685,2.4423,0.0,0.0,0.0,0.0,0.0,0.0,0.0,2.556,2.6265,2.7246,2.8563,2.8438,2.8583,2.8952,2.7991,2.7183,2.6541,2.6049,2.5626,0.0,0.0,0.0,0.0,0.0,0.0,2.1874,0.0,0.0,0.0,0.0,0.0,0.0,0.0,0.0,0.0,0.0,0.0,0.0,0.0,-2.1545,-2.2613,-2.3701,-2.3852,-2.385,-2.4504,-2.4504,-2.4396,-2.4494,-2.4769,-2.5022,-2.5137,-2.5077,-2.5111,-2.5436,-2.5964,-2.6431,-2.6784,-2.7611,-2.8422,-2.8997,-2.9374,-3.0527,-3.3074,-3.5704,-3.7209,-3.6913,-3.7347,-3.7412,-3.6812,-3.66,-3.6191,-3.5547,-3.4645,-3.3698,-3.2701,-3.2061,-3.1323,-3.0458,-3.0436,-3.0352,-3.0177,-3.0241,-3.0028,-2.9623,-2.9748,-2.9606,-2.9299,-2.9359,0.0,0.0,-2.8662,-2.8379,-2.803,-2.7289,-2.421,-2.0235,-2.046,-1.6107,-1.0215,0.0,0.0,0.0,0.0,0.0,0.0,0.0,2.0045,2.008,2.0005,2.0308,2.0798,2.1405,2.2876,2.4099,2.4827,2.5542,0.0,0.0,0.0,0.0,0.0,0.0,2.4974,2.5591,2.7046,2.7968,2.8334,2.9228,2.9292,2.855,2.8766,2.7938,2.6293,2.6263,2.5725,0.0,0.0,0.0,0.0,2.343,2.1489,0.0,0.0,0.0,0.0,0.0,0.0,0.0,0.0,0.0,0.0,0.0,0.0,0.0,0.0,0.0,0.0,0.0,-2.2512,-2.2898,-2.3021,-2.3401,-2.3767,-2.3871,-2.4191,0.0,-2.4582,-2.4648,-2.4938,-2.5748,-2.5974,-2.6344,-2.7146,-2.8066,-2.8726,-2.8849,-2.973,-3.0682,-3.1584,-3.4051,-3.5301,-3.439,-3.6658,-3.7498,-3.5821,-3.6562,-3.638,-3.4679,-3.3782,-3.2948,-3.2126,-3.1846,-3.1332,-3.0519,-3.0511,-3.0511,-3.0511,-3.0511,-3.0348,-3.0037,-3.0098,-2.9931,0.0,0.0,0.0,0.0,-2.8964,-2.8868,-2.8756,-2.8117,-2.4878,-2.0867,-2.263,-1.5174,-0.4909,0.0,0.0,0.0,0.0,0.0,0.0,0.0,0.0,0.0,0.0,2.0061,2.0192,2.0345,2.1894,2.3147,0.0,0.0,0.0,0.0,0.0,0.0,0.0,2.5189,2.5882,2.6633,2.73,2.7958,2.8617,2.8472,2.8333,2.8129,2.7113,2.6446,2.6019,2.5175,2.4579,0.0,0.0,0.0,0.0,2.1347,1.9418,0.0,0.0,0.0,0.0,-0.0641,-0.4898,0.0,0.0,0.0,0.0,0.0,0.0,0.0,0.0,-1.9666,-2.0193,-2.0731,0.0,-2.2607,-2.2703,-2.2996,-2.3348,0.0,-2.3988,-2.4261,-2.4532,-2.4572,-2.4615,-2.4813,-2.5897,-2.6628,-2.616,-2.7422,-2.848,-2.8509,-3.051,-3.1881,-3.1655,-3.3872,-3.486,-3.3529,-3.5078,-3.5514,-3.3887,-3.4637,-3.4696,-3.3609,-3.2817,-3.2313,-3.2109,-3.1364,-3.0852,-3.065,-3.0659,-3.0658,-3.0658,-3.0658,-3.0548,-3.0385,-3.0404,-2.9918,-2.9065,0.0,0.0,-2.8063,-2.7854,-2.785,-2.8022,-2.8291,-2.4971,-2.0169,-2.151,-1.3775,-0.2903,0.0,0.0,0.0,0.0,0.0,0.0,0.0,0.0,0.0,0.0,1.9884,2.0056,2.0373,2.1414,2.2483,0.0,0.0,0.0,0.0,0.0,0.0,2.4925,2.5562,2.6223,2.6801,2.7344,2.7877,2.8324,2.8179,2.7922,2.7629,2.6969,2.6247,2.543,2.4241,2.35,0.0,0.0,0.0,0.0,1.961,0.0,0.0,0.0,0.0,0.0,-0.2821,-0.6503,0.0,-1.2231,-1.3893,-1.5016,0.0,0.0,0.0,0.0,-1.8991,-1.9419,-2.0039,-2.0943,-2.1718,-2.1807,-2.2224,-2.2712,-2.2961,-2.3388,-2.379,-2.3967,-2.4099,-2.4265,-2.4539,-2.5836,-2.6784,-2.6595,-2.7809,-2.8783,-2.8857,-3.0255,-3.1274,-3.1329,-3.2921,-3.37,-3.2904,-3.3754,-3.3989,-3.3112,-3.351,-3.3432,-3.2557,-3.2155,-3.1787,-3.1429,-3.095,-3.0701,-3.0693,-3.07,-3.0726,-3.0759,-3.074,-3.0475,-3.0004,-2.9991,-2.9439,-2.8502,0.0,0.0,-2.7875,-2.7708,-2.7729,-2.7913,-2.8187,-2.4874,-1.9832,-1.9008,-1.1519,-0.19,0.0,0.0,0.0,0.0,0.0,0.0,0.0,0.0,0.0,0.0,0.0,0.0,0.0,0.0,0.0,0.0,0.0,0.0,0.0,0.0,2.5226,2.4921,2.5654,2.6161,2.6365,2.7116,2.749,2.7484,2.7556,2.7316,2.6731,2.6776,2.5946,2.4379,2.3404,2.253,2.1776,0.0,0.0,1.9657,1.765,0.0,0.0,0.0,0.0,0.0,0.0,0.0,0.0,-1.1073,-1.2764,-1.41,-1.5174,0.0,0.0,0.0,0.0,0.0,-1.957,-2.022,-2.0689,-2.086,-2.143,-2.1994,-2.2108,-2.266,-2.3188,-2.3212,-2.3495,-2.3927,-2.4567,-2.5714,-2.6768,-2.7383,-2.8407,-2.9163,-2.9358,-2.9701,-3.0129,-3.0731,-3.1779,-3.2338,-3.2072,-3.2574,-3.2793,-3.2524,-3.2675,-3.2397,-3.1516,-3.1532,-3.1263,-3.0593,-3.0625,-3.0673,-3.0663,-3.0693,-3.074,-3.081,-3.0807,-3.0322,-2.9433,-2.943,-2.8855,-2.7835,0.0,0.0,-2.7712,-2.7608,-2.7615,-2.7647,-2.6978,-2.381,-1.9216,-1.6317,-0.934,-0.1348,0.0,0.0,0.0,0.0,0.0,0.0,0.0,0.0,0.0,0.0,0.0,0.0,0.0,0.0,0.0,0.0,0.0,0.0,0.0,2.4831,2.487,2.482,2.5595,2.5781,2.5262,2.6183,2.6316,2.551,2.5098,2.4782,2.4577,2.3628,2.2832,2.222,2.2589,2.1882,2.0349,1.963,0.0,1.6664,1.4204,0.0,0.0,0.0,0.0,0.0,0.0,0.0,0.0,-1.0277,-1.1859,-1.313,-1.395,0.0,0.0,0.0,0.0,0.0,-1.8664,-1.9358,-2.0116,-2.0791,-2.1166,-2.1432,-2.1728,-2.2169,-2.2608,-2.2822,-2.3206,-2.3687,-2.4486,-2.5338,-2.6175,-2.6895,-2.7958,-2.8827,-2.9272,-2.999,-3.0335,-2.9944,-3.1242,-3.16,-3.0185,-3.1535,-3.1884,-3.0405,-3.1178,-3.1354,-3.0477,-3.0554,-3.0559,-3.0434,-3.05,-3.0524,-3.0537,-3.0693,-3.08,-3.0797,-3.0859,-3.0426,-2.9568,-2.957,-2.865,-2.7073,0.0,-2.672,-2.5977,-2.5954,-2.5972,-2.5679,-2.2585,-1.9679,-1.7036,-1.5531,-0.8918,-0.0681,0.0,0.0,0.0,0.0,0.0,0.0,0.0,0.0,0.0,0.0,0.0,0.0,0.0,0.0,0.0,0.0,0.0,0.0,2.2835,2.3065,2.3164,2.319,2.3907,2.446,2.4701,2.4947,2.4664,2.3893,2.3687,2.3243,2.2571,2.1771,2.1323,2.1161,2.1065,2.012,1.8559,1.8142,1.6927,1.504,0.0,0.0,0.0,0.0,0.0,0.0,0.0,0.0,0.0,0.0,-1.114,-1.2355,-1.3406,0.0,0.0,0.0,0.0,0.0,-1.7881,-1.8526,-1.9262,-2.0285,-2.1202,-2.1834,-2.1993,-2.2215,-2.2475,-2.2697,-2.2716,-2.2955,-2.3805,-2.4822,-2.6074,-2.7759,-2.779,-2.7941,-2.8985,-2.8895,-2.8787,-2.892,-2.9845,-3.0178,-2.9395,-3.0207,-3.0453,-2.9645,-3.0175,-3.0345,-2.9946,-3.0095,-3.019,-3.019,-3.0203,-3.0283,-3.0402,-3.0451,-3.0547,-3.0691,-3.076,-3.0339,-2.9472,-2.9037,-2.8123,-2.6873,0.0,-2.6032,-2.56,-2.564,-2.565,-2.5247,-2.1151,-1.8415,-1.5957,-0.9283,-0.4125,-0.0431,0.0,0.0,0.0,0.0,0.0,0.0,0.0,0.0,0.0,0.0,0.0,0.0,0.0,0.0,0.0,0.0,0.0,0.0,2.1219,2.1555,2.1758,2.1798,2.2216,2.281,2.3465,2.3434,2.3016,2.2248,2.2305,2.1822,2.0804,2.0659,2.0451,2.0121,1.9639,1.8428,1.674,1.6557,1.526,1.3263,0.0,0.0,0.0,0.0,0.0,0.0,0.0,0.0,0.0,0.0,0.0,0.0,0.0,0.0,0.0,-1.5311,-1.5901,-1.6509,-1.7299,-1.7909,-1.8599,-1.9732,-2.0825,-2.1705,-2.1973,-2.2034,-2.213,-2.2423,-2.2389,-2.2525,-2.3207,-2.4423,-2.5987,-2.7929,-2.7478,-2.7307,-2.8576,-2.7905,-2.753,-2.8121,-2.8609,-2.8906,-2.8888,-2.9132,-2.9299,-2.9258,-2.9475,-2.957,-2.957,-2.9753,-2.9853,-2.9861,-2.9931,-3.0037,-3.0241,-3.0189,-3.0306,-3.0591,-3.0623,-3.0219,-2.9372,-2.8522,-2.7693,-2.6866,-2.6244,-2.5955,-2.5915,-2.5955,-2.5976,-2.5414,-1.968,-1.5541,-1.1697,-0.3076,-0.0178,-0.0423,0.0,0.0,0.0,0.0,0.0,0.0,0.0,0.0,0.0,0.0,0.0,0.0,0.0,0.0,0.0,0.0,0.0,0.0,2.068,2.126,2.1617,2.1805,2.1425,2.0969,2.0441,2.153,2.1545,2.0299,2.0299,1.9985,1.9354,2.0258,1.9905,1.8505,1.8876,1.7592,1.5118,1.4543,1.2801,1.0292,0.8898,0.0,0.0,0.0,0.0,0.0,0.0,0.0,0.0,0.0,0.0,0.0,0.0,0.0,-1.4212,-1.5073,-1.5546,-1.6088,-1.7063,-1.7847,-1.8542,-1.9293,-1.9536,-1.9893,-2.102,-2.1128,-2.1155,-2.1744,-2.2451,-2.2967,-2.3116,-2.4381,-2.5524,-2.5956,-2.6784,-2.7495,-2.7922,-2.7908,-2.7855,-2.7908,-2.8166,-2.8324,-2.8264,-2.8742,-2.8975,-2.886,-2.9082,-2.9191,-2.9148,-2.9334,-2.9434,-2.9434,-2.9663,-2.9874,-3.0019,-3.0075,-3.0228,-3.051,-3.051,-3.0114,-2.938,-2.843,-2.7607,-2.6898,-2.6846,-2.6805,-2.6815,-2.6819,-2.6813,-2.589,-1.653,-0.7885,-0.0681,0.0113,-0.0169,-0.0678,0.0,0.0,0.0,0.0,0.0,0.0,0.0,0.0,0.0,0.0,0.0,0.0,0.0,0.0,0.0,0.0,0.0,1.7276,1.8155,1.8758,1.8967,1.8686,1.9412,1.9002,1.7392,1.9139,1.9572,1.8465,1.8235,1.8217,1.8462,1.8468,1.8022,1.7255,1.6942,1.5416,1.2989,1.2591,1.0908,0.8469,0.7295,0.5429,0.0,0.0,0.0,0.0,0.0,0.0,0.0,0.0,-0.9273,-1.0594,-1.1408,-1.2745,-1.4071,-1.4387,-1.504,-1.5812,-1.6373,-1.7178,-1.7948,-1.8481,-1.8789,-1.9487,-2.1182,-2.1657,-2.1879,-2.2184,-2.2455,-2.2655,-2.276,-2.4252,-2.5497,-2.564,-2.5977,-2.652,-2.7335,-2.7259,-2.7175,-2.7426,-2.766,-2.7787,-2.7759,-2.8112,-2.8298,-2.8246,-2.8652,-2.8883,-2.8842,-2.8997,-2.9126,-2.9209,-2.9251,-2.9173,-2.8872,-2.8909,-2.8809,-2.8587,-2.9301,-2.9504,-2.9226,-2.7865,-2.7672,-2.834,-2.7322,-2.7203,-2.7667,-2.7164,-2.6967,-2.5806,-1.4189,-0.5391,0.0685,0.0282,-0.0056,-0.028,0.0,0.0,0.0,0.0,0.0,0.0,0.0,0.0,0.0,0.0,0.0,0.0,0.0,0.0,0.0,0.0,1.5499,1.5723,1.6465,1.6777,1.6872,1.6692,1.7472,1.7219,1.5657,1.6917,1.7316,1.6857,1.6557,1.6646,1.7061,1.6716,1.6261,1.5722,1.4851,1.3175,1.1032,1.0486,0.8858,0.6513,0.5538,0.3938,0.0,0.0,0.0,0.0,0.0,0.0,0.0,0.0,-0.9235,-1.0297,-1.1107,-1.2404,-1.3684,-1.3884,-1.449,-1.5198,-1.5778,-1.6284,-1.6933,-1.7792,-1.8183,-1.8793,-2.0706,-2.1607,-2.2061,-2.2134,-2.2192,-2.2236,-2.2439,-2.3777,-2.4862,-2.49,-2.5244,-2.5777,-2.6545,-2.6402,-2.6317,-2.6607,-2.6935,-2.7123,-2.7123,-2.7512,-2.7736,-2.7707,-2.8139,-2.8402,-2.8402,-2.8597,-2.8633,-2.8471,-2.8443,-2.8198,-2.7698,-2.7678,-2.74,-2.6889,-2.7727,-2.8318,-2.8695,-2.7612,-2.7744,-2.8803,-2.7723,-2.7595,-2.8129,-2.7573,-2.5398,-2.1435,-1.1732,-0.435,0.0854,0.045,0.0336,0.0449,0.0,0.0,0.0,0.0,0.0,0.0,0.0,0.0,1.5788,1.5788,1.541,0.0,0.0,0.0,0.0,0.0,1.4835,1.5028,1.5975,1.5679,1.5751,1.6325,1.5918,1.5561,1.5344,1.4911,1.488,1.5374,1.5374,1.5234,1.4993,1.52,1.4775,1.3802,1.2683,1.1114,0.9297,0.8279,0.6538,0.4271,0.3429,0.2278,0.0835,0.0,0.0,0.0,0.0,0.0,0.0,0.0,-0.9347,-1.0218,-1.1416,-1.2267,-1.2909,-1.361,-1.3894,-1.4204,-1.521,-1.5267,-1.5451,-1.7382,-1.7538,-1.7667,-1.9296,-2.0558,-2.1375,-2.1423,-2.1587,-2.1802,-2.2116,-2.2849,-2.3382,-2.3367,-2.4567,-2.5503,-2.5503,-2.5443,-2.5368,-2.5406,-2.5931,-2.6301,-2.6301,-2.695,-2.7348,-2.7286,-2.7577,-2.7742,-2.7683,-2.8073,-2.7906,-2.7107,-2.7148,-2.6999,-2.6591,-2.6532,-2.6246,-2.5783,-2.5932,-2.6602,-2.7697,-2.7754,-2.7824,-2.7902,-2.7951,-2.8034,-2.8097,-2.81,-2.1883,-1.2106,-0.9124,-0.4332,0.0881,0.0909,0.1066,0.1291,0.0,0.0,0.0,0.0,0.0,0.0,0.0,0.0,1.3396,1.3396,1.3453,0.0,0.0,0.0,0.0,0.0,0.0,0.0,1.3484,1.368,1.3561,1.3056,1.3381,1.3232,1.2457,1.2365,1.2899,1.4043,1.3695,1.3435,1.3278,1.2973,1.2159,1.0865,1.0124,0.855,0.6297,0.5486,0.4085,0.2334,0.1345,0.0168,-0.106,0.0,0.0,0.0,0.0,0.0,0.0,0.0,0.0,0.0,-1.0415,-1.1416,-1.2365,-1.2919,-1.3457,-1.3926,-1.4316,-1.4737,-1.5244,-1.6255,-1.7237,-1.8172,-1.9025,-2.0041,-2.1076,-2.1853,-2.1931,-2.1857,-2.183,-2.2641,-2.323,-2.2888,-2.359,-2.4323,-2.4808,-2.4863,-2.4926,-2.5237,-2.5319,-2.5379,-2.5379,-2.6021,-2.6404,-2.637,-2.6473,-2.6584,-2.6702,-2.6293,-2.6073,-2.6124,-2.6045,-2.5736,-2.5126,-2.5235,-2.4993,-2.4411,-2.5334,-2.6061,-2.6561,-2.6066,-2.6588,-2.7865,-2.7218,-2.7368,-2.7985,-2.7471,-2.1394,-1.251,-1.3697,-0.8132,0.0587,0.0795,0.0683,0.0579,0.0,0.0,0.0,0.0,0.0,0.0,0.0,0.0,1.1895,1.1895,1.1895,1.1944,0.0,0.0,0.0,0.0,0.0,0.0,1.1864,1.1971,1.1736,1.1149,1.1353,1.1121,1.0426,1.0264,1.057,1.1249,1.1626,1.1619,1.1229,1.0551,0.9518,0.8201,0.7303,0.5835,0.4047,0.3028,0.1805,0.0557,-0.0334,-0.1228,-0.2069,0.0,0.0,0.0,0.0,0.0,0.0,0.0,0.0,0.0,-0.9971,-1.0732,-1.1493,-1.2022,-1.2565,-1.3056,-1.3591,-1.4051,-1.4668,-1.5782,-1.6782,-1.7767,-1.8698,-1.9809,-2.0836,-2.1805,-2.1655,-2.1404,-2.1573,-2.2224,-2.2714,-2.2629,-2.3024,-2.3537,-2.4131,-2.3891,-2.3876,-2.4333,-2.4399,-2.429,-2.4011,-2.4718,-2.5029,-2.4736,-2.4996,-2.5195,-2.5268,-2.5026,-2.4867,-2.4901,-2.4749,-2.4418,-2.3901,-2.4088,-2.4006,-2.3699,-2.4615,-2.5184,-2.5396,-2.5451,-2.6129,-2.724,-2.6738,-2.6898,-2.7299,-2.475,-2.0276,-1.4629,-1.1137,-0.5578,0.0426,0.0505,0.0631,0.092,0.0,0.0,1.1534,1.0939,0.0,0.0,0.0,0.0,1.0864,1.0864,1.057,1.0367,0.0,0.0,0.0,0.0,0.0,0.0,1.0645,1.0348,1.01,1.0049,0.957,0.9109,0.8812,0.8503,0.813,0.7635,0.9272,0.9667,0.8883,0.7998,0.7043,0.5889,0.4449,0.3302,0.2317,0.0845,-0.0279,-0.1118,-0.1794,-0.2242,-0.2629,-0.3962,0.0,0.0,0.0,0.0,0.0,0.0,0.0,0.0,-0.9962,-1.0204,-1.049,-1.1121,-1.142,-1.1769,-1.2869,-1.3312,-1.391,-1.5757,-1.6374,-1.6931,-1.8419,-1.9634,-2.0602,-2.1238,-2.0925,-2.0709,-2.1215,-2.1575,-2.1927,-2.2406,-2.2649,-2.2875,-2.3363,-2.2727,-2.2395,-2.2934,-2.3127,-2.2988,-2.2438,-2.3172,-2.3384,-2.2703,-2.33,-2.3622,-2.3572,-2.3911,-2.393,-2.3528,-2.3316,-2.3079,-2.285,-2.3028,-2.3188,-2.3392,-2.3842,-2.4116,-2.4266,-2.5468,-2.6089,-2.6162,-2.6367,-2.6505,-2.62,-2.1452,-1.9258,-1.7753,-0.6075,-0.0686,0.0451,0.011,0.0691,0.1686,0.0,0.0,0.9769,0.9607,0.0,0.0,0.0,0.0,0.0,0.8292,0.0,0.0,0.0,0.0,0.0,0.0,0.0,0.0,0.0,0.8246,0.8041,0.7433,0.6983,0.6499,0.5987,0.6248,0.6375,0.6232,0.7198,0.7274,0.6506,0.5848,0.5052,0.4103,0.2863,0.1694,0.0701,-0.0736,-0.1785,-0.2567,-0.3721,-0.4329,-0.4684,-0.4975,-0.5617,0.0,0.0,0.0,0.0,0.0,0.0,0.0,-0.9943,-1.01,-1.0324,-1.1051,-1.1153,-1.1165,-1.191,-1.2705,-1.3723,-1.5194,-1.6909,-1.8175,-1.8162,-1.8726,-1.9447,-2.0062,-2.0041,-2.0093,-2.0534,-2.067,-2.0756,-2.0975,-2.1293,-2.1643,-2.1946,-2.1693,-2.173,-2.2257,-2.1582,-2.1155,-2.138,-2.1768,-2.1931,-2.1732,-2.1848,-2.2136,-2.2573,-2.1745,-2.1552,-2.2191,-2.1704,-2.153,-2.1718,-2.2192,-2.2412,0.0,-2.3293,-2.366,-2.3631,-2.4413,-2.4882,-2.5073,-2.5304,-2.5485,-2.5514,-2.4506,-2.206,-1.905,-1.9732,-1.1612,0.0404,0.0107,0.0172,0.0638,0.0,0.0,0.0,0.0,0.0,0.0,0.0,0.0,0.0,0.0,0.0,0.0,0.0,0.0,0.0,0.0,0.0,0.0,0.0,0.625,0.6044,0.5366,0.514,0.4791,0.431,0.4516,0.4537,0.4238,0.4336,0.4555,0.4859,0.3685,0.2677,0.1867,0.0585,-0.0468,-0.1343,-0.2431,-0.3342,-0.4119,-0.4759,-0.525,-0.5563,-0.5985,-0.6509,-0.7041,-0.75,0.0,0.0,0.0,0.0,0.0,0.0,0.0,-0.9756,-1.0253,-1.0492,-1.0666,-1.1138,-1.2031,-1.3217,-1.4634,-1.6377,-1.7645,-1.7332,-1.7796,-1.8227,-1.8325,-1.8833,-1.9448,-1.9825,-1.9927,-2.0016,-2.0307,-2.0471,-2.062,-2.0975,-2.0638,-2.0465,-2.0596,-2.0273,-1.989,-1.9472,-2.0006,-2.02,-1.9807,-2.0131,-2.0472,-2.0709,-2.0416,-2.0516,-2.1102,-2.0749,-2.0765,-2.1181,-2.1516,-2.1707,-2.1828,-2.2608,-2.3112,-2.3414,-2.41,-2.4505,-2.4697,-2.4987,-2.5173,-2.5302,-2.5437,-2.289,-1.9076,-2.0739,-1.4171,-0.3459,-0.0937,0.0524,0.1437,0.0,0.0,0.0,0.0,0.0,0.0,0.0,0.0,0.0,0.0,0.0,0.0,0.0,0.0,0.0,0.0,0.0,0.0,0.0,0.0,0.0,0.3379,0.3324,0.3149,0.2725,0.2743,0.2523,0.2089,0.145,0.1791,0.3049,0.1541,0.053,-0.0179,-0.1424,-0.2432,-0.32,-0.3823,-0.4653,-0.5542,-0.5652,-0.5854,-0.6268,-0.6944,-0.7257,-0.7467,-0.8343,-0.869,-0.8723,-0.9276,0.0,0.0,0.0,0.0,-0.9252,-0.941,-0.9721,-1.0161,-1.0536,-1.1597,-1.2939,-1.4347,-1.5576,-1.6387,-1.6337,-1.6804,-1.7096,-1.6602,-1.7545,-1.8548,-1.9004,-1.9044,-1.9202,-1.9773,-1.9747,-1.9748,-2.0052,-1.9533,-1.9076,-1.8908,-1.8986,-1.8635,-1.7554,-1.8176,-1.8399,-1.7774,-1.8472,-1.8954,-1.8962,-1.9398,-1.9829,-2.0249,-2.0008,-2.0112,-2.0569,-2.0815,-2.1021,-2.1193,-2.1876,-2.2565,-2.3282,-2.3911,-2.4368,-2.4632,-2.4858,-2.5072,-2.5252,-2.5401,-2.3272,-1.963,-1.6435,-1.2633,-0.8257,-0.2127,0.1292,0.2817,0.0,0.0,0.0,0.0,0.0,0.0,0.0,0.0,0.0,0.0,0.2225,0.189,0.0,0.1552,0.1274,0.1388,0.1388,0.1388,0.1444,0.0,0.0,0.0722,0.0722,0.0446,-0.0112,0.0,0.0059,0.0,-0.0424,-0.0551,-0.0368,-0.0476,-0.0724,-0.1077,-0.1915,-0.2845,-0.3838,-0.4281,-0.5323,-0.6629,-0.7038,-0.7373,-0.7651,-0.7755,-0.7972,-0.824,-0.8238,-0.854,-0.8978,-0.9161,-0.9389,0.0,0.0,0.0,-0.9236,-0.9546,-0.9425,-0.9342,-1.0196,-1.1951,-1.3765,-1.4822,-1.5457,-1.576,-1.5699,-1.594,-1.605,-1.5826,-1.6415,-1.7135,-1.7589,-1.7655,-1.782,-1.8278,-1.8679,-1.8778,-1.8389,-1.8316,-1.8292,-1.8309,-1.7291,-1.667,-1.6892,-1.6901,-1.6876,-1.6727,-1.7449,-1.8212,-1.8878,-1.8131,-1.8313,-1.9651,-1.8954,-1.8793,-1.9332,-1.9984,-2.0196,-1.9958,-2.1194,-2.2068,-2.2651,-2.3182,-2.3744,-2.4284,-2.4437,-2.4666,-2.4967,-2.5163,-2.4989,-2.3579,-1.3138,-1.018,-1.0746,-0.2299,0.1924,0.3495,0.0,0.0,0.0,0.0,0.0,0.0,0.0,0.0,0.0,0.0,0.0,0.039,0.0445,-0.0056,-0.0556,-0.0833,-0.0833,-0.0952,-0.1196,-0.093,-0.0824,-0.1,-0.0765,-0.0702,-0.0862,-0.0949,-0.0965,-0.0904,-0.1588,-0.2125,-0.2508,-0.3057,-0.3059,-0.269,-0.36,-0.4606,-0.5716,-0.6139,-0.6841,-0.7655,-0.7998,-0.7964,-0.7747,-0.8124,-0.8147,-0.808,-0.8576,-0.8905,-0.918,-0.9562,-0.9713,-0.9659,-0.9526,0.0,0.0,0.0,-0.9536,-0.9677,-1.0133,-1.1214,-1.2381,-1.2779,-1.3655,-1.4432,-1.4432,-1.4786,-1.5079,-1.5029,-1.5245,-1.5748,-1.6652,-1.6754,-1.6877,-1.7056,-1.7213,-1.7203,-1.6953,-1.7109,-1.7064,-1.6672,-1.6344,-1.606,-1.5845,-1.5776,-1.5744,-1.57,-1.6459,-1.7079,-1.741,-1.7368,-1.7626,-1.8274,-1.812,-1.8187,-1.8461,-1.8983,-1.9376,-1.9651,-2.0668,-2.1456,-2.2068,-2.2434,-2.3211,-2.4211,-2.4353,-2.4613,-2.4981,-2.5135,-2.3806,-2.0949,-1.3334,-1.0165,-0.8963,-0.1945,0.1406,0.2546,0.0,0.0,0.0,0.0,0.0,0.0,0.0,0.0,0.0,0.0,0.0,-0.1277,-0.1333,0.0,0.0,0.0,-0.3001,-0.3218,-0.3589,-0.314,-0.294,-0.294,-0.2512,-0.2244,-0.2191,-0.2364,-0.2455,-0.2392,-0.3151,-0.3801,-0.4347,-0.5199,-0.536,-0.4967,-0.5488,-0.6383,-0.7448,-0.7714,-0.8181,-0.8661,-0.8764,-0.8385,-0.7813,-0.8334,-0.8184,-0.777,-0.8682,-0.9,-0.9123,-0.9708,-0.9746,-0.9559,-0.9486,-0.9512,0.0,0.0,0.0,-1.0114,-1.0114,-1.0653,-1.1216,-1.1358,-1.234,-1.3285,-1.3386,-1.3709,-1.401,-1.395,-1.395,-1.4231,-1.5061,-1.5661,-1.6073,-1.6244,-1.613,-1.5976,-1.5875,-1.6032,-1.5925,-1.5185,-1.533,-1.5354,-1.4722,-1.473,-1.4823,-1.488,-1.5499,-1.5915,-1.6034,-1.6489,-1.6799,-1.6912,-1.7229,-1.7449,-1.7463,-1.7961,-1.8535,-1.92,-1.9924,-2.0619,-2.1287,-2.1661,-2.2496,-2.3717,-2.4025,-2.4385,-2.479,-2.4989,-2.3212,-1.9812,-1.4368,-1.0487,-0.7181,-0.1397,0.1194,0.2006,0.0,0.0,0.0,0.0,0.0,0.0,0.0,0.0,0.0,0.0,0.0,-0.3555,-0.3938,-0.4741,-0.5243,-0.5063,-0.5258,-0.5408,-0.5479,-0.5427,-0.5434,-0.5434,-0.537,0.0,-0.5359,-0.5366,-0.537,-0.537,-0.584,-0.6124,-0.6144,-0.663,-0.7228,-0.7931,-0.7353,-0.7623,-0.8388,-0.8335,-0.8795,-0.9643,-0.9492,-0.9014,-0.8375,-0.8407,-0.8063,-0.7661,-0.8244,-0.8549,-0.8673,-0.9084,-0.9223,-0.9157,-0.8938,-0.9045,-0.9203,0.0,0.0,0.0,-1.0114,-1.0807,-1.1597,-1.1954,-1.2304,-1.2661,-1.3012,-1.2821,-1.2573,-1.2451,-1.2389,-1.2389,-1.2251,-1.3888,-1.5449,-1.6016,-1.5958,-1.5636,-1.5184,-1.5355,-1.5155,-1.4282,-1.397,-1.3787,-1.377,-1.381,-1.3967,-1.4222,-1.4571,-1.4903,-1.5229,-1.5242,-1.5377,-1.5748,-1.6145,-1.6244,-1.599,-1.6912,-1.7572,-1.8011,-1.876,-1.9432,-2.0107,-2.0751,-2.1503,-2.2349,-2.3182,-2.3785,-2.4192,-2.4567,-2.4771,-2.4012,-1.5447,-1.0392,-0.7132,-0.0847,0.1954,0.2884,0.0,0.0,0.0,0.0,0.0,0.0,0.0,0.0,0.0,0.0,0.0,0.0,0.0,-0.5783,-0.6059,-0.634,-0.6768,-0.7092,-0.7092,-0.6589,-0.6277,-0.6277,-0.5954,-0.5769,-0.5658,-0.5832,-0.5959,-0.603,-0.64,-0.6814,-0.7393,-0.7603,-0.8226,-0.8994,-0.835,-0.849,-0.9338,-0.9491,-0.9724,-0.9932,-0.9887,-0.9182,-0.8176,-0.8445,-0.788,-0.7116,-0.7682,-0.8345,-0.8969,-0.9116,-0.9324,-0.9506,-0.9399,-0.9305,-0.9256,-0.9693,-1.0087,-1.0361,-1.0167,-1.0513,-1.0912,-1.0816,-1.1286,-1.1762,-1.1881,-1.2049,-1.2197,-1.2135,-1.2135,-1.2074,-1.2012,-1.2618,-1.3347,-1.4007,-1.3957,-1.4001,-1.4242,-1.4503,-1.451,-1.424,-1.4164,-1.4107,-1.4064,-1.3445,-1.3072,-1.3173,-1.3125,-1.329,-1.3784,-1.3982,-1.4307,-1.4767,-1.5163,-1.5463,-1.576,-1.6225,-1.6705,-1.7177,-1.7932,-1.8565,-1.9046,-1.9773,-2.0407,-2.0971,-2.1967,-2.3029,-2.4063,-2.4388,-2.4835,-2.4458,-1.5663,-1.047,-0.7155,-0.0572,0.2549,0.3653,0.0,0.0,0.0,0.0,0.0,-0.4241,-0.4141,-0.4907,-0.5437,-0.5424,0.0,0.0,0.0,0.0,-0.7229,-0.7655,-0.8019,-0.8269,-0.8269,-0.7767,-0.7456,-0.7456,-0.712,-0.6923,-0.679,-0.6988,-0.7122,-0.7234,-0.7436,-0.7897,-0.842,-0.8624,-0.9075,-0.9652,-0.9262,-0.9466,-1.0117,-1.0364,-1.0448,-1.0452,-1.0383,-0.964,-0.8661,-0.8765,-0.8248,-0.7389,-0.7683,-0.8293,-0.8867,-0.878,-0.8884,-0.9026,-0.9026,-0.9086,-0.9317,-0.994,-1.0327,-1.0521,-1.0259,-1.0345,-1.0451,-1.0128,-1.047,-1.0863,-1.0863,-1.1101,-1.1337,-1.1274,-1.1281,-1.1212,-1.1149,-1.1149,-1.1461,-1.2451,-1.2451,-1.2546,-1.2966,-1.3212,-1.3297,-1.3212,-1.3168,-1.3173,-1.309,-1.2434,-1.1963,-1.1886,-1.1884,0.0,-1.2169,-1.2686,-1.3263,-1.3909,-1.4168,-1.4516,-1.5005,-1.525,-1.5548,-1.5891,-1.668,-1.7275,-1.7691,-1.845,-1.9126,-1.9778,-2.0526,-2.1792,-2.3446,-2.3952,-2.4525,-2.4188,-1.5332,-1.0735,-0.8135,-0.0105,0.348,0.447,0.0,0.0,-0.6167,-0.5868,-0.6262,-0.6515,-0.6267,-0.6456,-0.6818,-0.7364,0.0,0.0,0.0,0.0,0.0,-0.8994,-0.9017,-0.9017,-0.9017,-0.9017,-0.9017,-0.9017,-0.9017,-0.9017,-0.9017,-0.9017,-0.9017,-0.9017,-0.921,-0.9338,-0.9338,-0.967,-0.9862,-1.0047,-1.0244,-1.0434,-1.0624,-1.0744,-1.0933,-1.1059,-1.087,-1.0478,-0.9926,-0.9476,-0.9033,-0.8575,-0.8278,-0.8285,-0.8388,-0.8095,-0.7923,-0.7785,-0.7666,-0.8308,-0.9248,-0.9932,-1.0327,-1.0561,0.0,0.0,0.0,-1.0047,-0.9983,-0.9983,-0.9983,-0.9983,-0.9919,-0.9804,-0.974,-0.974,-0.9548,-0.9484,-0.9983,-1.1461,-1.1578,-1.1454,-1.1516,-1.1516,-1.1345,-1.1046,-1.1017,-1.0938,-1.0709,-1.0664,-1.0628,-1.0493,-1.0854,-1.0983,-1.0584,-1.1466,-1.2307,-1.3072,-1.3102,-1.3266,-1.3515,-1.3888,-1.4054,-1.4054,-1.4926,-1.5584,-1.5929,-1.6738,-1.7718,-1.8688,-1.8796,-2.0073,-2.2133,-2.3218,-2.3953,-2.3505,-1.4526,-1.1139,-1.0027,0.0502,0.4752,0.5464,0.0,-0.6653,-0.6842,-0.6778,-0.6997,-0.722,-0.716,-0.7559,-0.8023,0.0,0.0,0.0,-0.9259,-0.9352,-0.9507,-0.9703,-0.9606,-0.9606,-0.9606,-0.9344,-0.921,-0.921,-0.9081,-0.9017,-0.9017,-0.9017,-0.9081,-0.921,-0.9396,-0.953,-0.967,-0.9862,-1.0047,-1.0238,-1.0434,-1.0681,-1.0933,-1.087,-1.0989,-1.124,-1.1059,-1.0345,-0.9238,-0.8977,-0.8104,-0.6994,-0.6936,-0.7279,-0.7772,-0.7648,-0.7792,-0.8005,-0.8255,-0.9034,-0.9871,-1.0053,-1.0203,-1.0371,-1.0301,0.0,0.0,0.0,0.0,0.0,-0.9192,-0.9,-0.8877,-0.8882,-0.8882,-0.9017,-0.9414,-0.9484,-0.9472,-0.9442,-1.0212,-1.0975,-1.1454,-1.1392,-1.1301,-1.1214,-1.1084,-1.0979,-1.0948,-1.0488,-1.012,0.0,-0.9591,-0.9444,-0.9555,-1.0407,-1.0914,-1.1057,-1.1208,-1.1516,-1.1864,-1.2337,-1.257,-1.2599,-1.3846,-1.4253,-1.3921,-1.5136,-1.588,-1.6283,-1.69,-1.7719,-1.888,-2.1626,-2.3378,-2.348,-1.5081,-1.167,-1.0263,0.0051,0.4691,0.6063,-0.7289,-0.7678,-0.7943,-0.7841,-0.8204,-0.8537,-0.8434,-0.8812,-0.9126,0.0,0.0,0.0,-0.9799,-0.9812,-0.9875,-0.997,-0.9926,-0.9862,-0.9862,-0.9728,-0.9594,-0.9594,-0.9466,-0.9402,-0.9402,-0.9402,-0.9472,-0.9594,-0.9658,-0.9786,-0.9862,-1.0053,-1.0238,-1.0434,-1.0624,-1.087,-1.1185,-1.1059,-1.1185,-1.1428,-1.1247,-1.0667,-0.9888,-0.9378,-0.8608,-0.7712,-0.7064,-0.7134,-0.7456,-0.7134,-0.7182,-0.7395,-0.7887,-0.8466,-0.8986,-0.964,-0.979,-0.9779,-1.0047,-0.9786,-0.946,-0.9396,0.0,0.0,-0.8226,-0.8096,-0.8037,-0.8037,-0.8037,-0.8166,-0.856,-0.863,-0.8495,-0.8102,-0.8672,-0.9308,-0.9736,-0.9637,-0.9543,-0.9597,-0.9538,-0.9383,-0.9119,-0.9001,-0.869,-0.8134,-0.8161,-0.8373,-0.8844,-0.9499,-0.9769,-0.9481,-0.9769,-0.9967,-1.0163,-1.046,-1.0604,-1.0638,-1.1657,-1.199,-1.1639,-1.2531,-1.3186,-1.3524,-1.425,-1.4798,-1.5447,-1.8528,-2.0976,-2.2027,-1.4259,-1.0624,-0.8535,0.1283,0.6224,0.8164,0.0,-0.892,-0.9221,-0.9034,-0.9586,-1.0027,-0.9852,-1.0019,-1.011,0.0,-1.011,-1.0123,-1.0155,-1.013,-1.011,-1.011,-1.0168,-1.0168,-1.011,-1.011,-1.011,-1.0047,-0.9983,-0.9983,-0.9983,-0.9983,-0.9983,-0.9983,-1.0047,-1.0047,-1.0047,-1.0238,-1.0428,-1.0681,-1.0807,-1.0989,-1.1303,-1.1303,-1.1428,-1.156,-1.1373,-1.1178,-1.0982,-1.0028,-0.9582,-0.9326,-0.7907,-0.7391,-0.7265,-0.6613,-0.6486,-0.659,-0.7146,-0.7299,-0.756,-0.8836,-0.9088,-0.893,-0.9466,-0.9075,-0.8544,-0.842,-0.7887,0.0,-0.7316,-0.7302,-0.7293,-0.7251,-0.7256,-0.7256,-0.7321,-0.7321,-0.7321,-0.7256,-0.7051,-0.7046,-0.7316,-0.7154,-0.7039,-0.7158,-0.7236,-0.7077,-0.65,-0.6975,-0.6883,-0.5976,-0.6707,-0.7396,-0.8014,-0.845,-0.8511,-0.8159,-0.839,-0.8482,-0.8384,-0.843,-0.843,-0.8384,-0.8982,-0.9233,-0.9181,-0.9467,-0.993,-1.0523,-1.0974,-1.1259,-1.1698,-1.4122,-1.6718,-1.8461,-1.1776,-0.7665,-0.4428,0.4351,0.9106,1.1328,-0.8987,-0.951,-0.9947,-1.0073,-1.0404,-1.0661,-1.0795,-1.0836,-1.087,-1.087,-1.087,-1.096,-1.12,-1.1015,-1.087,-1.087,-1.1344,-1.1344,-1.0681,-1.0975,-1.0905,-1.0238,-1.011,-0.9983,-0.9983,-0.9983,-0.9983,-0.9983,-1.018,-1.0301,-1.0498,-1.0618,-1.0807,-1.1003,-1.1122,-1.124,-1.1303,-1.1498,-1.156,-1.156,-1.1122,-1.0478,-0.9773,-0.8877,-0.8107,-0.7396,-0.6811,-0.6613,-0.6613,-0.642,-0.6806,-0.7307,-0.7236,-0.7595,-0.8066,-0.8239,-0.8153,-0.7967,-0.8096,-0.7902,-0.7647,-0.7647,-0.7452,0.0,-0.6694,-0.6488,-0.6425,-0.6375,-0.6338,-0.647,-0.6924,-0.699,-0.6793,-0.6264,-0.5665,-0.5723,-0.7046,-0.695,-0.6742,-0.678,-0.666,-0.6506,-0.6266,-0.6454,-0.6341,-0.5802,-0.5745,-0.5733,-0.576,-0.6059,-0.6109,-0.5905,-0.6166,-0.6328,-0.6274,-0.6791,-0.6791,-0.6274,-0.7342,-0.7547,-0.6993,-0.6923,-0.7021,-0.7281,-0.7189,-0.6837,-0.6568,-0.8497,-0.9217,-0.8851,-0.5335,-0.0499,0.5186,1.099,1.3729,1.4734,-1.0107,-1.0552,-1.0763,-1.0537,-1.0733,-1.0996,-1.1059,-1.1122,-1.1122,-1.1122,-1.1122,-1.1178,-1.1479,-1.1241,-1.1185,-1.131,-1.1483,-1.1421,-1.1178,-1.1233,-1.1108,-1.0744,-1.0618,-1.0555,-1.0555,-1.0555,-1.0555,-1.0555,-1.0618,-1.0744,-1.0877,-1.0933,-1.087,-1.0807,-1.1178,-1.1178,-1.1052,-1.1435,-1.1622,-1.156,-1.131,-1.0737,-0.9907,-0.8935,-0.8102,-0.7335,-0.6679,-0.642,-0.642,-0.642,-0.6679,-0.692,-0.6939,-0.697,-0.7163,-0.7511,-0.7362,-0.712,-0.7447,-0.7251,-0.6924,-0.6924,-0.6595,0.0,0.0,-0.5821,-0.5788,-0.5599,-0.5617,-0.5683,-0.5815,-0.5881,-0.5745,-0.5418,-0.468,-0.4408,-0.5269,-0.5137,-0.5189,-0.5599,-0.5599,-0.5501,-0.5185,-0.5186,-0.4911,-0.4317,-0.4483,-0.4622,-0.4673,-0.4964,-0.4912,-0.4491,-0.4433,-0.4265,-0.3984,-0.458,-0.4525,-0.3984,-0.4837,-0.4884,-0.4181,-0.3715,-0.3531,-0.357,-0.3316,-0.2542,-0.1574,-0.3108,-0.12,0.2434,-0.0034,0.2681,0.851,1.2807,1.5644,1.7488,-1.1233,-1.1386,-1.1323,-1.0802,-1.1015,-1.1247,-1.131,-1.131,-1.1416,-1.1538,-1.1558,-1.1603,-1.1977,-1.174,-1.168,-1.2004,-1.1811,-1.174,-1.1933,-1.1684,-1.1459,-1.127,-1.127,-1.1249,-1.1129,-1.1178,-1.1122,-1.1122,-1.1122,-1.1122,-1.1122,-1.1122,-1.1024,-1.0819,-1.108,-1.115,-1.108,-1.1339,-1.1435,-1.1435,-1.1435,-1.1122,-1.0421,-0.9378,-0.8613,-0.7982,-0.6876,-0.6486,-0.642,-0.642,-0.6482,-0.6584,-0.6553,-0.6355,-0.6187,-0.6744,-0.6613,-0.6334,-0.6863,-0.6601,-0.6195,-0.6163,-0.5745,-0.5284,0.0,0.0,0.0,-0.5077,-0.4888,-0.4758,-0.4697,-0.4561,-0.4553,-0.4662,-0.3877,-0.328,-0.3396,-0.3079,-0.3201,-0.401,-0.424,-0.4148,-0.3722,-0.3578,-0.3218,-0.2664,-0.313,-0.3476,-0.3604,-0.3892,-0.3775,-0.3116,-0.2839,-0.245,-0.1946,-0.2449,-0.2393,-0.1779,-0.2282,-0.2112,-0.1386,-0.0497,-0.0055,0.011,0.0432,0.1552,0.3055,0.1954,0.5622,1.1378,0.5231,0.6262,1.1594,1.4841,1.7711,2.0087,-1.1752,-1.1321,-1.119,-1.119,-1.1531,-1.1802,-1.1934,-1.2182,-1.2578,-1.3254,-1.3066,-1.3121,-1.3797,-1.3621,-1.3415,-1.3481,-1.3646,-1.3589,-1.3251,-1.3107,-1.2733,-1.2027,-1.1916,-1.1619,-1.1136,-1.1325,-1.1332,-1.1122,-1.1122,-1.1185,-1.1303,-1.1303,-1.1453,-1.1768,-1.1178,-1.1206,-1.1833,-1.1171,-1.087,-1.087,-1.087,-1.0863,-1.0611,-0.925,-0.8672,-0.8479,-0.7265,-0.6683,-0.642,-0.642,-0.6806,-0.7195,-0.6256,-0.6326,-0.6662,-0.5862,-0.5543,-0.5557,-0.5624,-0.5557,-0.5456,-0.5317,-0.5123,-0.5003,-0.5128,0.0,-0.4725,-0.4844,0.0,-0.3823,-0.4298,0.0,0.0,-0.4089,-0.3101,-0.2462,-0.2984,-0.2043,-0.1606,-0.228,-0.24,-0.2369,-0.2253,-0.2135,-0.1997,-0.1849,-0.1832,-0.1713,-0.1459,-0.148,-0.1401,-0.1228,-0.1173,-0.1117,-0.1061,-0.1117,-0.0837,-0.0223,-0.0335,0.0056,0.0776,0.2044,0.2703,0.2916,0.367,0.5169,0.6923,0.6378,0.8741,1.261,1.1597,1.4901,2.0442,2.2345,2.2929,2.2886,-1.3212,-1.2781,-1.2413,-1.205,-1.2112,-1.2236,-1.2305,-1.2656,-1.302,-1.3513,-1.3523,-1.3627,-1.4146,-1.3882,-1.38,-1.3999,-1.3925,-1.3901,-1.3858,-1.3655,-1.337,-1.3034,-1.2773,-1.2513,-1.2247,-1.1927,-1.1804,-1.192,-1.1732,-1.1646,-1.171,-1.1898,-1.1825,-1.1579,-1.1251,-1.1129,-1.11,-1.1115,-1.1067,-1.1067,-1.1067,-1.1067,-1.0918,-0.9309,-0.8285,-0.7587,-0.6876,-0.6552,-0.642,-0.642,-0.6544,-0.6671,-0.6086,-0.6017,-0.6075,-0.5557,-0.5428,-0.5428,-0.5428,-0.5428,-0.5325,-0.5169,-0.5087,-0.4971,-0.4885,-0.4771,-0.4516,-0.4058,0.0,0.0,0.0,0.0,0.0,0.0,-0.2131,-0.1605,-0.1851,-0.1068,-0.0875,-0.1946,0.0,0.0,-0.1386,-0.1241,-0.0841,0.0129,-0.0185,-0.0299,0.0059,-0.0284,-0.0447,-0.0392,-0.0056,0.0335,0.067,0.0669,0.1169,0.2057,0.1722,0.2107,0.3152,0.4508,0.5209,0.5425,0.6871,0.8293,0.9643,1.0224,1.181,1.3882,1.5109,1.7602,2.0644,2.1474,2.2508,2.3647,-1.4332,-1.3863,-1.3268,-1.2789,-1.2666,-1.2699,-1.2989,-1.3279,-1.3615,-1.4131,-1.4272,-1.4412,-1.4714,-1.4607,-1.4577,-1.4858,-1.4577,-1.4509,-1.479,-1.4351,-1.4042,-1.4012,-1.3687,-1.3437,-1.3251,-1.2706,-1.2498,-1.2654,-1.2284,-1.2167,-1.2175,-1.2409,-1.2244,-1.1773,-1.1556,-1.1223,-1.094,-1.1142,-1.1116,-1.0969,-1.0883,-1.0679,-1.0386,-0.9197,-0.8037,-0.7007,-0.6679,-0.6482,-0.642,-0.642,-0.6478,0.0,-0.602,-0.5951,-0.5877,-0.5491,-0.5428,-0.5428,-0.5428,-0.5428,-0.5325,-0.5169,-0.5068,-0.4915,-0.4559,-0.4353,-0.405,-0.3205,-0.2881,0.0,0.0,0.0,-0.1874,-0.2058,0.0,-0.1073,-0.1065,-0.0469,-0.0404,-0.1411,-0.1477,0.0,0.0,-0.0471,0.0133,0.1566,0.107,0.0975,0.1429,0.1028,0.0726,0.0727,0.1408,0.1914,0.2289,0.2527,0.3081,0.4051,0.3602,0.4039,0.5198,0.6474,0.7175,0.7446,0.9193,1.0543,1.1481,1.2725,1.3799,1.4824,1.6511,1.8054,1.9403,2.0127,2.1744,2.3637,-1.4706,-1.3932,-1.3329,-1.3268,-1.3094,-1.3289,-1.4221,-1.4353,-1.4696,-1.5641,-1.5739,-1.589,-1.621,-1.6366,-1.6512,-1.6512,-1.6358,-1.6285,-1.6293,-1.5585,-1.5006,-1.4651,-1.456,-1.4291,-1.3683,-1.3568,-1.3363,-1.3109,-1.2706,-1.2504,-1.2504,-1.2519,-1.2687,-1.2895,-1.2102,-1.1854,-1.2029,-1.1259,-1.0591,-1.002,-0.9749,-0.9239,-0.8587,-0.8683,-0.8161,-0.7456,-0.7012,0.0,0.0,-0.642,-0.6872,0.0,0.0,0.0,0.0,0.0,0.0,0.0,0.0,0.0,0.0,-0.5169,0.0,0.0,0.0,0.0,-0.3168,0.0,-0.1743,-0.1342,-0.2011,-0.1543,-0.1332,-0.1939,-0.1517,0.0,0.0,-0.0397,0.0,-0.0067,0.0135,0.0202,0.0,0.0404,0.0875,0.1809,0.1654,0.1969,0.2889,0.2721,0.2623,0.2625,0.3439,0.3783,0.3558,0.4342,0.4907,0.5257,0.5202,0.5701,0.6588,0.7747,0.8442,0.8823,1.0305,1.1516,1.2404,1.3328,1.425,1.5142,1.5656,1.6889,1.8602,2.0677,2.2082,2.3067,-1.5051,-1.4864,-1.4416,-1.3865,-1.3909,-1.4275,-1.4868,-1.5142,-1.5495,-1.5938,-1.6448,-1.6744,-1.6876,-1.7168,-1.7383,-1.7287,-1.702,-1.6833,-1.6598,-1.6233,-1.5944,-1.5736,-1.5501,-1.5422,-1.5405,-1.4697,-1.4221,-1.4122,-1.3529,-1.311,-1.2848,-1.3067,-1.3111,-1.3001,-1.2333,-1.1925,-1.1637,-1.1133,-1.0703,-1.029,-1.0014,-0.9276,-0.8317,-0.8032,-0.7712,-0.7391,-0.6811,-0.6486,0.0,-0.642,-0.6478,-0.6539,-0.6086,-0.5951,-0.5947,-0.5557,-0.5428,0.0,0.0,0.0,-0.4725,-0.4916,0.0,0.0,0.0,0.0,0.0,0.0,0.0,-0.0894,-0.0717,-0.0532,-0.047,-0.0664,-0.0535,-0.0336,0.0,0.0268,0.074,0.0873,0.0539,0.0606,0.1276,0.119,0.1778,0.3345,0.3113,0.3136,0.363,0.3485,0.3367,0.3287,0.4071,0.469,0.4975,0.5835,0.6658,0.751,0.7247,0.7787,0.8943,0.9829,1.0391,1.0704,1.1904,1.2764,1.3409,1.4297,1.5039,1.5623,1.6411,1.7558,1.8852,1.9642,2.0898,2.2436,-1.5761,-1.5598,-1.5265,-1.4771,-1.4756,-1.4996,-1.5471,-1.5856,-1.624,-1.6563,-1.7104,-1.7512,-1.7512,-1.779,-1.8009,-1.7912,-1.7696,-1.7395,-1.6889,-1.6828,-1.6627,-1.6353,-1.6125,-1.6087,-1.6313,-1.5487,-1.4944,-1.4607,-1.4137,-1.3648,-1.3016,-1.3122,-1.3028,-1.2657,-1.2192,-1.1735,-1.1143,-1.1028,-1.0647,-1.013,-0.9868,-0.9193,-0.8223,0.0,-0.7461,-0.7199,0.0,-0.642,-0.642,-0.642,-0.635,-0.6214,-0.5954,-0.5822,-0.5686,-0.5491,-0.5428,-0.5428,-0.5428,-0.4891,0.0,-0.4519,-0.3981,0.0,-0.3228,0.0,-0.2202,0.0,0.0,0.0,-0.0064,0.0,0.0,0.0,0.0,0.0067,0.0,0.0874,0.1343,0.1744,0.1412,0.1412,0.2213,0.2112,0.2696,0.4215,0.4229,0.4279,0.4604,0.0,0.4716,0.4553,0.5433,0.6107,0.6601,0.7544,0.8439,0.9227,0.8998,0.9263,1.0042,1.1003,1.1482,1.1625,1.288,1.3659,1.4118,1.5062,1.5644,1.6151,1.7047,1.8001,1.8849,1.9154,2.0511,2.238,-1.6776,-1.6249,-1.5808,-1.5947,-1.555,-1.548,-1.6017,-1.6473,-1.6933,-1.7477,-1.7908,-1.8108,-1.8108,-1.8312,-1.8479,-1.8452,-1.847,-1.8118,-1.7281,-1.7347,-1.7141,-1.6405,-1.6289,-1.6224,-1.6323,-1.5946,-1.5324,-1.4544,-1.4548,-1.3998,-1.2897,-1.2659,-1.2415,-1.2033,-1.1793,-1.1397,-1.0812,-1.0783,-1.0347,-0.954,-0.9303,-0.879,-0.8253,-0.7913,-0.7382,-0.6815,-0.6486,-0.642,-0.642,-0.642,-0.642,-0.635,-0.6024,-0.5888,-0.5822,-0.5495,-0.5428,-0.5362,-0.5359,-0.4821,-0.422,-0.4015,0.0,0.0,0.0,0.0,-0.0901,0.0,0.0,0.0,0.0,0.0,0.0067,0.0,0.0,0.0269,0.1008,0.1275,0.1743,0.2619,0.2817,0.2882,0.2947,0.3143,0.3611,0.435,0.488,0.5428,0.5824,0.0,0.6501,0.6287,0.7307,0.8015,0.8273,0.9328,1.0079,1.0401,1.0387,1.0279,1.0108,1.1352,1.1755,1.161,1.319,1.4112,1.4595,1.5466,1.6064,1.6607,1.7462,1.8108,1.8679,1.9324,2.094,2.288,-1.6393,-1.6529,-1.6587,-1.6665,-1.6291,-1.616,-1.6629,-1.7021,-1.7414,-1.7669,-1.8339,-1.8774,-1.8774,-1.9065,-1.9263,-1.9104,-1.8939,-1.8549,-1.7896,-1.7164,-1.6452,-1.5918,-1.5218,-1.5026,-1.5349,-1.4964,-1.4406,-1.3774,-1.3717,-1.3148,-1.2032,-1.2043,-1.1921,-1.1812,-1.1537,-1.1223,-1.0789,-1.0401,-0.9919,-0.9292,-0.8881,-0.8544,-0.8195,0.0,-0.7042,-0.6486,-0.6416,-0.642,-0.642,-0.642,-0.635,-0.6214,-0.5954,-0.5818,-0.562,-0.5425,-0.5428,-0.5292,-0.4755,-0.4018,-0.3418,-0.3086,-0.2484,-0.1885,0.0,0.0,0.0,0.0,0.0,0.0,0.0,0.0,0.0524,0.0067,0.0469,0.0875,0.1076,0.2147,0.3084,0.3489,0.4017,0.4259,0.3944,0.4194,0.4825,0.5793,0.6357,0.6733,0.6812,0.0,0.0,0.7186,0.7628,0.8282,0.9138,0.9669,1.041,1.1426,1.1175,1.153,1.2524,1.2837,1.3178,1.3611,1.4291,1.4751,1.4994,1.5567,1.6064,1.6607,1.7462,1.8584,1.9768,2.042,2.1586,2.2848,-1.7232,-1.7218,-1.711,-1.6936,-1.6862,-1.6908,-1.7128,-1.7348,-1.7569,-1.7906,-1.8506,-1.8897,-1.8897,-1.9261,-1.9245,-1.8754,-1.8585,-1.7951,-1.6849,-1.6252,-1.5701,-1.5196,-1.4513,-1.4362,-1.4756,-1.4377,-1.3901,-1.3276,-1.325,-1.2647,-1.1443,-1.1403,-1.1209,-1.0918,-1.0785,-1.0609,-1.0409,-0.9899,-0.9471,-0.9056,-0.8648,-0.8225,0.0,-0.7409,-0.6907,-0.642,-0.642,-0.642,-0.642,-0.642,-0.6284,-0.6148,-0.5954,-0.5752,-0.555,-0.5425,-0.516,-0.4891,-0.4821,-0.3751,-0.2614,-0.2681,-0.188,-0.108,-0.1161,-0.088,-0.0601,0.0,0.0,0.0,0.0,0.0,0.0858,0.0537,0.0807,0.1344,0.1946,0.2883,0.3687,0.4092,0.4626,0.4872,0.468,0.5142,0.5691,0.6318,0.7269,0.0,0.0,0.0,0.0,0.8007,0.8356,0.9078,1.0121,1.0261,1.0993,1.2182,1.1989,1.2341,1.3226,1.3564,1.3905,1.4154,1.4942,1.5322,1.5445,1.5888,1.6497,1.7131,1.8028,1.9103,2.0215,2.0748,2.1609,2.2529,-1.8421,-1.8009,-1.7468,-1.7128,-1.7394,-1.7651,-1.7651,-1.7651,-1.7789,-1.8155,-1.855,-1.8788,-1.8788,-1.91,-1.8975,-1.8078,-1.7853,-1.7015,-1.5366,-1.52,-1.4954,-1.4279,-1.3928,-1.3815,-1.4044,-1.3787,-1.332,-1.2589,-1.2741,-1.2236,-1.1,-1.073,-1.0405,-0.9955,-0.9889,-0.9825,-0.9803,-0.9344,-0.9066,-0.8902,-0.8369,-0.7879,-0.7336,-0.7241,-0.6911,-0.642,-0.642,-0.642,-0.642,-0.642,-0.6284,-0.6148,-0.5954,-0.5756,-0.555,-0.5425,-0.4891,-0.442,-0.4957,-0.3549,-0.2012,-0.2345,-0.1344,-0.0271,-0.0069,0.0,0.0,0.0,0.0682,0.1144,0.0,0.0,0.1144,0.1215,0.1347,0.1811,0.3002,0.34,0.3867,0.4466,0.4847,0.0,0.5084,0.5815,0.6433,0.6519,0.7837,0.0,0.0,0.0,0.0,0.8757,0.9276,1.0024,1.0947,0.0,1.1571,1.2621,1.2621,1.2816,1.3197,1.3933,1.4185,1.4236,1.5303,1.5785,1.5885,1.6275,1.7005,1.7948,1.8784,1.9588,2.0311,2.0679,2.1323,2.2096,-1.8073,-1.8082,-1.799,-1.7926,-1.8238,-1.8504,-1.8504,-1.8504,-1.8531,-1.8605,-1.8953,-1.9201,-1.9201,-1.9256,-1.8975,-1.8078,-1.7997,-1.7374,-1.5947,-1.5173,-1.4377,-1.3523,-1.2739,-1.2157,-1.1983,-1.1933,-1.1643,-1.1039,-1.1415,-1.1033,-0.9852,-0.9829,-0.9868,-0.9931,-0.947,-0.933,-0.9335,-0.9088,-0.8908,-0.8629,-0.792,-0.7615,-0.746,-0.7026,-0.6646,-0.642,-0.642,-0.642,-0.642,-0.642,-0.6222,-0.5954,-0.5892,-0.569,-0.5425,-0.5428,-0.4891,-0.422,-0.3685,-0.2748,-0.1744,-0.1076,-0.0606,-0.027,-0.0068,0.0,0.0,0.0,0.0977,0.1493,0.0382,0.0,0.0,0.2007,0.252,0.286,0.2992,0.3759,0.4277,0.44,0.4493,0.464,0.4806,0.6244,0.7219,0.7251,0.856,0.0,0.0,0.0,0.0,0.0,1.003,0.0,0.0,0.0,1.1791,1.2621,1.2621,1.3183,1.425,1.4373,1.4859,1.5539,1.55,1.5775,1.6206,1.6013,1.6883,1.8422,1.8898,1.9732,2.0712,2.0761,2.1261,2.1899,-1.8385,-1.843,-1.843,-1.843,-1.8751,-1.9091,-1.9311,-1.894,-1.878,-1.8967,-1.9008,-1.8916,-1.863,-1.8647,-1.8078,-1.678,-1.6617,-1.6047,-1.4578,-1.3926,-1.3312,-1.2571,-1.1883,-1.151,-1.1534,-1.1389,-1.1023,-1.0519,-1.0695,-1.0277,-0.9378,-0.9419,-0.9361,-0.9367,-0.9254,-0.934,-0.9556,-0.8872,0.0,-0.8437,-0.7554,-0.7151,-0.7081,-0.6687,-0.6497,-0.642,-0.642,-0.642,-0.6416,-0.635,-0.6152,-0.5888,-0.5752,-0.5557,-0.5428,-0.5428,-0.4622,-0.3751,-0.3751,-0.2482,-0.1143,-0.1076,-0.0606,-0.0135,0.0,0.0,0.0,0.0,0.112,0.1971,0.171,0.1929,0.0,0.0,0.0,0.0,0.3633,0.403,0.431,0.4562,0.4624,0.4807,0.5284,0.6463,0.7232,0.7099,0.8425,0.0,0.0,0.0,0.0,0.0,0.0,0.0,0.0,0.0,0.0,1.3094,1.3398,1.4052,1.4942,1.505,1.5555,1.6331,1.6269,1.6599,1.719,1.7509,1.7949,1.8553,1.9161,1.9839,2.0496,2.0712,2.1103,2.1601,-1.8935,-1.8806,-1.8677,-1.8768,-1.8932,-1.9108,-1.9339,-1.8935,-1.8656,-1.9093,-1.8601,-1.8153,-1.7721,-1.7755,-1.7107,-1.556,-1.5394,-1.4712,-1.3169,-1.2813,-1.2493,-1.2005,-1.1486,-1.1304,-1.1528,-1.1256,-1.0864,-1.0439,-1.0302,-0.9924,-0.9206,-0.9206,-0.9109,-0.8947,-0.9179,0.0,0.0,0.0,-0.8345,-0.8203,-0.7267,-0.6827,-0.6725,-0.6505,-0.642,-0.6424,-0.6465,-0.6386,-0.623,-0.6163,-0.594,-0.562,-0.5484,-0.5219,-0.4957,-0.4957,-0.4018,-0.3082,-0.3685,-0.2216,-0.0606,-0.1209,-0.0672,0.0,0.0,0.0,0.0,0.0,0.1008,0.2217,0.3309,0.3297,0.0,0.0,0.0,0.0,0.0,0.433,0.4467,0.4756,0.4991,0.5282,0.5694,0.6497,0.6926,0.6768,0.8154,0.9172,0.9337,0.0,0.0,0.0,0.0,1.1742,1.2733,0.0,1.3139,1.3511,1.4172,1.4824,1.541,1.5507,1.5936,1.6634,1.6854,1.7325,1.8081,1.8868,1.8972,1.8722,1.9332,1.9874,2.0361,2.0679,2.1055,2.1464,-1.9668,-1.9135,-1.8662,-1.9015,-1.8605,-1.821,-1.7913,-1.8057,-1.8384,-1.8622,-1.7614,-1.6903,-1.6854,-1.6854,-1.6453,-1.5477,-1.5394,-1.4803,-1.3444,-1.3099,-1.2776,-1.2276,-1.1775,-1.1504,-1.1534,-1.1256,-1.0775,-1.026,-1.0387,-1.0019,0.0,-0.9206,-0.9195,0.0,0.0,0.0,0.0,-0.8781,-0.8305,-0.7707,-0.7199,-0.6982,-0.6962,-0.655,-0.642,-0.644,-0.6607,-0.6221,-0.5659,-0.5807,-0.5438,-0.4882,-0.4882,-0.4215,-0.3416,-0.3416,-0.2815,-0.2213,-0.228,-0.1412,-0.0539,-0.0606,-0.027,0.0,0.0,0.0,0.0,0.0,0.0605,0.1826,0.4018,0.3748,0.3446,0.0,0.0,0.0,0.0,0.4674,0.5022,0.4887,0.5488,0.5845,0.565,0.629,0.6698,0.6531,0.821,0.915,0.8974,1.0653,0.0,1.1391,0.0,1.2909,1.3044,1.3322,1.345,1.3511,1.4172,1.4824,1.541,1.541,1.5806,1.6451,1.6645,1.7206,1.8034,1.8565,1.8934,1.9234,1.9166,1.9803,2.0761,2.0794,2.1198,2.1751,-1.8422,-1.8217,-1.8075,-1.8449,-1.837,-1.8213,-1.8269,-1.7771,-1.7453,-1.7531,-1.718,-1.6758,-1.6339,-1.5906,-1.5296,-1.4482,-1.423,-1.3893,-1.3222,-1.2814,-1.2407,-1.2083,-1.1564,-1.128,-1.128,-1.1172,-1.0763,-1.0225,-1.0399,-1.0036,0.0,0.0,0.0,0.0,0.0,-0.9067,-0.8632,-0.8024,-0.7385,-0.6734,-0.6113,-0.5926,-0.5988,-0.5701,-0.562,-0.563,-0.5691,-0.553,-0.5288,-0.511,-0.4739,-0.4393,-0.4259,-0.3823,-0.3229,-0.3245,-0.2749,-0.2133,-0.2133,-0.143,-0.0674,-0.0539,-0.0337,-0.0135,0.0,0.0,0.0135,0.0539,0.1544,0.2758,0.4154,0.4178,0.4049,0.0,0.0,0.0,0.0,0.4398,0.4748,0.5262,0.5538,0.5907,0.6517,0.6952,0.7181,0.7274,0.8063,0.8867,0.9569,1.0329,1.1341,1.2695,0.0,1.2929,1.3957,1.4057,1.4282,1.4638,1.5303,1.5778,1.6019,1.6019,1.6357,1.7068,1.8265,1.866,1.8508,1.971,2.0059,1.995,2.0469,2.1061,2.1688,2.1906,2.2321,2.2785,-1.7787,-1.7546,-1.7478,-1.7833,-1.7713,-1.7598,-1.7832,-1.7113,-1.6472,-1.638,-1.633,-1.6154,-1.5548,-1.4902,-1.43,-1.3646,-1.3476,-1.3307,-1.3143,-1.2706,-1.2283,-1.2035,-1.1522,-1.1232,-1.1232,-1.1079,-1.0804,-1.0262,-1.0358,0.0,0.0,0.0,0.0,0.0,-0.8954,-0.85,-0.7825,-0.72,-0.657,-0.5989,-0.5448,-0.527,-0.5343,-0.5204,-0.5081,-0.5084,-0.5198,-0.5041,-0.4801,-0.4502,-0.4012,-0.357,-0.3547,-0.3152,-0.2677,-0.2677,-0.2307,-0.1886,-0.1871,-0.1366,-0.0742,-0.0607,-0.0472,-0.027,-0.0135,-0.0067,0.0269,0.121,0.2347,0.342,0.4164,0.4365,0.4393,0.4314,0.0,0.0,0.0,0.4518,0.5,0.5715,0.6037,0.651,0.7248,0.7497,0.7631,0.7598,0.0,0.8846,1.0099,1.0684,0.0,0.0,0.0,0.0,0.0,1.4381,1.4706,1.5177,1.6019,1.6384,1.6384,1.6534,1.6994,1.7682,1.9263,1.9672,1.9244,2.0498,2.0798,2.0655,2.1281,2.1847,2.2406,2.2687,2.3135,2.3617,-1.8119,-1.7372,-1.6832,-1.7267,-1.648,-1.5825,-1.5825,-1.5635,-1.5435,-1.5047,-1.4836,-1.4532,-1.4232,-1.3735,-1.3392,-1.3398,-1.3398,-1.3307,-1.3143,-1.2881,-1.2566,0.0,0.0,-1.1528,-1.1528,-1.1029,-1.0663,-1.0513,0.0,0.0,-0.9572,0.0,-0.8898,-0.8299,-0.8084,-0.7443,-0.6542,-0.6311,-0.6005,-0.561,-0.5481,-0.5429,-0.5343,-0.5204,-0.5081,-0.5096,-0.5306,-0.4896,-0.4317,-0.4153,-0.3386,-0.2407,-0.2494,-0.1893,-0.1233,-0.1129,-0.1121,-0.1114,-0.1084,-0.0943,-0.0809,-0.0809,-0.0539,-0.027,-0.027,-0.0135,0.0404,0.1812,0.2681,0.342,0.4164,0.4303,0.4303,0.43,0.0,0.0,0.0,0.5413,0.6188,0.6188,0.7311,0.791,0.7518,0.7659,0.7607,0.0,0.0,0.0,0.0,0.0,0.0,1.3108,1.3402,0.0,1.31,1.4013,1.4469,1.4529,1.5778,1.6384,1.6431,1.6944,1.7534,1.8135,1.9044,1.9683,2.0219,2.0401,2.0777,2.1187,2.1124,2.1801,2.2781,2.2817,2.331,2.4,-1.65,-1.6334,-1.6088,-1.6278,-1.592,-1.5635,-1.5635,-1.5356,-1.5235,-1.505,-1.4684,-1.4316,-1.4318,-1.3787,-1.3504,0.0,-1.3157,-1.2881,0.0,-1.2547,-1.2401,-1.2312,-1.1811,-1.1534,-1.1534,-1.1029,-1.0663,-1.0513,0.0,0.0,0.0,-0.8975,-0.8379,-0.7534,-0.7458,-0.6801,-0.5693,-0.5616,-0.5154,-0.438,-0.4349,-0.4337,-0.4332,-0.4222,-0.4208,-0.4213,-0.4325,-0.3932,-0.3455,-0.3119,-0.2574,-0.2013,-0.1768,-0.1458,-0.1222,-0.1192,-0.1183,-0.1181,-0.1171,-0.1068,-0.0973,-0.0921,-0.0762,-0.0613,-0.0494,0.0498,0.1476,0.2029,0.3247,0.4299,0.4431,0.4485,0.4512,0.4428,0.4417,0.0,0.4311,0.0,0.5557,0.5966,0.668,0.727,0.7475,0.7655,0.0,0.0,0.0,0.0,0.0,0.0,0.0,0.0,1.3383,0.0,1.4399,1.4851,1.5352,1.5788,1.6202,1.6384,1.6431,1.739,1.7929,1.8147,1.9423,2.0016,2.0258,2.1213,2.1662,2.1879,2.2527,2.305,2.3366,2.3705,2.4139,2.4735,-1.5832,-1.573,-1.5737,-1.5737,-1.5547,-1.5356,-1.5356,-1.5077,-1.4987,-1.4987,-1.4545,-1.4339,-1.4339,-1.3939,0.0,-1.3391,-1.3045,-1.2819,-1.2711,-1.2548,-1.2415,-1.2318,-1.1999,-1.1702,-1.1522,-1.11,0.0,-1.0515,-1.0429,-0.9834,-0.8966,-0.876,-0.8008,-0.67,-0.6623,-0.5928,-0.4846,-0.4768,-0.4382,-0.3763,-0.3763,-0.3763,-0.3763,-0.3763,-0.3763,-0.3763,-0.3608,-0.3374,-0.2984,-0.2431,-0.2117,-0.1803,-0.1414,-0.1335,-0.1251,-0.1221,-0.1212,-0.1209,-0.1198,-0.1167,-0.1142,-0.1016,-0.0925,-0.077,-0.0362,0.08,0.1874,0.2091,0.3268,0.4267,0.427,0.4388,0.4483,0.455,0.4499,0.4516,0.4648,0.0,0.5663,0.6328,0.0,0.0,0.0,0.8015,0.8205,0.0,0.0,0.0,0.0,0.0,0.0,1.2963,1.3418,0.0,1.4702,1.5362,1.5841,1.6272,1.6341,1.6384,1.6431,1.7556,1.8093,1.8201,1.954,2.0131,2.0271,2.1321,2.1894,2.2175,2.3009,2.3551,2.3909,2.4369,2.4799,2.5262,-1.5737,-1.5635,-1.5445,0.0,-1.5267,0.0,-1.5083,-1.4885,-1.4688,-1.4688,-1.449,-1.4298,-1.4298,-1.4081,-1.3731,-1.3224,0.0,0.0,0.0,-1.2705,-1.2596,-1.2355,-1.2324,-1.2034,-1.1548,-1.1061,-1.0695,-1.0366,-0.9959,-0.9311,-0.8546,-0.8546,-0.7544,-0.577,-0.5619,-0.5004,-0.4079,-0.3843,-0.3763,-0.3763,-0.3763,-0.3763,-0.3763,-0.3763,-0.3763,-0.3763,-0.3295,-0.3141,-0.2982,-0.2196,-0.1882,-0.1803,-0.1414,-0.1335,-0.1251,-0.1224,-0.1215,-0.1209,-0.1181,-0.1171,-0.117,-0.1172,-0.1026,-0.0659,0.0073,0.0876,0.1607,0.2184,0.2916,0.3507,0.3942,0.4019,0.4167,0.4595,0.464,0.4772,0.518,0.5681,0.6304,0.0,0.0,0.0,0.0,0.8579,0.8775,0.0,0.0,0.0,0.0,0.0,1.3225,1.2811,1.3625,1.4139,1.4264,1.5506,1.6196,1.6225,1.6341,1.6483,1.653,1.7634,1.8147,1.8201,1.9448,2.0093,2.0233,2.0944,2.1561,2.2128,2.274,2.3465,2.4302,2.4719,2.5121,2.5519,0.0,0.0,-1.5172,-1.5172,-1.4981,-1.479,-1.479,-1.4592,-1.4394,-1.4394,-1.4298,-1.4298,-1.4298,-1.4244,-1.4075,-1.3749,-1.3357,-1.3006,-1.2723,-1.2705,-1.2681,-1.2614,-1.2254,-1.1698,-1.088,-1.0162,-0.9322,-0.8291,-0.8172,-0.7617,-0.6777,-0.6619,-0.5925,-0.4768,-0.4543,-0.4233,-0.3843,-0.3841,-0.3763,-0.3763,-0.3763,-0.3763,-0.3763,-0.3763,-0.3763,-0.3763,-0.3686,-0.3215,-0.2589,-0.2431,-0.1961,-0.1414,-0.1335,-0.1335,-0.1334,-0.1249,-0.1246,-0.1245,-0.1238,-0.1219,-0.1206,-0.123,-0.0849,-0.0382,0.0,0.105,0.2059,0.2274,0.3078,0.3677,0.3682,0.4029,0.4208,0.3905,0.476,0.5368,0.512,0.6139,0.7061,0.0,0.7756,0.8308,0.8925,0.8859,0.9179,0.0,0.0,0.0,0.0,1.2438,1.2808,1.2453,1.3789,1.4631,1.487,1.6176,1.6971,1.7318,1.6989,1.7105,1.7528,1.7934,1.8375,1.8815,1.9668,2.0042,2.0131,2.1272,2.1799,2.2035,2.3054,2.3551,2.3809,2.4287,2.4679,2.5162,-1.5083,-1.4981,-1.4892,-1.4892,-1.4688,-1.4496,-1.4496,-1.4394,-1.4298,-1.4298,-1.4298,-1.4298,-1.4298,-1.4298,-1.4189,-1.393,-1.3646,-1.3314,-1.2922,-1.2811,-1.2665,-1.254,-1.1793,-1.1038,-1.0449,-0.9554,-0.856,-0.7573,-0.7553,-0.708,-0.6163,-0.6002,-0.5386,-0.4384,-0.4155,-0.3999,-0.3763,-0.3763,-0.3763,-0.3763,-0.3763,-0.3763,-0.3763,-0.3763,-0.3763,-0.3763,-0.353,-0.3059,-0.251,-0.2275,-0.1804,-0.1335,-0.1335,-0.1335,-0.1335,-0.1335,-0.1335,-0.1335,-0.1335,-0.1245,-0.1159,-0.094,-0.0393,0.0234,0.0607,0.1385,0.2023,0.2349,0.2849,0.3202,0.3315,0.3575,0.3902,0.4229,0.4936,0.5622,0.5981,0.6777,0.0,0.7785,0.7999,0.8331,0.8862,0.9222,0.98,1.0496,1.1427,0.0,1.2137,1.2615,1.2721,1.2365,1.3956,1.4961,1.5403,1.6917,1.7781,1.8019,1.7357,1.7322,1.7912,1.8046,1.8429,1.904,1.9668,1.9926,2.0093,2.0993,2.1609,2.1988,2.2875,2.3377,2.3653,2.4135,2.4574,2.4989,-1.4987,-1.479,-1.4592,-1.4592,-1.449,-1.4298,-1.4298,-1.4298,-1.4298,-1.4298,-1.4298,-1.4298,-1.4298,-1.4202,-1.3915,-1.3696,-1.3485,-1.335,-1.3069,-1.2862,-1.2563,-1.2112,-1.1139,-1.0361,-0.9854,-0.87,-0.7768,-0.7293,-0.7203,-0.6721,-0.5935,-0.5774,-0.5231,-0.4307,-0.4155,-0.3921,-0.3763,-0.3763,-0.3763,-0.3763,-0.3763,-0.3763,-0.3763,-0.3763,-0.3763,-0.3763,-0.3297,-0.2826,-0.2431,-0.2038,-0.1569,-0.1178,-0.1178,-0.11,-0.1021,-0.1021,-0.1021,-0.1021,-0.11,-0.11,-0.0864,-0.0314,0.0314,0.0863,0.1489,0.1646,0.1882,0.2431,0.2511,0.2589,0.2982,0.3139,0.361,0.4716,0.516,0.5836,0.6982,0.0,0.7739,0.8351,0.8288,0.8389,0.8793,0.9745,1.0445,1.0766,1.1923,1.2614,1.2665,1.2884,1.2959,1.2852,1.423,1.5404,1.6204,1.7735,1.8444,1.8371,1.7543,1.7444,1.8027,1.8102,1.8483,1.9146,1.9592,1.9862,2.0029,2.0646,2.1307,2.1927,2.2589,2.3143,2.3653,2.4135,2.4574,2.4958,-1.4394,-1.4394,-1.4394,-1.4394,-1.4298,-1.4298,-1.4298,-1.4298,-1.4298,-1.4298,-1.4298,-1.4298,-1.4298,-1.3511,-1.2813,-1.2582,-1.1803,-1.1731,-1.2815,-1.2862,-1.2201,-1.0971,-1.0544,-0.9589,-0.7925,-0.6644,-0.5902,-0.5753,-0.5621,-0.5342,-0.4932,-0.4693,-0.4462,-0.4155,-0.3921,-0.3841,-0.3763,-0.3763,-0.3763,-0.3763,-0.3763,-0.3763,-0.3763,-0.3763,-0.3763,-0.3763,-0.3297,-0.2826,-0.2431,-0.2038,-0.1255,-0.0471,-0.0471,-0.0079,0.0314,0.0314,0.0314,0.0157,-0.0314,-0.0079,0.0314,0.0471,0.0942,0.1489,0.1568,0.196,0.2353,0.251,0.2511,0.2511,0.2589,0.3448,0.4178,0.4179,0.568,0.6953,0.7081,0.0,0.8321,0.8652,0.8623,0.914,1.0525,1.0586,1.124,1.2876,1.2941,1.3053,1.3331,1.3133,1.3446,1.4351,1.5076,1.629,1.8012,1.8668,1.8764,1.8371,1.7864,1.7942,1.8669,1.8267,1.8685,1.9695,1.9747,1.9798,1.9901,2.1086,2.1615,2.1852,2.2995,2.3508,2.3653,2.4135,2.4574,2.506,-1.4298,-1.4298,-1.4298,-1.4298,-1.4298,-1.4298,-1.4298,-1.4298,-1.4298,-1.4298,-1.4298,-1.4004,-1.3318,-1.2829,-1.2139,-1.1351,-1.0867,-1.0702,-1.1061,-1.1019,-1.0622,-0.9767,-0.8973,-0.7925,-0.6523,-0.5872,-0.5523,-0.5466,-0.5181,-0.5015,-0.4882,-0.4501,-0.4236,-0.4157,-0.3944,-0.3763,-0.3763,-0.3763,-0.3763,-0.3763,-0.3763,-0.3763,-0.3763,-0.3763,-0.3606,-0.3374,-0.3141,-0.2431,-0.1646,-0.1411,-0.0706,0.0157,0.0157,0.0393,0.0628,0.0628,0.0628,0.055,0.0236,0.0628,0.1177,0.1177,0.1647,0.2117,0.2117,0.2275,0.2511,0.2511,0.2511,0.2666,0.3132,0.3679,0.4316,0.5072,0.6129,0.0,0.0,0.7996,0.8403,0.8551,0.9008,0.9609,1.0368,1.107,1.1859,1.2813,1.3136,1.3338,1.3484,1.3353,1.3962,1.5489,1.6242,1.7309,1.8754,1.8713,1.8589,1.8371,1.7688,1.7819,1.8782,1.8334,1.8727,1.9798,1.9798,1.9798,1.9901,2.1051,2.1615,2.1805,2.2995,2.3523,2.3638,2.3867,2.4585,2.5496,-1.4298,-1.4298,-1.4298,-1.4298,-1.4298,-1.4298,-1.4298,-1.41,-1.3908,-1.3806,-1.3613,-1.3022,-1.194,-1.1648,-1.1063,-1.0079,-0.9682,-0.9319,-0.886,-0.882,-0.869,-0.8528,-0.7418,-0.6438,-0.5733,-0.564,-0.5491,-0.5464,-0.5178,-0.4957,-0.4954,-0.4435,-0.4157,-0.4175,-0.3916,-0.3795,-0.3793,-0.3773,-0.3763,-0.3763,-0.3763,-0.3763,-0.3763,-0.3763,-0.345,-0.2902,-0.2746,-0.1882,-0.0705,-0.0549,0.0078,0.0864,0.0864,0.0942,0.1021,0.1021,0.1021,0.1021,0.0864,0.1333,0.1803,0.1803,0.2195,0.2514,0.2529,0.252,0.2596,0.2783,0.2844,0.3059,0.4014,0.4235,0.4774,0.6051,0.0,0.0,0.0,0.8132,0.8327,0.8403,0.9084,0.969,1.0143,1.1335,1.215,1.2526,1.3127,1.3492,1.3492,1.3492,1.4338,1.6237,1.7322,1.8213,1.8909,1.8557,1.8278,1.8061,1.7307,1.7552,1.8611,1.8276,1.8727,1.9798,1.9798,1.9798,1.9901,2.0979,2.1534,2.1805,2.292,2.3436,2.3595,2.3595,2.451,2.5717,-1.4298,-1.4298,-1.4298,-1.4298,-1.4298,-1.4298,-1.4298,-1.3414,-1.2727,-1.2436,-1.1658,-1.097,-1.0565,-0.9686,-0.8901,-0.8612,-0.763,-0.6886,-0.6566,-0.6549,-0.6807,-0.735,-0.6412,-0.5733,-0.5733,-0.5725,-0.5665,-0.5464,-0.5257,-0.4949,-0.4701,-0.4353,-0.411,-0.4022,-0.393,-0.3889,-0.3883,-0.3799,-0.3763,-0.3763,-0.3763,-0.3763,-0.3763,-0.3763,-0.3132,-0.219,-0.188,-0.1019,0.0,0.0392,0.0941,0.1489,0.1489,0.1882,0.2354,0.2354,0.2354,0.2275,0.1647,0.196,0.2431,0.2431,0.2431,0.2525,0.2582,0.255,0.2779,0.3808,0.3871,0.4014,0.4981,0.5623,0.6132,0.6434,0.0,0.0,0.8028,0.7909,0.7953,0.8327,0.8479,0.916,1.0887,1.1111,1.1781,1.3273,1.3492,1.3492,1.3492,1.3492,1.4338,1.6237,1.8065,1.8827,1.8433,1.8402,1.7968,1.708,1.7018,1.738,1.815,1.8116,1.8727,1.9798,1.9798,1.9798,1.9901,2.1064,2.1629,2.1805,2.3024,2.3538,2.3595,2.3595,2.4204,2.5155,-1.4196,-1.3806,-1.3318,-1.3318,-1.2829,-1.2344,-1.2145,-1.1755,-1.1458,-1.1156,-1.0765,-1.0177,-0.9296,-0.8806,-0.8216,-0.7226,-0.6836,-0.652,-0.6374,-0.6372,-0.646,-0.6581,-0.6082,-0.5839,-0.5839,-0.5771,-0.5622,-0.5398,-0.5175,-0.4894,-0.472,-0.4305,-0.4118,-0.4114,-0.3965,-0.393,-0.3977,-0.3887,-0.3881,-0.3928,-0.3871,-0.3555,-0.3027,-0.2862,-0.2044,-0.0898,-0.0644,0.016,0.1039,0.1182,0.1647,0.2201,0.2234,0.2405,0.2574,0.2612,0.2623,0.2541,0.2376,0.2433,0.2567,0.2567,0.2595,0.2629,0.2653,0.3131,0.3617,0.4012,0.4463,0.5151,0.6097,0.6321,0.6562,0.7187,0.0,0.7585,0.7729,0.7765,0.8102,0.8851,0.9523,1.0421,1.1706,1.2305,1.2826,1.3419,1.3492,1.3492,1.3492,1.4625,1.5737,1.6922,1.8375,1.8982,1.8806,1.8257,1.7812,1.7399,1.7212,1.7665,1.8608,1.8635,1.9443,2.0803,2.0112,2.0012,2.0418,2.1189,2.1534,2.1833,2.3385,2.4075,2.4283,2.4702,2.5484,2.6458,-1.3028,-1.2533,-1.194,-1.194,-1.1458,-1.0872,-1.0676,-1.0382,-1.0087,-0.9784,-0.9489,-0.8901,-0.7918,-0.7723,-0.7425,-0.6434,-0.6437,-0.6437,-0.6437,-0.6437,-0.6347,-0.6151,-0.5988,-0.5904,-0.5812,-0.57,-0.5463,-0.528,-0.4979,-0.4805,-0.4656,-0.4235,-0.4126,-0.4206,-0.4053,-0.402,-0.4071,-0.395,-0.3952,-0.3942,-0.3605,-0.3126,-0.2516,-0.2098,-0.1091,0.0168,0.0247,0.1067,0.1967,0.1935,0.2245,0.2575,0.2617,0.2629,0.2642,0.2703,0.2707,0.2696,0.2715,0.2691,0.2654,0.2635,0.2661,0.2698,0.2717,0.3461,0.421,0.4525,0.5325,0.6201,0.7083,0.7133,0.717,0.7688,0.7699,0.763,0.7577,0.7957,0.8571,0.9331,1.024,1.1236,1.2224,1.282,1.32,1.3499,1.3492,1.3637,1.384,1.5392,1.6655,1.7404,1.8509,1.9003,1.8858,1.8112,1.7657,1.7502,1.7263,1.7712,1.8654,1.8875,1.9805,2.1179,2.0213,2.0225,2.0974,2.1262,2.1718,2.2353,2.3728,2.4488,2.4894,2.5342,2.6229,2.7207,-1.0779,-1.0574,-1.0369,-1.0369,-1.0369,-1.0369,-1.0369,-0.9489,-0.8707,-0.8414,-0.7431,-0.6742,-0.6437,-0.6437,-0.6437,-0.6437,-0.6437,-0.6437,-0.6437,-0.6437,-0.6385,-0.6274,-0.6037,-0.5815,-0.5637,-0.5433,-0.5282,-0.501,-0.4646,-0.4563,-0.4659,-0.4389,-0.4218,-0.4295,-0.421,-0.4173,-0.4163,-0.3979,-0.3955,-0.3944,-0.2867,-0.255,-0.2519,-0.1513,-0.0336,0.0841,0.084,0.1597,0.2694,0.2692,0.2692,0.2692,0.2694,0.2694,0.2706,0.2766,0.2741,0.2707,0.2767,0.2783,0.277,0.2709,0.2694,0.271,0.277,0.3502,0.4418,0.5494,0.63,0.7152,0.809,0.8142,0.7959,0.7793,0.7902,0.7955,0.7864,0.8695,0.9394,0.9566,1.0345,1.1242,1.2231,1.2305,1.2673,1.3419,1.3499,1.384,1.4609,1.5666,1.6645,1.7404,1.8509,1.8847,1.8392,1.7957,1.7441,1.6977,1.718,1.7545,1.817,1.8721,1.9621,2.0706,2.0075,2.0451,2.1504,2.1422,2.216,2.3338,2.387,2.4614,2.5396,2.5411,2.6077,2.7099,-1.0373,-0.9882,-0.9292,-0.9292,-0.8609,-0.812,-0.7922,-0.763,-0.7332,-0.703,-0.6736,-0.6537,-0.6437,-0.6437,-0.6437,-0.6437,-0.6437,-0.6437,-0.6437,-0.6437,-0.6323,-0.6093,-0.5948,-0.5831,-0.5654,-0.5359,-0.5087,-0.4748,-0.4718,-0.4541,-0.4387,-0.4301,-0.4218,-0.4295,-0.421,-0.4206,-0.4253,-0.3445,-0.3103,-0.316,-0.2062,-0.1294,-0.0704,-0.0264,0.0704,0.1757,0.1903,0.2324,0.2749,0.2707,0.2692,0.27,0.2743,0.2785,0.2824,0.2842,0.2834,0.2824,0.2842,0.3377,0.3712,0.2944,0.3307,0.3787,0.3811,0.5112,0.6331,0.659,0.7421,0.8159,0.8475,0.8333,0.8191,0.8138,0.8065,0.8237,0.8828,0.9219,0.9938,1.1538,1.1695,1.2144,1.3379,1.3255,1.3273,1.3499,1.3985,1.4609,1.5313,1.6306,1.7276,1.8124,1.8664,1.887,1.8868,1.8413,1.7968,1.7522,1.8423,1.9169,1.9736,2.0419,2.1338,2.2347,2.1393,2.1386,2.2037,2.1976,2.2509,2.3336,2.401,2.4707,2.5456,2.6027,2.6131,2.6291,-0.8806,-0.8411,-0.7819,-0.7819,-0.7329,-0.6836,-0.6639,-0.6639,-0.6539,-0.6437,-0.6437,-0.6437,-0.6437,-0.6437,-0.6437,-0.6437,-0.6437,-0.6337,-0.6239,-0.6239,-0.6139,-0.5839,-0.5678,-0.5594,-0.5485,-0.5153,-0.4867,-0.4626,-0.4589,-0.4478,-0.4297,-0.4246,-0.4249,-0.4297,-0.3892,-0.3719,-0.3667,-0.2626,-0.2197,-0.2235,-0.1138,-0.0352,0.0179,0.0718,0.1525,0.233,0.2388,0.2642,0.2813,0.2777,0.2764,0.2771,0.2808,0.2845,0.2875,0.2875,0.3142,0.3504,0.3532,0.4236,0.4748,0.4228,0.4604,0.498,0.498,0.6146,0.7224,0.7224,0.7986,0.8589,0.8658,0.8519,0.8377,0.8304,0.826,0.8539,0.9363,0.9921,1.0816,1.2537,1.2929,1.3383,1.4096,1.3879,1.3778,1.392,1.433,1.5029,1.6097,1.6862,1.7628,1.8482,1.8741,1.8916,1.8796,1.8702,1.8551,1.8353,1.9235,1.9887,2.0523,2.1166,2.197,2.2761,2.187,2.1774,2.233,2.251,2.2834,2.3378,2.453,2.5118,2.5468,2.6549,2.6654,2.6533,-0.6742,-0.6539,-0.6437,-0.6437,-0.6437,-0.6437,-0.6437,-0.6437,-0.6437,-0.6437,-0.6437,-0.6437,-0.6437,-0.6437,-0.6437,-0.6437,-0.6337,-0.6237,-0.6042,-0.5942,-0.5839,-0.5536,-0.5338,-0.5198,-0.5107,-0.4917,-0.4631,-0.4434,-0.4344,-0.43,-0.43,-0.43,-0.4297,-0.4119,-0.3314,-0.2867,-0.2684,-0.1668,-0.1232,-0.1161,-0.0175,0.0352,0.0628,0.1436,0.2064,0.2515,0.2519,0.2698,0.2875,0.2875,0.2875,0.2875,0.2875,0.2963,0.3054,0.306,0.3685,0.4508,0.4691,0.5289,0.5986,0.6312,0.6284,0.6288,0.6184,0.6913,0.7559,0.7559,0.8177,0.8662,0.8816,0.8706,0.8536,0.8365,0.8554,0.9026,0.9766,1.0899,1.1975,1.2978,1.3961,1.4509,1.4509,1.4216,1.4261,1.4648,1.4745,1.5355,1.6848,1.7295,1.7765,1.8482,1.8875,1.8868,1.8444,1.8923,1.9284,1.9427,1.964,2.0088,2.0773,2.1393,2.1907,2.2359,2.1857,2.1895,2.2445,2.3003,2.3348,2.3601,2.525,2.5663,2.5516,2.6831,2.7248,2.7288,-0.6437,-0.6437,-0.6437,-0.6437,-0.6437,-0.6437,-0.6437,-0.6437,-0.6437,-0.6437,-0.6437,-0.6437,-0.6437,-0.6437,-0.6437,-0.6437,-0.6239,-0.6039,-0.6042,-0.5839,-0.5536,-0.534,-0.524,-0.5129,-0.4906,-0.4731,-0.4601,-0.4434,-0.4344,-0.43,-0.43,-0.43,-0.3941,-0.3226,-0.2956,-0.2508,-0.17,-0.0713,-0.0268,-0.0179,0.0714,0.1251,0.1525,0.1705,0.2064,0.2519,0.2561,0.2732,0.2875,0.2875,0.2875,0.2875,0.2875,0.3409,0.4045,0.4199,0.4854,0.5697,0.5815,0.6578,0.7343,0.7515,0.8112,0.8437,0.756,0.8098,0.8753,0.8753,0.8914,0.8995,0.9031,0.8889,0.8751,0.871,0.9235,1.0014,1.107,1.2076,1.3187,1.4469,1.4621,1.4678,1.4838,1.4553,1.4704,1.5427,1.5684,1.6335,1.7286,1.782,1.8202,1.8482,1.8741,1.889,1.892,1.9596,1.9727,1.9438,2.0341,2.1163,2.1825,2.2452,2.2849,2.289,2.2824,2.2832,2.2985,2.3552,2.4435,2.5294,2.5221,2.5775,2.6557,2.6603,2.6296,2.5997,-0.6437,-0.6437,-0.6437,-0.6437,-0.6437,-0.6437,-0.6437,-0.6437,-0.6437,-0.6437,-0.6437,-0.6437,-0.6437,-0.6437,-0.6337,-0.6239,-0.5939,-0.5739,-0.5641,-0.5438,-0.5338,-0.5037,-0.5037,-0.4734,-0.4029,-0.3919,-0.4111,-0.45,-0.4453,-0.4201,-0.3673,-0.3709,-0.3165,-0.2149,-0.1702,-0.1254,-0.0628,0.0272,0.0814,0.0898,0.1361,0.181,0.2157,0.2178,0.2368,0.2739,0.2796,0.2891,0.2958,0.2958,0.3325,0.3692,0.3692,0.4426,0.5259,0.5313,0.607,0.6845,0.6979,0.7638,0.8396,0.8635,0.9026,0.9232,0.8665,0.893,0.9218,0.9218,0.9157,0.9125,0.9206,0.9435,0.9639,0.9457,1.0332,1.1261,1.2174,1.293,1.3789,1.4999,1.5022,1.4945,1.4874,1.5178,1.5615,1.6193,1.6845,1.7478,1.8297,1.874,1.8884,1.8813,1.8998,1.909,1.9075,1.9781,2.0158,2.0221,2.1112,2.1928,2.2555,2.2944,2.3078,2.3078,2.3078,2.3107,2.321,2.4104,2.4847,2.548,2.551,2.5716,2.6088,2.6308,2.6363,2.6365,-0.6437,-0.6437,-0.6437,-0.6437,-0.6437,-0.6437,-0.6437,-0.6437,-0.6437,-0.6437,-0.6437,-0.6337,-0.6337,-0.6337,-0.6137,-0.5942,-0.5639,-0.5438,-0.524,-0.514,-0.4937,-0.4533,-0.4533,-0.4029,-0.2922,-0.2877,-0.3217,-0.4115,-0.4005,-0.355,-0.2613,-0.2667,-0.22,-0.1164,-0.0361,0.009,0.0271,0.1199,0.1659,0.1816,0.1848,0.2118,0.2544,0.2589,0.279,0.2982,0.3042,0.3255,0.3349,0.3337,0.3996,0.4847,0.4847,0.5601,0.6455,0.6475,0.724,0.8033,0.8186,0.8714,0.9259,0.9555,0.9514,0.9401,0.9401,0.9401,0.9401,0.9401,0.9287,0.923,0.9376,1.0094,1.0546,1.0381,1.1478,1.2598,1.3034,1.373,1.4338,1.5097,1.5257,1.5321,1.4969,1.5644,1.6379,1.7022,1.7703,1.8425,1.9321,1.9565,1.9511,1.9344,1.9464,1.9558,1.9504,2.0215,2.0815,2.1452,2.2133,2.2653,2.3078,2.3078,2.3078,2.3078,2.3078,2.3145,2.3298,2.4523,2.5053,2.5233,2.5893,2.5921,2.5698,2.6293,2.6793,2.718,-0.6437,-0.6437,-0.6437,-0.6437,-0.6437,-0.6437,-0.6437,-0.6437,-0.6437,-0.6437,-0.6437,-0.6337,-0.6042,-0.5839,-0.5737,-0.5636,-0.5438,-0.524,-0.524,-0.4937,-0.4433,-0.3425,-0.3425,-0.2922,-0.1815,-0.181,-0.1891,-0.1952,-0.1824,-0.1692,-0.1564,-0.1596,-0.1022,-0.018,0.0,0.0562,0.1292,0.1695,0.1897,0.1893,0.2184,0.2371,0.2647,0.2654,0.2846,0.3045,0.3105,0.371,0.4475,0.4399,0.5128,0.5978,0.5978,0.6641,0.7513,0.7634,0.835,0.9164,0.9343,0.9473,0.9567,0.9616,0.9608,0.9592,0.9592,0.9592,0.9592,0.9592,0.9571,0.9563,0.9587,1.0303,1.082,1.0792,1.247,1.3773,1.3673,1.4832,1.5611,1.5413,1.5347,1.5416,1.5372,1.544,1.6144,1.7692,1.763,1.8213,1.9749,1.9649,1.965,1.9807,1.992,2.0448,2.1283,2.1936,2.2391,2.2759,2.3416,2.3492,2.3078,2.3078,2.3078,2.3078,2.3078,2.3088,2.3191,2.4469,2.5322,2.5835,2.6465,2.6992,2.7341,2.7174,2.6932,2.6841,-0.6437,-0.6437,-0.6437,-0.6437,-0.6437,-0.6458,-0.6526,-0.648,-0.6361,-0.6329,-0.6181,-0.6039,-0.5839,-0.5539,-0.5338,-0.5338,-0.5138,-0.4736,-0.413,-0.3929,-0.3425,-0.2318,-0.2318,-0.1814,-0.0706,-0.0706,-0.0402,0.0199,-0.0889,-0.1162,-0.0564,-0.0575,-0.0095,0.0836,0.0851,0.1234,0.1697,0.1924,0.212,0.2385,0.2508,0.2695,0.2957,0.2893,0.3003,0.3205,0.3857,0.4379,0.4866,0.5408,0.6365,0.7243,0.7243,0.7928,0.8821,0.8792,0.9209,0.9527,0.9608,0.9628,0.9628,0.9628,0.9628,0.9628,0.9628,0.9628,0.9628,0.9628,1.0113,1.0498,1.0498,1.1783,1.2729,1.2581,1.405,1.507,1.4865,1.5655,1.6184,1.5987,1.595,1.6048,1.6362,1.6841,1.7582,1.8665,1.904,1.9493,2.0273,2.0269,2.0297,2.0259,2.0386,2.0617,2.0917,2.2058,2.2692,2.2815,2.3907,2.3991,2.3078,2.3078,2.3078,2.3078,2.3078,2.3471,2.4208,2.4781,2.5771,2.6862,2.6395,2.6505,2.6784,2.6376,2.6381,2.6669]},{"header":{"parameterUnit":"m.s-1","parameterCategory":1,"la1":30.6,"la2":28.766,"lo1":-90.7593,"lo2":-88.6598,"dy":0.0162,"dx":0.0183,"nx":116,"ny":114,"refTime":"2024-05-09T00:00:00:Z","depth":0,"parameterNumber":3,"parameterNumberName":"V-component_of_WINDS"},"data":[0.0,0.0,0.0,0.0,0.0,0.0,0.0,0.0,0.0,0.0,0.0,0.0,0.0,0.0,0.0,0.0,0.0,0.0,0.0,0.0,0.0,0.0,0.0,0.0,0.0,0.0,0.0,0.0,0.0,0.0,0.0,0.0,0.0,0.0,0.0,0.0,0.0,0.0,0.0,0.0,0.0,0.0,0.0,0.0,0.0,0.0,0.0,0.0,0.0,0.0,0.0,0.0,0.0,0.0,0.0,0.0,0.0,0.0,0.0,0.0,0.0,0.0,0.0,0.0,0.0,0.0,0.0,0.0,0.0,0.0,0.0,0.0,0.0,0.0,0.0,0.0,0.0,0.0,0.0,0.0,0.0,0.0,0.0,0.0,0.0,0.0,0.0,0.0,0.0,0.0,0.0,0.0,0.0,0.0,0.0,0.0,0.0,0.0,0.0,0.0,0.0,0.0,0.0,0.0,0.0,0.0,0.0,0.0,0.0,0.0,0.0,0.0,0.0,0.0,0.0,0.0,0.0,0.0,0.0,0.0,0.0,0.0,0.0,0.0,0.0,0.0,0.0,0.0,0.0,0.0,0.0,0.0,0.0,0.0,0.0,0.0,0.0,0.0,0.0,0.0,0.0,0.0,0.0,0.0,0.0,0.0,0.0,0.0,0.0,0.0,0.0,0.0,0.0,0.0,0.0,0.0,0.0,0.0,0.0,0.0,0.0,0.0,0.0,0.0,0.0,0.0,0.0,0.0,0.0,0.0,0.0,0.0,0.0,0.0,0.0,0.0,0.0,0.0,0.0,0.0,0.0,0.0,0.0,0.0,0.0,0.0,0.0,0.0,0.0,0.0,0.0,0.0,0.0,0.0,0.0,0.0,0.0,0.0,0.0,0.0,0.0,0.0,0.0,0.0,0.0,0.0,0.0,0.0,0.0,0.0,0.0,0.0,0.0,0.0,0.0,0.0,0.0,0.0,0.0,0.0,0.0,0.0,0.0,0.0,0.0,0.0,0.0,0.0,0.0,0.0,0.0,0.0,0.0,0.0,0.0,0.0,0.0,0.0,0.0,0.0,0.0,0.0,0.0,0.0,0.0,0.0,0.0,0.0,0.0,0.0,0.0,0.0,0.0,0.0,0.0,0.0,0.0,0.0,0.0,0.0,0.0,0.0,0.0,0.0,0.0,0.0,0.0,0.0,0.0,0.0,0.0,0.0,0.0,0.0,0.0,0.0,0.0,0.0,0.0,0.0,0.0,0.0,0.0,0.0,0.0,0.0,0.0,0.0,0.0,0.0,0.0,0.0,0.0,0.0,0.0,0.0,0.0,0.0,0.0,0.0,0.0,0.0,0.0,0.0,0.0,0.0,0.0,0.0,0.0,0.0,0.0,0.0,0.0,0.0,0.0,0.0,0.0,0.0,0.0,0.0,0.0,0.0,0.0,0.0,0.0,0.0,0.0,0.0,0.0,0.0,0.0,0.0,0.0,0.0,0.0,0.0,0.0,0.0,0.0,0.0,0.0,0.0,0.0,0.0,0.0,0.0,0.0,0.0,0.0,0.0,0.0,0.0,0.0,0.0,0.0,0.0,0.0,0.0,0.0,0.0,0.0,0.0,0.0,0.0,0.0,0.0,0.0,0.0,0.0,0.0,0.0,0.0,0.0,0.0,0.0,0.0,0.0,0.0,0.0,0.0,0.0,0.0,0.0,0.0,0.0,0.0,0.0,0.0,0.0,0.0,0.0,0.0,0.0,0.0,0.0,0.0,0.0,0.0,0.0,0.0,0.0,0.0,0.0,0.0,0.0,0.0,0.0,0.0,0.0,0.0,0.0,0.0,0.0,0.0,0.0,0.0,0.0,0.0,0.0,0.0,0.0,0.0,0.0,0.0,0.0,0.0,0.0,0.0,0.0,0.0,0.0,0.0,0.0,0.0,0.0,0.0,0.0,0.0,0.0,0.0,0.0,0.0,0.0,0.0,0.0,0.0,0.0,0.0,0.0,0.0,0.0,0.0,0.0,0.0,0.0,0.0,0.0,0.0,0.0,0.0,0.0,0.0,0.0,0.0,0.0,0.0,0.0,0.0,0.0,0.0,0.0,0.0,0.0,0.0,0.0,0.0,0.0,0.0,0.0,0.0,0.0,0.0,0.0,0.0,0.0,0.0,0.0,0.0,0.0,0.0,0.0,0.0,0.0,0.0,0.0,0.0,0.0,0.0,0.0,0.0,0.0,0.0,0.0,0.0,0.0,0.0,0.0,0.0,0.0,0.0,0.0,0.0,0.0,0.0,0.0,0.0,0.0,0.0,0.0,0.0,0.0,0.0,0.0,0.0,0.0,0.0,0.0,0.0,0.0,0.0,0.0,0.0,0.0,0.0,0.0,0.0,0.0,0.0,0.0,0.0,0.0,0.0,0.0,0.0,0.0,0.0,0.0,0.0,0.0,0.0,0.0,0.0,0.0,0.0,0.0,0.0,0.0,0.0,0.0,0.0,0.0,0.0,0.0,0.0,0.0,0.0,0.0,0.0,0.0,0.0,0.0,0.0,0.0,0.0,0.0,0.0,0.0,0.0,0.0,0.0,0.0,0.0,0.0,0.0,0.0,0.0,0.0,0.0,0.0,0.0,0.0,0.0,0.0,0.0,0.0,0.0,0.0,0.0,0.0,0.0,0.0,0.0,0.0,0.0,0.0,0.0,0.0,0.0,0.0,0.0,0.0,0.0,0.0,0.0,0.0,0.0,0.0,0.0,0.0,0.0,0.0,0.0,0.0,0.0,0.0,0.0,0.0,0.0,0.0,0.0,0.0,0.0,0.0,0.0,0.0,0.0,0.0,0.0,0.0,0.0,0.0,0.0,0.0,0.0,0.0,0.0,0.0,0.0,0.0,0.0,0.0,0.0,0.0,0.0,0.0,0.0,0.0,0.0,0.0,0.0,0.0,0.0,0.0,0.0,0.0,0.0,0.0,0.0,0.0,0.0,0.0,0.0,0.0,0.0,0.0,0.0,0.0,0.0,0.0,0.0,0.0,0.0,0.0,0.0,0.0,0.0,0.0,0.0,0.0,0.0,0.0,0.0,0.0,0.0,0.0,0.0,0.0,0.0,0.0,0.0,0.0,0.0,0.0,0.0,0.0,0.0,0.0,0.0,0.0,0.0,0.0,0.0,0.0,0.0,0.0,0.0,0.0,0.0,0.0,0.0,0.0,0.0,0.0,0.0,0.0,0.0,0.0,0.0,0.0,0.0,0.0,0.0,0.0,0.0,0.0,0.0,0.0,0.0,0.0,0.0,0.0,0.0,0.0,0.0,0.0,0.0,0.0,0.0,0.0,0.0,0.0,0.0,0.0,0.0,0.0,0.0,0.0,0.0,0.0,0.0,0.0,0.0,0.0,0.0,0.0,0.0,0.0,0.0,0.0,0.0,0.0,0.0,0.0,0.0,0.0,0.0,0.0,0.0,0.0,0.0,0.0,0.0,0.0,0.0,0.0,0.0,0.0,0.0,0.0,0.0,0.0,0.0,0.0,0.0,0.0,0.0,0.0,0.0,0.0,0.0,0.0,0.0,0.0,0.0,0.0,0.0,0.0,0.0,0.0,0.0,0.0,0.0,0.0,0.0,0.0,0.0,0.0,0.0,0.0,0.0,0.0,0.0,0.0,0.0,0.0,0.0,0.0,0.0,0.0,0.0,0.0,0.0,0.0,0.0,0.0,0.0,0.0,0.0,0.0,0.0,0.0,0.0,0.0,0.0,0.0,0.0,0.0,0.0,0.0,0.0,0.0,0.0,0.0,0.0,0.0,0.0,0.0,0.0,0.0,0.0,0.0,0.0,0.0,0.0,0.0,0.0,0.0,0.0,0.0,0.0,0.0,0.0,0.0,0.0,0.0,0.0,0.0,0.0,0.0,0.0,0.0,0.0,0.0,0.0,0.0,0.0,0.0,0.0,0.0,0.0,0.0,0.0,0.0,0.0,0.0,0.0,0.0,0.0,0.0,0.0,0.0,0.0,0.0,0.0,0.0,0.0,0.0,0.0,0.0,0.0,0.0,0.0,0.0,0.0,0.0,0.0,0.0,0.0,0.0,0.0,0.0,0.0,0.0,0.0,0.0,0.0,0.0,0.0,0.0,0.0,0.0,0.0,0.0,0.0,0.0,0.0,0.0,0.0,0.0,0.0,0.0,0.0,0.0,0.0,0.0,0.0,0.0,0.0,0.0,0.0,0.0,0.0,0.0,0.0,0.0,0.0,0.0,0.0,0.0,0.0,0.0,0.0,0.0,0.0,0.0,0.0,0.0,0.0,0.0,0.0,0.0,0.0,0.0,0.0,0.0,0.0,0.0,0.0,0.0,0.0,0.0,0.0,0.0,0.0,0.0,0.0,0.0,0.0,0.0,0.0,0.0,0.0,0.0,0.0,0.0,0.0,0.0,0.0,0.0,0.0,0.0,0.0,0.0,0.0,0.0,0.0,0.0,0.0,0.0,0.0,0.0,0.0,0.0,0.0,0.0,0.0,0.0,0.0,0.0,0.0,0.0,0.0,0.0,0.0,0.0,0.0,0.0,0.0,0.0,0.0,0.0,0.0,0.0,0.0,0.0,0.0,0.0,0.0,0.0,0.0,0.0,0.0,0.0,0.0,0.0,0.0,0.0,0.0,0.0,0.0,0.0,0.0,0.0,0.0,0.0,0.0,0.0,0.0,0.0,0.0,0.0,0.0,0.0,0.0,0.0,0.0,0.0,0.0,0.0,0.0,0.0,0.0,0.0,0.0,0.0,0.0,0.0,0.0,0.0,0.0,0.0,0.0,0.0,0.0,0.0,0.0,0.0,0.0,0.0,0.0,0.0,0.0,0.0,0.0,0.0,0.0,0.0,0.0,0.0,0.0,0.0,0.0,0.0,0.0,0.0,0.0,0.0,0.0,0.0,0.0,0.0,0.0,0.0,0.0,0.0,0.0,0.0,0.0,0.0,0.0,0.0,0.0,0.0,0.0,0.0,0.0,0.0,0.0,0.0,0.0,0.0,0.0,0.0,0.0,0.0,0.0,0.0,0.0,0.0,0.0,0.0,0.0,0.0,0.0,0.0,0.0,0.0,0.0,0.0,0.0,0.0,0.0,0.0,0.0,0.0,0.0,0.0,0.0,0.0,0.0,0.0,0.0,0.0,0.0,0.0,0.0,0.0,0.0,0.0,0.0,0.0,0.0,0.0,0.0,0.0,0.0,0.0,0.0,0.0,0.0,0.0,0.0,0.0,0.0,0.0,0.0,0.0,0.0,0.0,0.0,0.0,0.0,0.0,0.0,0.0,0.0,0.0,0.0,0.0,0.0,0.0,0.0,0.0,0.0,0.0,0.0,0.0,0.0,0.0,0.0,0.0,0.0,0.0,0.0,0.0,0.0,0.0,0.0,0.0,0.0,0.0,0.0,0.0,0.0,0.0,0.0,0.0,0.0,0.0,0.0,0.0,0.0,0.0,0.0,0.0,0.0,0.0,0.0,0.0,0.0,0.0,0.0,0.0,0.0,0.0,0.0,0.0,0.0,0.0,0.0,0.0,0.0,0.0,0.0,0.0,0.0,0.0,0.0,0.0,0.0,0.0,0.0,0.0,0.0,0.0,0.0,0.0,0.0,0.0,0.0,0.0,0.0,0.0,0.0,0.0,0.0,0.0,0.0,0.0,0.0,0.0,0.0,0.0,0.0,0.0,0.0,0.0,0.0,0.0,0.0,0.0,0.0,0.0,0.0,0.0,0.0,0.0,0.0,0.0,0.0,0.0,0.0,0.0,0.0,0.0,0.0,0.0,0.0,0.0,0.0,0.0,0.0,0.0,0.0,0.0,0.0,0.0,0.0,0.0,0.0,0.0,0.0,0.0,0.0,0.0,0.0,0.0,0.0,0.0,0.0,0.0,0.0,0.0,0.0,0.0,0.0,0.0,0.0,0.0,0.0,0.0,0.0,0.0,0.0,0.0,0.0,0.0,0.0,0.0,0.0,0.0,0.0,0.0,0.0,0.0,0.0,0.0,0.0,0.0,0.0,0.0,0.0,0.0,0.0,0.0,0.0,0.0,0.0,0.0,0.0,0.0,0.0,0.0,0.0,0.0,0.0,0.0,0.0,0.0,0.0,-2.806,0.0,0.0,0.0,0.0,0.0,0.0,0.0,0.0,0.0,0.0,0.0,0.0,0.0,0.0,0.0,0.0,0.0,0.0,0.0,0.0,0.0,0.0,0.0,0.0,0.0894,0.0,0.0,0.0,-0.0617,-0.2076,0.0,0.0,0.0,0.0,0.0,-0.4765,-0.5973,-0.7004,-0.7871,-0.8249,-0.8778,-0.9465,-0.9157,-0.8878,-0.8698,0.0,0.0,0.0,0.0,0.0,0.0,0.0,0.0,0.0,0.0,0.0,0.0,0.0,0.0,0.0,0.0,0.0,0.0,0.0,0.0,0.0,0.0,0.0,0.0,0.0,0.0,0.0,0.0,0.0,0.0,0.0,0.0,0.0,0.0,0.0,0.0,0.0,0.0,0.0,0.0,0.0,0.0,0.0,0.0,0.0,0.0,0.0,0.0,0.0,0.0,0.0,0.0,0.0,0.0,0.0,0.0,0.0,0.0,0.0,0.0,0.0,0.0,0.0,0.0,0.0,0.0,0.0,0.0,0.0,0.0,0.0,-2.814,0.0,0.0,0.0,0.0,0.0,0.0,0.0,0.0,0.0,0.0,0.0,0.0,0.0,0.0,0.0,0.0,0.0,0.0,0.0,0.0,0.0,0.4494,0.4507,0.19,0.0112,0.0,0.0,-0.1065,-0.3543,-0.4228,0.0,0.0,0.0,-0.5576,-0.5269,-0.6848,-0.7877,-0.829,-0.904,-0.9792,-1.051,-1.141,-1.1523,-1.1089,-1.1251,0.0,0.0,0.0,0.0,0.0,0.0,0.0,0.0,0.0,0.0,0.0,0.0,0.0,0.0,0.0,0.0,0.0,0.0,0.0,0.0,0.0,0.0,0.0,0.0,0.0,0.0,0.0,0.0,0.0,0.0,0.0,0.0,0.0,0.0,0.0,0.0,0.0,0.0,0.0,0.0,0.0,0.0,0.0,0.0,0.0,0.0,0.0,0.0,0.0,0.0,0.0,0.0,0.0,0.0,0.0,0.0,0.0,0.0,0.0,0.0,0.0,0.0,0.0,-2.8674,-2.9079,-2.9499,-2.987,-3.0211,-3.0458,-2.8998,-2.8577,-2.8987,-2.8847,0.0,0.0,0.0,0.0,0.0,0.0,0.0,0.0,0.0,0.0,0.0,0.0,0.0,0.0,0.0,0.0,0.0,0.0,0.0,0.4525,0.4484,0.2286,0.0557,0.0056,0.0,-0.0168,-0.0561,-0.3042,-0.4462,-0.4327,-0.5495,-0.6315,-0.6776,-0.7408,-0.815,-0.9047,-0.9858,-1.0721,-1.1704,-1.3138,-1.4134,-1.4563,-1.3306,-1.3013,-1.358,0.0,0.0,0.0,0.0,0.0,0.0,0.0,0.0,0.0,0.0,0.0,0.0,0.0,0.0,0.0,0.0,0.0,0.0,0.0,0.0,0.0,0.0,0.0,0.0,0.0,0.0,0.0,0.0,0.0,0.0,0.0,0.0,0.0,0.0,0.0,0.0,0.0,0.0,0.0,0.0,0.0,-2.7848,-2.696,0.0,0.0,0.0,0.0,0.0,0.0,0.0,0.0,0.0,0.0,0.0,0.0,0.0,-2.3478,-2.5503,-2.7223,-2.8334,-2.8907,-2.9626,-2.9517,-2.8701,-2.938,-3.0077,-3.0762,-3.0855,0.0,-3.0055,-2.9776,0.0,0.0,0.0,0.0,0.0,0.0,0.0,0.0,0.0,0.0,0.0,0.0,0.0,0.0,0.0,0.0,0.0,0.0,0.0,0.0,0.0,0.3577,0.2122,0.0167,0.0336,0.0336,0.0,-0.2525,-0.4051,-0.4203,-0.4893,-0.5873,-0.7214,-0.7943,-0.8876,-0.9969,-1.0813,-1.1787,-1.2938,-1.4364,-1.5615,-1.6645,-1.6797,-1.6452,-1.583,-1.615,0.0,0.0,0.0,0.0,0.0,0.0,0.0,0.0,0.0,0.0,0.0,0.0,0.0,0.0,0.0,0.0,0.0,0.0,0.0,0.0,0.0,0.0,0.0,0.0,0.0,0.0,0.0,0.0,0.0,0.0,0.0,0.0,0.0,0.0,0.0,0.0,0.0,0.0,0.0,-2.6674,-2.6234,-2.6052,-2.5695,-2.484,0.0,0.0,0.0,0.0,0.0,0.0,0.0,0.0,0.0,-2.4259,-2.5615,-2.6902,-2.7982,-2.8727,-2.9491,-3.041,-3.0033,-3.0135,-3.0721,-3.1078,-3.1571,-3.2189,-3.2628,-3.2557,-3.2043,-3.0845,-2.9937,-2.9257,0.0,0.0,0.0,0.0,-3.2098,-3.2777,0.0,0.0,0.0,0.0,0.0,0.0,0.0,0.0,0.0,0.0,0.0,0.0,0.4525,0.4484,0.3357,0.0502,0.0616,0.0728,0.0279,-0.2183,-0.3699,-0.3904,-0.4306,-0.5504,-0.7711,-0.8501,-0.9607,-1.1048,-1.1935,-1.2996,-1.4262,-1.6026,-1.7376,-1.8503,-2.0157,-1.9885,-1.8168,-1.8667,-1.8962,-1.9114,0.0,0.0,0.0,0.0,0.0,0.0,0.0,0.0,0.0,0.0,0.0,0.0,0.0,0.0,0.0,0.0,0.0,0.0,0.0,0.0,0.0,0.0,0.0,0.0,0.0,0.0,0.0,0.0,0.0,0.0,0.0,0.0,0.0,0.0,0.0,0.0,0.0,-2.4851,-2.4761,-2.512,-2.4872,-2.3636,0.0,0.0,0.0,0.0,0.0,0.0,-2.2643,-2.3224,-2.4708,-2.7148,-2.9024,-2.9953,-2.9944,-3.0369,-3.0927,-3.1642,-3.0563,-3.0731,-3.2003,-3.2322,-3.2625,-3.2986,-3.361,-3.3793,-3.3578,-3.1998,-3.0784,-2.9868,-2.9974,-2.984,-2.9773,-3.1326,-3.2169,-3.2667,0.0,0.0,0.0,0.0,0.0,0.0,0.0,0.0,0.0,0.0,0.0,0.4501,0.4501,0.4522,0.3516,0.1058,0.0895,0.0896,0.0838,-0.1958,-0.3583,-0.36,-0.4184,-0.5833,-0.8684,-0.9016,-1.0163,-1.2201,-1.3392,-1.4529,-1.5658,-1.8552,-2.0067,-2.0448,-2.2899,-2.2512,-2.0119,-2.0885,-2.1146,-2.1,-2.1545,0.0,0.0,0.0,0.0,0.0,0.0,0.0,0.0,0.0,0.0,0.0,0.0,0.0,0.0,0.0,0.0,0.0,0.0,0.0,0.0,0.0,0.0,0.0,0.0,0.0,0.0,0.0,0.0,0.0,0.0,0.0,0.0,0.0,0.0,0.0,0.0,0.0,0.0,-2.3595,-2.2046,0.0,0.0,0.0,0.0,-2.3688,-2.395,-2.3979,-2.4008,-2.6077,-2.8344,-3.0693,-3.0827,-3.0897,-3.0911,-3.2412,-3.2746,-3.2025,-3.1639,-3.1182,-3.0828,-3.1734,-3.213,-3.2241,-3.3403,-3.3882,-3.3822,-3.3245,-3.2451,-3.1493,-3.048,-2.9953,-2.9799,-2.9906,-3.0578,-3.1593,0.0,0.0,0.0,0.0,0.0,0.5018,0.5014,0.5014,0.5014,0.5014,0.5014,0.5014,0.5014,0.503,0.4242,0.2225,0.1339,0.0894,0.0892,-0.1173,-0.279,-0.3545,-0.5601,-0.7515,-0.9256,-1.0226,-1.1115,-1.1837,-1.3132,-1.4601,-1.6195,-1.7354,-1.9174,-2.1512,-2.293,-2.3537,-2.3431,-2.2802,-2.2451,-2.2229,-2.2033,-2.2372,0.0,0.0,0.0,0.0,0.0,0.0,0.0,0.0,0.0,0.0,0.0,0.0,0.0,0.0,0.0,0.0,0.0,0.0,0.0,0.0,0.0,0.0,0.0,0.0,0.0,0.0,0.0,0.0,0.0,0.0,0.0,0.0,0.0,0.0,0.0,0.0,0.0,-2.3839,-2.14,0.0,-2.0096,-2.0062,-2.1208,-2.3982,-2.5333,-2.6114,-2.6058,-2.685,-2.767,-2.8562,-3.0163,-3.1023,-3.1021,-3.1575,-3.1303,-3.0261,-3.0588,-3.0527,-3.028,-3.1055,-3.1522,-3.1721,-3.278,-3.3503,-3.3917,-3.3697,-3.3086,-3.2228,-3.2217,-3.1775,-3.1117,-3.1515,-3.1766,-3.1919,0.0,0.0,0.0,0.4772,0.5058,0.5281,0.5277,0.5289,0.5297,0.5293,0.5297,0.5317,0.5314,0.5282,0.4823,0.368,0.2695,0.1785,0.0947,-0.0781,-0.2341,-0.3542,-0.6376,-0.8427,-0.9592,-1.137,-1.2521,-1.3,-1.4806,-1.5982,-1.6639,-1.7548,-1.925,-2.165,-2.372,-2.5062,-2.5782,-2.5044,-2.4481,-2.4037,-2.3693,-2.3788,-2.4144,0.0,0.0,0.0,0.0,0.0,0.0,0.0,0.0,0.0,0.0,0.0,0.0,0.0,0.0,0.0,0.0,0.0,0.0,0.0,0.0,0.0,0.0,0.0,0.0,0.0,0.0,0.0,0.0,0.0,0.0,0.0,0.0,0.0,0.0,-2.1823,-2.2702,-2.3876,-2.2181,-2.1328,-2.2215,-2.2335,-2.2864,-2.4232,-2.5546,-2.6252,-2.6258,-2.6853,-2.7192,-2.7196,-2.9693,-3.097,-3.1014,-3.1003,-3.0197,-2.869,-2.9105,-2.9602,-3.0047,-3.0425,-3.0822,-3.1334,-3.2231,-3.2958,-3.3607,-3.3797,-3.3534,-3.299,-3.3208,-3.2502,-3.1445,-3.1696,-3.1559,-3.1191,0.0,0.4941,0.5311,0.537,0.5425,0.5366,0.5295,0.5324,0.5289,0.5277,0.5344,0.5353,0.5327,0.533,0.5318,0.5327,0.4851,0.3516,0.1113,-0.0781,-0.2341,-0.3655,-0.6367,-0.841,-0.9567,-1.2223,-1.434,-1.5897,-1.8426,-1.8803,-1.714,-1.9477,-2.0623,-2.0975,-2.5449,-2.7166,-2.677,-2.7406,-2.7237,-2.6498,-2.6629,-2.6054,-2.5219,0.0,0.0,0.0,0.0,0.0,0.0,0.0,0.0,0.0,0.0,0.0,0.0,0.0,0.0,0.0,0.0,0.0,0.0,0.0,0.0,0.0,0.0,0.0,0.0,0.0,0.0,0.0,0.0,0.0,0.0,0.0,0.0,0.0,-2.1415,-2.1388,-2.1989,-2.3712,-2.4294,-2.454,-2.4464,-2.448,-2.4482,-2.4508,-2.4492,-2.4477,-2.4462,-2.6174,-2.7115,-2.7217,-2.9638,-3.0958,-3.0999,-3.0969,-2.977,-2.7519,-2.7507,-2.8407,-3.0038,-2.9889,-3.0237,-3.1029,-3.1751,-3.2382,-3.292,-3.3591,-3.3866,-3.379,-3.3243,-3.21,-3.0612,-3.0221,-2.973,-2.9364,0.5008,0.5217,0.5833,0.7518,0.7817,0.7285,0.5558,0.5287,0.5295,0.5303,0.6055,0.6251,0.5368,0.5795,0.6215,0.6551,0.5695,0.4249,0.2343,-0.0335,-0.2896,-0.537,-0.7041,-0.8416,-0.9566,-1.2243,-1.5115,-1.8193,-1.9214,-1.96,-1.9433,-2.1047,-2.2199,-2.3079,-2.6676,-2.689,-2.4757,-2.6817,-2.8052,-2.8567,-2.8612,-2.7523,-2.5941,0.0,0.0,0.0,0.0,0.0,0.0,0.0,0.0,0.0,0.0,0.0,0.0,0.0,0.0,0.0,0.0,0.0,0.0,0.0,0.0,0.0,0.0,0.0,0.0,0.0,0.0,0.0,0.0,0.0,0.0,0.0,-2.1886,-2.1997,-2.206,-2.2626,-2.3284,-2.394,-2.4664,-2.4949,-2.4554,-2.4513,-2.4493,-2.4504,-2.4503,-2.4535,-2.4524,-2.4956,-2.5804,-2.7198,-2.8775,-3.0086,-3.097,-3.0151,-2.9019,-2.7463,-2.7845,-2.8226,-2.8652,-2.9463,-3.0115,-3.0703,-3.148,-3.19,-3.2148,-3.3087,-3.3051,-3.2515,-3.3724,-3.3478,-3.233,-3.1781,-3.0543,-2.9134,0.6681,0.6773,0.7219,0.8571,0.8804,0.8337,0.6988,0.6372,0.604,0.6044,0.6691,0.6856,0.6128,0.642,0.6783,0.7053,0.5571,0.4177,0.313,0.0,-0.3113,-0.6059,-0.7558,-0.9153,-1.0961,-1.3486,-1.6225,-1.9111,-1.9656,-2.0362,-2.1167,-2.1961,-2.2832,-2.3884,-2.5551,-2.5273,-2.3707,-2.6512,-2.8355,-2.9398,-2.9402,-2.8655,-2.753,-2.7518,-2.7699,-2.7978,-2.8125,-2.8021,-2.8038,-2.9494,0.0,0.0,0.0,0.0,0.0,0.0,0.0,0.0,0.0,0.0,0.0,0.0,0.0,0.0,0.0,0.0,0.0,0.0,0.0,0.0,0.0,0.0,0.0,0.0,-2.2337,-2.2661,-2.2644,-2.3177,-2.3694,-2.3907,-2.444,-2.4409,-2.3414,-2.3973,-2.4409,-2.4533,-2.4516,-2.4498,-2.4501,-2.4523,-2.4955,-2.6051,-2.7162,-2.8539,-3.0202,-2.9625,-2.8686,-2.7485,-2.7793,-2.7974,-2.8146,-2.8821,-2.9498,-3.0208,-3.0602,-3.0964,-3.1397,-3.1998,-3.1795,0.0,0.0,0.0,0.0,0.0,-2.9265,-2.8335,0.8844,0.8798,0.8798,0.8818,0.8871,0.8877,0.8884,0.8025,0.7405,0.7399,0.7385,0.7323,0.7114,0.7093,0.7148,0.7188,0.4964,0.3432,0.313,0.0,-0.3051,-0.5905,-0.7641,-0.9894,-1.282,-1.5257,-1.7286,-1.8947,-1.9782,-2.0905,-2.2297,-2.2269,-2.2787,-2.3692,-2.3252,-2.3267,-2.3804,-2.6531,-2.8364,-2.9435,-2.9769,-2.9702,-2.9368,-2.896,-2.8847,-2.8855,-2.8463,-2.8263,-2.8338,-2.9005,0.0,0.0,0.0,0.0,0.0,0.0,0.0,0.0,0.0,0.0,0.0,0.0,0.0,0.0,0.0,0.0,0.0,0.0,0.0,0.0,0.0,0.0,0.0,0.0,-2.2786,-2.3155,-2.3223,-2.3277,-2.333,-2.3527,-2.3774,-2.3309,-2.191,-2.296,-2.3921,-2.426,-2.4319,-2.4368,-2.4454,-2.4501,0.0,0.0,0.0,-2.6713,-2.8524,-2.89,-2.8422,-2.7384,-2.7434,-2.7693,-2.8103,-2.8146,-2.8725,-2.9619,-2.9533,-2.9853,-3.0488,-3.0649,-3.0472,-3.0212,-3.2013,-3.1324,-2.9081,-2.7481,-2.7074,-2.7407,0.9116,0.8923,0.8817,0.8775,0.9172,0.9429,0.9465,0.9242,0.9106,0.9136,0.9104,0.8605,0.7246,0.7101,0.73,0.7724,0.521,0.2591,0.0112,-0.1167,-0.2709,-0.4721,-0.6024,-0.8643,-1.2803,-1.5279,-1.7037,-1.814,-1.8948,-2.0374,-2.2294,-2.2029,-2.2392,-2.3204,-2.2923,-2.4282,-2.6854,-2.7441,-2.836,-2.9618,-3.1983,-3.151,-2.9386,-2.9075,-2.8753,-2.842,-2.8326,-2.8049,-2.7763,-2.7955,-2.8366,-2.8812,-2.9064,-2.9441,0.0,0.0,0.0,0.0,0.0,0.0,0.0,0.0,0.0,0.0,0.0,0.0,0.0,0.0,0.0,0.0,0.0,0.0,0.0,-2.3292,-2.3188,-2.3174,-2.4105,-2.2928,-2.2398,-2.3377,-2.2862,-2.2394,-2.2277,-2.1826,-2.1863,-2.2735,-2.295,-2.3377,-2.4196,-2.4433,-2.4511,-2.4514,-2.5062,-2.5352,-2.5359,-2.66,-2.7027,-2.6736,0.0,0.0,-2.7628,-2.8224,-2.857,-2.8694,-2.9183,-2.9298,-2.9244,-2.999,-3.0027,-2.9646,-2.9745,-2.959,-2.9154,-2.7911,-2.7588,-2.7758,0.9999,0.9977,1.0014,0.9995,1.0702,1.1268,1.1243,1.0589,0.9961,0.9666,0.9606,0.9278,0.8456,0.7834,0.7594,0.7866,0.5245,0.2434,-0.0279,-0.1002,-0.2435,-0.4794,-0.6855,-0.946,-1.2803,-1.5027,-1.6734,-1.7877,-1.9295,-2.0665,-2.2069,-2.1881,-2.2283,-2.3099,-2.2954,-2.3771,-2.5393,-2.8461,-3.0278,-3.1172,-3.1909,-3.1217,-2.9711,-2.9436,-2.8815,-2.8067,-2.7933,-2.7754,-2.7595,-2.779,-2.8036,-2.8323,-2.8762,-2.9232,-2.9658,0.0,0.0,0.0,0.0,0.0,0.0,0.0,0.0,0.0,0.0,0.0,0.0,0.0,0.0,-2.31,-2.3428,0.0,-2.3144,-2.3805,-2.3137,-2.2765,-2.3547,-2.2129,-2.1329,-2.2501,-2.1676,-2.0953,-2.0593,-2.0674,-2.0764,-2.0764,-2.1391,-2.2287,-2.3377,-2.3551,-2.3877,-2.4522,-2.4754,-2.4988,-2.5294,-2.5532,-2.6077,-2.698,-2.6854,-2.704,-2.7403,-2.7855,-2.8088,-2.8274,-2.8316,-2.834,-2.836,-2.8288,-2.8264,-2.8188,-2.7542,-2.7613,-2.7997,-2.7118,-2.69,-2.7026,1.0939,1.1277,1.1472,1.136,1.2232,1.2943,1.2884,1.1826,1.0754,1.0167,1.0018,0.9909,0.9806,0.9068,0.8384,0.7931,0.5249,0.2556,0.0167,-0.0557,-0.2166,-0.4995,-0.7913,-1.0319,-1.2243,-1.4428,-1.6232,-1.7638,-1.9677,-2.0973,-2.1517,-2.135,-2.184,-2.2863,-2.2796,-2.2936,-2.3549,-2.8485,-3.1156,-3.1928,-3.098,-3.0034,-2.9186,-2.9197,-2.8574,-2.7628,-2.7372,-2.7183,-2.7073,-2.7388,-2.7589,-2.7824,-2.8297,-2.8879,-2.94,-2.9589,-2.9771,0.0,0.0,0.0,0.0,0.0,0.0,0.0,0.0,-2.468,-2.4569,-2.5433,-2.5634,-2.548,-2.5179,-2.5012,-2.4671,-2.4061,-2.2842,-2.2064,-2.2375,-2.0899,-1.9966,-2.0863,-2.0331,-1.9596,-1.888,-1.9505,-1.9687,-1.9047,-1.9943,-2.1114,-2.2463,-2.2648,-2.3193,-2.4368,-2.4454,-2.4861,-2.5757,-2.5029,-2.5458,-2.7051,-2.6353,-2.6471,-2.7268,-2.7352,-2.7499,-2.7731,-2.7281,-2.7269,-2.7584,-2.6856,-2.671,-2.6839,-2.6038,-2.6091,-2.6559,-2.6114,-2.6026,-2.6187,1.1575,1.2178,1.2491,1.1972,1.2624,1.3086,1.2948,1.2761,1.2435,1.1885,1.1404,1.092,1.0443,1.0705,1.0082,0.8086,0.5253,0.255,0.0167,-0.0559,-0.2003,-0.4484,-0.7343,-0.9249,-0.9977,-1.2987,-1.5257,-1.6653,-1.9155,-2.0386,-2.0441,-1.9752,-2.0304,-2.1947,-2.1703,-2.289,-2.5131,-2.588,-2.7379,-2.9321,-3.0219,-2.8714,-2.6056,-2.7285,-2.7373,-2.6806,-2.6603,-2.5993,-2.5299,-2.5527,-2.6121,-2.6823,-2.7181,-2.8016,-2.8849,-2.8698,-2.8319,-2.778,-2.7138,-2.616,-2.5479,-2.6228,-2.6224,-2.6314,0.0,-2.7717,-2.7891,-2.8414,-2.7552,-2.6917,-2.7642,-2.5565,-2.3924,-2.4296,-2.2533,-2.1167,-2.1221,-1.9314,-1.7978,-1.8364,-1.878,-1.888,-1.8788,-1.8149,-1.7963,-1.8788,-1.9139,-2.0133,-2.1943,-2.2296,-2.3028,-2.4206,-2.4206,-2.4368,-2.47,-2.4638,-2.5082,-2.5942,-2.5912,-2.6333,-2.7323,-2.7066,-2.6797,-2.6489,-2.6314,-2.6483,-2.6837,-2.6958,-2.6903,-2.6701,-2.6379,-2.5949,-2.5567,-2.5696,-2.5864,-2.6026,1.2255,1.2598,1.289,1.3025,1.3546,1.3836,1.3501,1.3337,1.3143,1.2615,1.219,1.1528,1.061,1.0672,0.9971,0.7859,0.5325,0.2699,-0.0056,-0.0681,-0.1758,-0.3597,-0.5389,-0.7187,-0.9102,-1.0739,-1.2684,-1.4832,-1.6473,-1.7246,-1.7308,-1.7888,-1.9144,-2.0999,-2.2433,-2.3422,-2.4133,-2.6023,-2.7112,-2.753,-2.7776,-2.7199,-2.6036,-2.4955,-2.4481,-2.4547,-2.5252,-2.5363,0.0,-2.5125,-2.5492,-2.6002,-2.6179,-2.6825,-2.7547,-2.7701,-2.7791,-2.7667,-2.6934,-2.6732,-2.6689,-2.6759,-2.7243,-2.784,-2.8336,-2.8628,-2.889,-2.919,-2.9174,-2.8961,-2.8417,-2.6635,-2.5066,-2.4661,-2.2067,-2.024,-2.0683,-1.8478,-1.6911,-1.7296,-1.7116,-1.7091,-1.7468,-1.6979,-1.6943,-1.7692,-1.7612,-1.8383,-2.0206,-2.0944,-2.1943,-2.3115,-2.3657,-2.3988,-2.3893,-2.3627,-2.3863,-2.459,-2.4818,-2.5475,-2.6445,-2.6528,-2.6304,-2.5761,-2.5942,-2.6284,-2.6686,-2.6713,-2.6703,-2.6658,-2.6293,-2.5783,-2.5394,-2.568,-2.5901,-2.6026,1.2735,1.292,1.3248,1.3726,1.4351,1.4606,1.4129,1.3884,1.3647,1.3268,1.2783,1.1922,1.0555,1.03,0.9568,0.7888,0.5694,0.313,0.0277,-0.0569,-0.1427,-0.2496,-0.3848,-0.5571,-0.7658,-0.883,-1.049,-1.278,-1.3882,-1.4665,-1.5217,-1.6446,-1.8018,-1.9908,-2.1991,-2.2802,-2.2838,-2.5333,-2.608,-2.5624,-2.5383,-2.5264,-2.4963,-2.2928,-2.2182,-2.2407,-2.396,-2.4477,-2.4448,-2.45,-2.4857,-2.5321,-2.5437,-2.6042,-2.6701,-2.689,-2.7103,-2.7226,-2.6787,-2.7058,-2.7405,-2.7203,-2.7931,-2.8601,-2.8459,-2.8888,-2.9263,-2.9019,-2.9376,-2.9316,-2.8042,-2.6523,-2.5115,-2.442,-2.141,-1.9373,-1.9898,-1.7447,-1.5791,-1.6082,-1.5385,-1.5171,-1.5865,-1.5917,-1.6225,-1.6721,-1.638,-1.6906,-1.856,-1.9397,-2.0615,-2.2136,-2.2766,-2.3242,-2.3449,-2.2869,-2.287,-2.3591,-2.3846,-2.4541,-2.573,-2.6031,-2.5749,-2.5024,-2.5351,-2.5771,-2.6193,-2.6402,-2.6356,-2.6189,-2.6166,-2.5797,-2.524,-2.5621,-2.5844,-2.5937,1.2881,1.3248,1.3621,1.3763,1.4663,1.5197,1.4744,1.4398,1.4129,1.3978,1.3276,1.2141,1.0398,0.9843,0.9299,0.8421,0.644,0.4133,0.1441,-0.0112,-0.0953,-0.1061,-0.3508,-0.4944,-0.5023,-0.7529,-0.9418,-1.0668,-1.2017,-1.3627,-1.5404,-1.562,-1.6787,-1.859,-1.9131,-2.0287,-2.1863,-2.2475,-2.2952,-2.3313,-2.3651,-2.2797,-2.1377,-2.1487,-2.1216,-2.1006,-2.2878,-2.3084,-2.2571,-2.308,-2.3951,-2.4877,-2.5132,-2.5986,-2.6798,-2.6351,-2.5917,-2.5727,-2.642,-2.6466,-2.6616,-2.7773,-2.8195,-2.8192,-2.7825,-2.8675,-2.9275,-2.8152,-2.7533,-2.7035,-2.6561,-2.4482,-2.2903,-2.302,-2.0549,-1.845,-1.8361,-1.6037,-1.4281,-1.4268,-1.3607,-1.3407,-1.4241,-1.4897,-1.5585,-1.619,-1.5676,-1.5973,-1.7509,-1.7846,-1.9179,-2.154,-2.154,-2.2064,-2.3197,-2.2332,-2.2412,-2.3339,-2.295,-2.3745,-2.5591,-2.5547,-2.4965,-2.3975,-2.439,-2.4652,-2.4889,-2.6141,-2.5958,-2.4971,-2.6205,-2.5989,-2.5045,-2.5301,-2.553,-2.5738,1.3296,1.3478,1.3847,1.4674,1.5119,1.5478,1.568,1.5187,1.464,1.4176,1.3437,0.0,0.0,0.0,0.0,0.0,0.6945,0.519,0.3212,0.1647,0.0285,-0.1004,-0.2333,-0.3637,-0.4875,-0.6455,-0.783,-0.8937,-1.0156,-1.1336,-1.252,-1.3273,-1.4735,-1.6662,-1.7362,-1.858,-2.0197,-2.0695,-2.1539,-2.2338,-2.0681,-2.0479,-2.1,-1.9941,-1.9545,-1.9803,0.0,-2.2015,-2.2395,-2.2402,-2.2937,-2.3636,-2.3756,-2.4111,-2.4542,-2.4996,-2.5593,-2.6154,-2.64,-2.7631,-2.884,-2.8933,-2.9462,-2.9665,-2.8545,-2.8338,-2.8014,-2.6659,-2.5464,-2.4571,-2.4107,-2.2195,-2.0732,-2.0997,-1.903,-1.7474,-1.7474,-1.5708,-1.4193,-1.3522,-1.3508,-1.3392,-1.3188,-1.3655,-1.4426,-1.548,-1.5071,-1.5212,-1.625,-1.7171,-1.8466,-2.0088,-2.0653,-2.139,-2.2506,-2.1929,-2.1708,-2.1927,-2.2274,-2.2979,-2.403,-2.4178,-2.4137,-2.3923,-2.3923,-2.4392,-2.5053,-2.5076,-2.4939,-2.4793,-2.5408,-2.5199,-2.4664,-2.5146,-2.5492,-2.5738,0.0,1.3752,1.4118,1.4937,1.5254,0.0,0.0,0.0,0.0,0.0,0.0,0.0,0.0,0.0,0.0,0.0,0.0,0.5855,0.41,0.2552,0.1026,-0.0614,-0.1538,-0.2677,-0.422,-0.5324,-0.644,-0.7692,-0.8605,-0.9715,-1.0934,-1.1722,-1.3086,-1.4894,-1.5734,-1.6763,-1.7953,-1.841,-1.9197,-1.9973,-1.8442,-1.8511,-1.9437,-1.8533,-1.8478,0.0,-1.9733,-2.075,-2.177,-2.1919,-2.2241,-2.2643,-2.2795,-2.2635,-2.2582,-2.3787,-2.4702,-2.5611,-2.696,-2.842,-2.9614,-2.9756,-2.9605,-2.9062,-2.769,-2.6863,-2.5923,-2.4355,-2.3173,-2.2122,-2.1344,-1.9792,-1.8625,-1.858,-1.7192,-1.6103,-1.6279,-1.4763,-1.3429,-1.2925,-1.3012,-1.2806,-1.2146,-1.2594,-1.3341,-1.4422,-1.4213,-1.4334,-1.4974,-1.5973,-1.7131,-1.8382,-1.9288,-2.0181,-2.1284,-2.1201,-2.1085,-2.0877,-2.1744,-2.2224,-2.225,-2.3162,-2.3517,-2.3471,-2.3428,-2.3763,-2.4327,-2.4166,-2.4013,-2.3908,-2.4672,-2.4771,-2.4471,-2.4989,-2.5416,-2.5791,0.0,0.0,1.4387,0.0,0.0,0.0,0.0,0.0,0.0,0.0,0.0,0.0,0.0,0.0,0.0,0.0,0.0,0.0,0.421,0.2668,0.1339,0.0112,-0.1119,-0.2178,-0.3007,-0.4106,-0.5341,-0.6771,-0.7459,-0.8695,-1.0534,-1.0936,-1.1892,-1.3385,-1.4105,-1.481,-1.5368,-1.5723,-1.6165,-1.659,-1.6892,-1.6879,-1.6786,-1.7447,-1.7961,-1.838,-1.8535,-1.9441,-2.0634,-2.1513,-2.1831,-2.1894,-2.2173,-2.1596,-2.1126,-2.2642,-2.3275,-2.4252,-2.7778,-2.8703,-2.894,-3.0006,-2.8565,-2.6597,-2.5382,-2.4379,-2.3187,-2.1483,-2.0644,-1.975,-1.8395,-1.7376,-1.6577,-1.5864,-1.5111,-1.4635,-1.4842,-1.3206,-1.2141,-1.262,-1.2194,-1.1659,-1.1064,-1.1646,-1.2302,-1.2795,-1.3136,-1.3382,-1.3647,-1.443,-1.5426,-1.6622,-1.7519,-1.8511,-1.9534,-2.0191,-2.0389,-2.0173,-2.1335,-2.1349,-2.0514,-2.228,-2.2908,-2.2628,-2.2847,-2.2897,-2.2858,-2.3417,-2.3098,-2.2473,-2.4074,-2.4569,-2.443,-2.4815,-2.5355,-2.5881,0.0,0.0,0.0,0.0,0.0,0.0,0.0,0.0,0.0,0.0,0.0,0.0,0.0,0.0,0.0,0.0,0.0,0.0,0.5265,0.3666,0.2284,0.1228,-0.0279,-0.1453,-0.2124,-0.345,-0.4349,-0.4723,-0.6549,-0.7781,-0.8479,-0.9514,-1.0934,-1.259,-1.251,-1.3304,-1.4583,-1.4433,-1.5154,-1.6402,-1.5626,-1.6017,-1.7083,-1.7192,-1.7395,-1.7679,-1.8472,-1.8983,-1.9361,-2.0218,-2.0783,-2.1063,-2.0479,-2.0672,-2.0978,-2.0406,-2.2375,-2.4778,-2.4934,-2.7325,-2.941,-2.785,-2.7207,-2.639,-2.4199,-2.2902,-2.1759,-2.0241,-1.8663,-1.7171,-1.5908,-1.5392,-1.4898,-1.4198,-1.4403,-1.4517,-1.4051,-1.3334,-1.2709,-1.225,-1.164,-1.0898,-1.0166,-1.006,-1.0224,-1.0877,-1.2044,-1.302,-1.3432,-1.4024,-1.4866,-1.6167,-1.6445,-1.7441,-1.9388,-1.9524,-1.9657,-1.9756,-1.9553,-1.964,-2.0018,-2.1156,-2.191,-2.2433,-2.2255,-2.2463,-2.2854,-2.194,-2.1876,-2.238,-2.3008,-2.354,-2.4074,-2.4567,-2.5176,-2.5791,0.0,0.0,0.0,0.0,0.0,0.0,0.0,0.0,0.0,0.0,0.0,0.0,0.0,0.0,0.0,0.0,0.0,0.0,0.0,0.4326,0.295,0.2227,0.0447,-0.0838,-0.1452,-0.2508,-0.3398,-0.4064,-0.5324,-0.646,-0.7545,-0.8448,-0.9642,-1.1143,-1.1456,-1.2126,-1.3058,-1.3372,-1.408,0.0,0.0,-1.5081,-1.5913,-1.6279,-1.6506,-1.6747,-1.776,-1.8187,-1.845,-1.9295,-1.9786,-1.9924,-1.9068,-1.9284,-1.9811,-1.9706,-2.1395,-2.3539,-2.4725,-2.6392,-2.7606,-2.6817,-2.5756,-2.4381,-2.2413,-2.085,-1.9494,-1.8243,-1.6565,-1.4996,-1.3982,-1.3718,-1.327,-1.2166,-1.2959,-1.3414,-1.2776,-1.2505,-1.2193,-1.1473,-1.1215,-1.0513,-0.8931,-0.9446,-0.9953,-1.0027,-1.1384,-1.238,-1.2872,-1.3619,-1.4215,-1.4769,-1.5304,-1.6598,-1.8876,-1.9349,-1.9449,-1.9224,-1.8899,-1.8874,-1.9044,-1.9973,-2.0818,-2.1449,0.0,-2.1732,-2.2169,-2.1222,-2.1255,-2.1934,-2.2376,-2.2965,-2.3623,-2.4307,-2.4926,-2.5443,0.0,0.0,0.0,0.0,0.0,0.0,0.0,0.0,0.0,0.0,1.3334,1.2725,1.2274,1.161,0.0,0.0,0.0,0.0,0.0,0.0,0.3666,0.295,0.1284,-0.0056,-0.0947,-0.1452,-0.2456,-0.3956,-0.4119,-0.516,-0.7069,-0.7605,-0.8448,-0.9621,-1.0719,-1.1288,-1.1492,-1.252,-1.2982,-1.3046,-1.3751,-1.4086,-1.4154,0.0,-1.5508,-1.5804,-1.674,-1.7323,-1.7719,-1.8549,-1.8885,-1.8827,-1.8137,-1.8097,-1.8522,-1.9695,-2.0574,-2.189,-2.5234,-2.55,-2.5012,-2.5853,-2.3951,-2.1513,-2.0124,-1.8542,-1.706,-1.5948,-1.4541,-1.3256,-1.2406,-1.2314,-1.1846,-1.0296,-1.1158,-1.1828,-1.1376,-1.1239,-1.101,-1.0438,-1.0485,-0.9732,-0.7609,-0.8935,-0.9903,-0.9627,-1.0661,-1.1636,-1.2272,-1.3132,-1.3461,-1.3192,-1.4399,-1.597,-1.7837,-1.9021,-1.9278,-1.8521,-1.8629,-1.837,-1.79,-1.886,-1.9565,-2.011,-2.0414,0.0,-2.1211,-2.0858,-2.0957,-2.1361,-2.1908,-2.2512,-2.3143,-2.3933,-2.4552,-2.5082,0.0,0.0,0.0,0.0,0.0,0.0,0.0,0.0,0.0,0.0,1.3515,1.2881,0.0,0.0,0.0,0.0,0.0,0.0,0.0,0.0,0.0,0.3116,0.2617,0.1561,-0.0168,-0.0893,-0.1673,-0.2573,-0.3671,-0.4769,-0.581,-0.6886,-0.8112,-0.9436,-1.0125,-1.0767,-1.142,-1.1622,-1.1772,-1.1913,-1.2502,-1.3014,-1.3453,-1.4057,0.0,0.0,-1.6324,-1.682,-1.7128,-1.7637,-1.8262,-1.8714,-1.8602,-1.8865,-1.9182,-1.8822,-2.0721,-2.2841,-2.2386,-2.3779,-2.4763,-2.2248,-2.0883,-1.9558,-1.7258,-1.6472,-1.5727,-1.3965,-1.3362,-1.2512,-1.0612,-1.0686,-1.0703,-0.978,-1.0213,-1.081,-1.127,-1.0216,-0.9547,-0.9984,-0.8341,-0.7108,-0.6662,-0.6198,-0.6729,-0.8355,-0.8853,-1.0197,-1.2528,-1.2559,-1.2643,-1.2734,-1.4503,-1.5433,-1.5396,-1.722,-1.7981,-1.7539,-1.7182,-1.7082,-1.7253,-1.781,-1.8448,-1.919,-1.9604,0.0,-2.0775,-2.0463,-2.0523,-2.0908,-2.1166,-2.1894,-2.2891,-2.3157,-2.4002,-2.513,0.0,0.0,0.0,0.0,0.0,0.0,0.0,1.4176,1.344,1.3647,1.32,1.2881,1.2881,1.1859,1.1099,0.0,0.0,0.0,0.0,0.0,0.0,0.0,0.0,0.0,0.1341,0.0112,-0.0894,-0.1619,0.0,-0.3724,-0.4824,-0.5855,-0.6876,-0.7882,-0.8894,-0.9518,-0.9915,-1.0265,-1.0629,-1.0998,-1.1282,-1.163,-1.2141,0.0,0.0,0.0,-1.594,-1.6718,-1.7666,-1.853,-1.9171,-1.9464,-1.8967,-1.9228,-1.9795,-2.0036,-2.1561,-2.2832,-2.1466,-2.1898,-2.1953,-1.864,-1.7291,-1.6221,-1.4156,-1.3524,-1.2973,-1.1407,-1.0789,-1.0086,-0.8502,-0.8552,-0.854,-0.7689,-0.8567,-0.9241,-0.9067,-0.9003,-0.874,-0.8019,-0.7215,-0.6424,-0.5636,-0.5719,-0.6227,-0.7305,-0.8095,-0.9551,-1.1832,-1.2116,-1.2176,-1.2137,-1.37,-1.4565,-1.4622,-1.5864,-1.6625,-1.6839,-1.636,-1.6184,-1.6281,-1.6668,-1.7124,-1.7694,-1.8487,0.0,-1.9568,-1.9859,-2.022,-2.061,-2.0983,-2.1541,-2.2267,-2.295,-2.3806,-2.4728,0.0,0.0,0.0,0.0,0.0,0.0,1.4536,1.3988,1.3478,1.3113,1.2978,1.2881,1.2881,1.2017,1.136,0.0,0.0,0.0,0.0,0.0,0.0,0.0,0.0,0.0,0.2623,0.0,0.0,-0.0612,-0.1397,0.0,0.0,0.0,0.0,0.0,-0.7292,-0.7935,-0.8153,-0.8652,-0.9224,0.0,0.0,-1.0246,0.0,0.0,0.0,0.0,0.0,-1.6831,-1.8263,-1.853,-1.8774,-1.8656,-1.6787,-1.8132,-2.0505,-2.098,-2.1676,-2.1882,-2.002,-1.9307,-1.8289,-1.5127,-1.3786,-1.2745,-1.088,-1.04,-0.9969,-0.8546,-0.8097,-0.7553,-0.627,-0.6346,-0.6321,-0.5512,-0.6511,-0.7204,-0.6721,-0.7373,-0.7429,-0.5928,-0.5954,-0.5683,-0.4505,-0.5218,-0.588,-0.6081,-0.7477,-0.9081,-1.0813,-1.1271,-1.1489,-1.1407,-1.2552,-1.3354,-1.3755,-1.4639,-1.5345,-1.5773,-1.5458,-1.5274,-1.5222,-1.543,-1.5778,-1.6346,-1.7355,0.0,0.0,-1.9371,-1.9914,-2.0321,-2.0772,-2.1229,-2.1698,-2.2725,-2.355,-2.4236,0.0,0.0,0.0,0.0,0.0,0.0,1.5062,1.4222,1.3563,1.3525,1.3152,1.2881,1.2881,1.2372,1.1819,0.0,0.0,0.0,0.0,0.0,0.0,0.0,0.0,0.0,0.0,0.0,0.0,0.1058,0.0112,0.0,0.0,0.0,0.0,0.0,0.0,-0.6152,-0.6753,-0.6854,0.0,0.0,0.0,0.0,0.0,0.0,0.0,0.0,0.0,-1.7059,-1.8165,-1.507,-1.4332,-1.3911,-0.9,-1.3977,-2.1337,-1.979,-1.982,-1.9587,-1.6046,-1.5223,-1.4716,-1.1822,-1.082,-0.9983,-0.7641,-0.7565,-0.7378,-0.5578,-0.6035,-0.6152,-0.4136,-0.4388,-0.4731,-0.4231,-0.4173,-0.4576,-0.5845,-0.4886,-0.4227,-0.4656,-0.3901,-0.3239,-0.3056,-0.3144,-0.3529,-0.4391,-0.64,-0.8239,-0.9658,-0.9817,-1.0021,-1.0331,-1.1307,-1.177,-1.1778,-1.339,-1.4055,-1.3663,-1.3758,-1.398,-1.419,-1.4057,-1.4575,-1.5546,-1.6415,-1.7357,0.0,-1.9081,-1.9617,-1.9901,-2.0182,-2.0772,-2.1458,-2.2002,-2.2891,-2.3891,0.0,0.0,0.0,0.0,0.0,0.0,1.5108,1.4269,1.3621,1.3621,1.32,1.2881,1.2881,1.2735,1.2323,1.1769,1.0905,0.0,0.0,0.0,0.0,0.0,0.0,0.0,0.0,0.0,0.2591,0.2069,0.1183,0.0,0.0,0.0,0.0,0.0,0.0,-0.4656,-0.4933,-0.498,0.0,0.0,0.0,0.0,0.0,0.0,0.0,0.0,0.0,0.0,-1.3699,-1.0103,-0.8349,-0.7447,-0.6022,-0.827,-1.1586,-1.2319,-1.3233,-1.3475,-1.0912,-1.0492,-0.9948,-0.6579,-0.5578,-0.5046,-0.3842,-0.3971,-0.4088,-0.3092,-0.3427,-0.3424,-0.172,-0.1721,-0.1748,-0.106,-0.1219,-0.1535,-0.2004,-0.1902,-0.186,-0.2308,-0.2036,-0.2001,-0.2412,-0.2597,-0.299,-0.3783,-0.4444,-0.5345,-0.6529,-0.8439,-0.9488,-0.9371,-0.9685,-1.0053,-1.0347,-1.0782,-1.1508,-1.2444,-1.2183,-1.2422,-1.3124,-1.2977,-1.3268,-1.3855,-1.47,-1.5563,0.0,-1.7434,-1.8286,-1.9133,-1.9901,-2.056,-2.1153,-2.2189,-2.3039,-2.3891,0.0,0.0,0.0,0.0,0.0,1.5244,1.5108,1.4501,1.3988,1.3847,1.3382,1.3113,1.3113,1.3086,1.2918,1.256,1.1378,0.0,0.0,0.0,0.0,0.0,0.0,0.0,0.0,0.0,0.3767,0.3338,0.2423,0.1732,0.0,0.0,-0.0899,-0.1225,0.0,0.0,0.0,0.0,0.0,0.0,0.0,0.0,0.0,0.0,0.0,0.0,0.0,0.0,0.0,0.0,0.0,-0.116,-0.0297,0.0,-0.0754,-0.5003,-0.6967,-0.7297,-0.5137,-0.4936,-0.467,-0.1801,-0.1163,-0.1019,-0.0498,-0.0768,-0.1044,-0.0555,-0.0889,-0.0888,0.039,0.039,0.045,0.1208,0.0895,0.0623,0.0721,0.0348,0.0,-0.0158,-0.0324,-0.0669,-0.14,-0.1769,-0.2267,-0.2833,-0.2901,-0.3176,-0.4004,-0.6358,-0.7824,-0.8089,-0.8198,-0.8538,-0.9129,-0.887,-0.9468,-1.0866,-1.0474,-1.0892,-1.1911,-1.1794,-1.2104,-1.2674,-1.3399,-1.4278,0.0,-1.6079,-1.7113,-1.8201,-1.9307,-2.0278,-2.1219,-2.2369,-2.3415,-2.4477,0.0,0.0,0.0,0.0,0.0,1.5659,1.5153,1.5108,1.4869,1.4351,1.3894,1.3573,1.3573,1.3531,1.3496,1.3496,1.2085,0.0,0.0,0.0,0.0,0.0,0.0,0.0,0.6411,0.6117,0.5649,0.4973,0.4099,0.349,0.315,0.1811,0.0977,0.0613,0.0,0.0,0.0,0.0,0.0,0.0,0.0,0.0,0.0,0.0,0.0,0.0,0.0,0.0,0.0,0.0,0.0,0.0,0.0,1.1459,0.9353,0.0823,-0.2098,-0.1876,0.1346,0.1541,0.0997,0.1899,0.1721,0.1482,0.222,0.1766,0.1438,0.206,0.1445,0.111,0.2006,0.156,0.1227,0.1734,0.1712,0.1613,0.1407,0.1452,0.1469,0.1507,0.1389,0.1117,0.0418,-0.0258,-0.0855,-0.1304,-0.1864,-0.2407,-0.2823,-0.3434,-0.4558,-0.63,-0.6997,-0.7538,-0.8097,-0.8088,-0.8312,-0.8737,-0.8737,-0.9372,-1.0514,-1.0514,-1.1156,-1.2367,-1.2923,-1.3751,0.0,-1.5458,-1.627,-1.7124,-1.8135,-1.9876,-2.1854,-2.2322,-2.3909,-2.5899,0.0,0.0,0.0,0.0,0.0,0.0,1.5614,1.5289,1.5062,1.4869,1.4398,1.4071,1.4071,1.4014,1.3993,1.3993,1.2577,0.0,0.0,0.0,0.0,0.0,0.0,0.0,0.7749,0.7268,0.6706,0.6079,0.5707,0.4918,0.3859,0.2979,0.2322,0.1897,0.1239,0.0781,0.0,0.0,0.0,0.0,0.0,0.0,0.2551,0.0,0.0,0.0,0.0,0.0,0.0,0.0,0.0,0.0,0.0,0.0,0.0,1.0308,0.7783,0.6029,0.6313,0.6032,0.5707,0.5694,0.5306,0.4835,0.4583,0.3984,0.3337,0.2903,0.2947,0.3159,0.3498,0.3452,0.3506,0.3975,0.3762,0.3534,0.3578,0.3614,0.3518,0.3213,0.2855,0.2144,0.1088,0.1001,0.0578,-0.057,-0.0721,-0.079,-0.1098,-0.1836,-0.3149,-0.5041,-0.535,-0.5682,-0.6226,-0.6226,-0.6589,-0.7233,-0.7177,-0.7952,-0.95,-0.925,-0.9697,-1.071,-1.0822,-1.1301,0.0,-1.2821,-1.3511,-1.4141,-1.5414,-1.7843,-2.0713,-2.1382,-2.3623,-2.648,0.0,0.0,0.0,0.0,0.0,0.0,1.5925,1.5647,1.5468,1.5513,1.504,1.473,1.4967,1.4708,1.4614,1.4728,1.3468,0.0,0.0,0.0,0.0,0.0,0.0,0.0,0.8552,0.8408,0.8006,0.7188,0.6959,0.6337,0.5301,0.4308,0.376,0.3553,0.291,0.2637,0.0,0.0,0.0,0.0,0.0,0.0,0.7319,0.0,0.0,0.0,0.0,0.0,0.0,0.0,0.0,0.0,0.0,0.0,0.0,0.0,1.3398,1.146,1.0244,0.9577,0.9155,0.8798,0.8199,0.7517,0.6908,0.6176,0.5433,0.4772,0.4875,0.5109,0.5175,0.5223,0.5377,0.5693,0.5555,0.5268,0.5048,0.5047,0.4903,0.4501,0.391,0.3174,0.2419,0.2039,0.147,0.0562,0.0319,0.0158,0.0078,-0.0454,-0.1471,-0.2933,-0.3795,-0.4472,-0.496,-0.5093,-0.5352,-0.5866,-0.5741,-0.6588,-0.8146,-0.7832,-0.828,-0.9308,-0.9116,0.0,0.0,-1.0788,-1.125,-1.1539,-1.3016,-1.6253,-2.0147,-2.064,-2.3767,-2.7875,0.0,0.0,0.0,0.0,0.0,0.0,0.0,1.6088,1.6044,1.62,1.5724,1.5531,1.6057,1.5576,1.5353,1.5664,1.4821,0.0,0.0,0.0,0.0,0.0,0.0,1.0344,0.9062,0.9577,0.9358,0.8393,0.8037,0.7644,0.7317,0.5853,0.5304,0.5469,0.4808,0.471,0.0,0.0,0.0,0.0,0.784,1.025,0.0,0.0,0.0,0.0,0.0,0.0,0.0,0.0,0.0,0.0,0.0,0.0,0.0,0.0,0.0,0.0,0.0,1.2159,1.1416,1.1166,1.0297,0.9422,0.9044,0.8212,0.0,0.7165,0.7009,0.6916,0.6839,0.6899,0.6874,0.6894,0.6998,0.6764,0.5935,0.5914,0.5825,0.5215,0.471,0.4334,0.4223,0.2965,0.2129,0.2034,0.1197,0.0714,0.0757,0.0663,0.0288,-0.0421,-0.2367,-0.3639,-0.4154,-0.4356,-0.4492,-0.4492,-0.4492,-0.5147,-0.6453,-0.626,-0.6841,0.0,0.0,0.0,0.0,-0.9202,-0.931,-0.9274,-1.0793,-1.4948,-1.9975,-2.0021,-2.4166,-2.9734,0.0,0.0,0.0,0.0,0.0,0.0,0.0,0.0,0.0,0.0,1.61,1.6061,1.6183,1.6349,1.6283,0.0,0.0,0.0,0.0,0.0,0.0,0.0,1.1746,1.1254,1.1236,1.0685,1.0384,1.0345,0.9389,0.8798,0.8533,0.7328,0.6716,0.6729,0.6863,0.7106,0.0,0.0,0.0,0.0,1.1231,1.3471,0.0,0.0,0.0,0.0,2.2589,2.256,0.0,0.0,0.0,0.0,0.0,0.0,0.0,0.0,1.6429,1.5776,1.5062,0.0,1.2147,1.2008,1.1216,1.0273,0.0,0.8731,0.7941,0.7267,0.7337,0.7467,0.735,0.761,0.7824,0.7687,0.7605,0.7432,0.724,0.7114,0.6704,0.5724,0.5973,0.5755,0.434,0.454,0.4203,0.3039,0.2498,0.2198,0.2056,0.1505,0.0846,0.014,-0.0411,-0.128,-0.2614,-0.2952,-0.3155,-0.3155,-0.3155,-0.3616,-0.4406,-0.4273,-0.4872,-0.6046,0.0,0.0,-0.6157,-0.688,-0.6815,-0.6341,-0.7382,-1.2247,-1.8808,-1.878,-2.362,-3.0153,0.0,0.0,0.0,0.0,0.0,0.0,0.0,0.0,0.0,0.0,1.6318,1.6386,1.6646,1.6656,1.6636,0.0,0.0,0.0,0.0,0.0,0.0,1.3322,1.2814,1.2438,1.2355,1.2103,1.1905,1.195,1.0958,1.037,0.992,0.8958,0.8465,0.8386,0.9003,0.9614,0.0,0.0,0.0,0.0,1.4378,0.0,0.0,0.0,0.0,0.0,2.429,2.4058,0.0,2.2295,2.1393,2.0668,0.0,0.0,0.0,0.0,1.7175,1.6659,1.594,1.4732,1.3637,1.3494,1.2638,1.1697,1.1199,1.023,0.9311,0.8901,0.8652,0.8652,0.8871,0.8833,0.8832,0.9028,0.8902,0.8663,0.8343,0.7824,0.7364,0.6945,0.7073,0.678,0.5728,0.5497,0.5004,0.4212,0.367,0.3293,0.3207,0.2672,0.2083,0.151,0.1284,0.0335,-0.134,-0.1945,-0.2149,-0.1949,-0.2217,-0.2599,-0.3021,-0.3152,-0.368,-0.4451,0.0,0.0,-0.4415,-0.4823,-0.4702,-0.4296,-0.5034,-1.0176,-1.7316,-1.7648,-2.2977,-2.9998,0.0,0.0,0.0,0.0,0.0,0.0,0.0,0.0,0.0,0.0,0.0,0.0,0.0,0.0,0.0,0.0,0.0,0.0,0.0,0.0,1.6382,1.4099,1.4147,1.391,1.3217,1.3593,1.3631,1.3331,1.2631,1.2019,1.1554,1.0682,1.0286,1.0348,1.1226,1.2043,1.2827,0.0,0.0,1.5289,1.7345,0.0,0.0,0.0,0.0,0.0,0.0,0.0,0.0,2.2957,2.2107,2.1303,2.0601,0.0,0.0,0.0,0.0,0.0,1.6421,1.5869,1.5449,1.5017,1.405,1.315,1.2957,1.1922,1.0998,1.0947,1.0277,0.9911,1.0555,1.0129,0.9942,1.058,1.0409,0.997,0.9186,0.8447,0.8073,0.8163,0.785,0.7615,0.7552,0.6332,0.5561,0.5516,0.481,0.4409,0.4359,0.3941,0.3562,0.3215,0.2679,0.1742,0.0268,-0.0804,-0.1141,-0.0807,-0.1412,-0.1722,-0.1865,-0.2187,-0.2524,-0.2926,0.0,0.0,-0.2974,-0.3024,-0.2963,-0.3028,-0.4213,-0.9259,-1.6053,-1.7498,-2.2831,-2.9403,0.0,0.0,0.0,0.0,0.0,0.0,0.0,0.0,0.0,0.0,0.0,0.0,0.0,0.0,0.0,0.0,0.0,0.0,0.0,1.8124,1.7904,1.7299,1.6385,1.5644,1.5104,1.5041,1.4965,1.4877,1.3984,1.3666,1.3834,1.2432,1.214,1.2764,1.3372,1.4143,1.4989,1.5825,0.0,1.8426,2.0192,0.0,0.0,0.0,0.0,0.0,0.0,0.0,0.0,2.3218,2.2539,2.196,2.1379,0.0,0.0,0.0,0.0,0.0,1.7558,1.7584,1.7257,1.5245,1.4479,1.4118,1.3511,1.2735,1.2021,1.1566,1.0821,1.0423,1.0838,1.1083,1.1313,1.1764,1.1509,1.085,0.9582,0.9456,0.913,0.8304,0.8518,0.8541,0.8088,0.7862,0.7581,0.73,0.6343,0.574,0.5649,0.4976,0.4567,0.448,0.4151,0.3816,0.3547,0.134,0.0269,0.047,-0.0202,-0.0465,-0.0323,-0.0194,-0.0375,-0.0945,0.0,-0.0991,-0.1418,-0.1474,-0.1816,-0.2699,-0.669,-1.1305,-1.6238,-2.0333,-2.4668,-2.839,0.0,0.0,0.0,0.0,0.0,0.0,0.0,0.0,0.0,0.0,0.0,0.0,0.0,0.0,0.0,0.0,0.0,0.0,1.9246,1.9183,1.9095,1.9032,1.8762,1.7771,1.6041,1.6201,1.617,1.5814,1.5309,1.5167,1.5296,1.4206,1.4247,1.5234,1.5234,1.5932,1.7156,1.7596,1.8636,2.0141,0.0,0.0,0.0,0.0,0.0,0.0,0.0,0.0,0.0,0.0,2.2968,2.2405,2.177,0.0,0.0,0.0,0.0,0.0,1.8355,1.8126,1.7805,1.6722,1.6195,1.5936,1.5615,1.4634,1.3638,1.3303,1.2398,1.1822,1.2261,1.2107,1.2159,1.2797,1.2445,1.2004,1.1784,1.1164,1.062,1.0312,0.9841,0.9443,0.9198,0.8876,0.8589,0.8431,0.7663,0.7215,0.712,0.6465,0.6005,0.58,0.5734,0.5408,0.4815,0.3604,0.2673,0.2079,0.1141,0.0861,0.1094,0.057,0.0307,0.0293,0.0,-0.0398,-0.0503,-0.0503,-0.084,-0.1821,-0.6165,-1.0525,-1.5275,-2.2411,-2.6418,-2.8239,0.0,0.0,0.0,0.0,0.0,0.0,0.0,0.0,0.0,0.0,0.0,0.0,0.0,0.0,0.0,0.0,0.0,0.0,2.0313,2.01,2.0025,2.0327,2.0536,1.9396,1.6814,1.7419,1.7423,1.6689,1.6581,1.6444,1.6327,1.6068,1.6487,1.7491,1.7299,1.803,1.9427,1.9558,2.0342,2.1537,0.0,0.0,0.0,0.0,0.0,0.0,0.0,0.0,0.0,0.0,0.0,0.0,0.0,0.0,0.0,2.0597,2.017,1.9675,1.8878,1.8545,1.8357,1.816,1.763,1.7265,1.7556,1.6454,1.5352,1.5339,1.4401,1.3668,1.4013,1.3468,1.3099,1.3622,1.3254,1.3025,1.3401,1.257,1.197,1.2227,1.1197,1.0521,1.0514,0.9818,0.9308,0.9436,0.8871,0.8619,0.8619,0.8042,0.7582,0.7307,0.7186,0.6728,0.5741,0.5595,0.48,0.3418,0.2477,0.2113,0.2183,0.137,0.1088,0.1232,0.0573,0.0283,0.0396,0.034,-0.0113,-0.1332,-0.649,-1.1765,-1.7342,-2.418,-2.7128,-2.7672,0.0,0.0,0.0,0.0,0.0,0.0,0.0,0.0,0.0,0.0,0.0,0.0,0.0,0.0,0.0,0.0,0.0,0.0,2.0862,2.0441,2.0604,2.1615,2.1055,1.9812,1.7926,1.8965,1.8977,1.788,1.788,1.7527,1.6973,1.8161,1.8889,1.9246,1.9891,2.078,2.1793,2.2181,2.2626,2.3254,2.4613,0.0,0.0,0.0,0.0,0.0,0.0,0.0,0.0,0.0,0.0,0.0,0.0,0.0,2.137,2.0747,2.0444,2.0045,1.9118,1.9223,1.9454,1.8877,1.7824,1.7217,1.8272,1.7572,1.6827,1.7373,1.6613,1.5859,1.5813,1.5309,1.4736,1.4166,1.3943,1.3708,1.3094,1.294,1.2915,1.294,1.232,1.195,1.2143,1.0961,1.0332,1.0647,1.0085,0.9767,0.9894,0.939,0.9139,0.9139,0.8366,0.7657,0.7068,0.6736,0.5807,0.422,0.3611,0.3099,0.257,0.2863,0.2658,0.1999,0.2172,0.1933,0.1464,0.1406,0.041,-0.1867,-1.0031,-1.8465,-2.6007,-2.5859,-2.5839,-2.589,0.0,0.0,0.0,0.0,0.0,0.0,0.0,0.0,0.0,0.0,0.0,0.0,0.0,0.0,0.0,0.0,0.0,2.0228,2.107,2.1295,2.1345,2.1307,2.1655,2.1104,1.94,1.9392,1.9067,1.8465,1.8719,1.9197,1.9798,1.9979,2.0823,2.2185,2.218,2.2536,2.3193,2.3433,2.3661,2.3916,2.4626,2.5003,0.0,0.0,0.0,0.0,0.0,0.0,0.0,0.0,2.3846,2.3247,2.288,2.2186,2.1462,2.1229,2.0795,2.0239,1.9687,1.9849,2.0109,1.9646,1.9542,1.9487,1.941,1.8909,1.844,1.8532,1.8265,1.77,1.6688,1.6436,1.6322,1.6022,1.5997,1.5856,1.5544,1.4877,1.4373,1.3974,1.3416,1.3105,1.3166,1.2443,1.2012,1.2135,1.1142,1.0584,1.064,1.0268,0.9958,0.9773,0.9646,0.9058,0.8075,0.8017,0.725,0.5751,0.4772,0.4081,0.3653,0.336,0.3153,0.2979,0.209,0.1843,0.1935,0.1127,0.053,-0.0845,-0.9526,-1.8345,-2.6143,-2.5819,-2.5703,-2.5682,0.0,0.0,0.0,0.0,0.0,0.0,0.0,0.0,0.0,0.0,0.0,0.0,0.0,0.0,0.0,0.0,2.0382,2.0677,2.1265,2.1765,2.1889,2.1559,2.2064,2.1842,2.0777,2.0072,1.9572,1.9222,1.9558,2.0373,2.1642,2.1589,2.2588,2.4443,2.3999,2.4139,2.4635,2.4554,2.4503,2.4521,2.4979,2.5222,0.0,0.0,0.0,0.0,0.0,0.0,0.0,0.0,2.3903,2.3401,2.3028,2.2378,2.1688,2.1584,2.1182,2.0728,2.0562,2.0564,2.0541,2.0557,2.0734,2.0872,2.0616,2.0415,2.0215,2.0105,1.972,1.9075,1.7849,1.7514,1.7409,1.7355,1.7269,1.7143,1.7074,1.6498,1.5891,1.5439,1.4777,1.4346,1.4346,1.3717,1.3304,1.3364,1.2381,1.1764,1.1764,1.1337,1.092,1.0574,1.0705,1.0124,0.88,0.8926,0.8312,0.6954,0.5957,0.5185,0.4609,0.4065,0.3837,0.3728,0.2669,0.2354,0.2523,0.1566,-0.0776,-0.4556,-1.1939,-1.9421,-2.608,-2.5797,-2.5701,-2.5699,0.0,0.0,0.0,0.0,0.0,0.0,0.0,0.0,2.0208,2.0208,2.0449,0.0,0.0,0.0,0.0,0.0,2.0798,2.1068,2.149,2.1779,2.2184,2.2782,2.2112,2.1816,2.2016,2.1295,2.0766,2.0403,2.0403,2.0968,2.2021,2.2964,2.4229,2.5687,2.53,2.5559,2.6254,2.5671,2.5281,2.5187,2.6045,2.6033,2.5514,0.0,0.0,0.0,0.0,0.0,0.0,0.0,2.3881,2.35,2.2898,2.2476,2.2136,2.1781,2.1601,2.1562,2.1824,2.1305,2.0881,2.1561,2.1181,2.087,2.181,2.2143,2.2231,2.2184,2.1029,1.989,1.9481,1.8585,1.7942,1.793,1.7523,1.7202,1.7202,1.7324,1.7435,1.7379,1.644,1.5803,1.5803,1.4709,1.4085,1.4204,1.3674,1.3381,1.3502,1.272,1.2134,1.1716,1.1523,1.0703,0.9221,0.933,0.8782,0.7515,0.7131,0.6325,0.5321,0.5332,0.4844,0.4108,0.4177,0.3878,0.3388,0.3015,-0.3662,-1.4112,-1.8301,-2.2815,-2.69,-2.6019,-2.5701,-2.571,0.0,0.0,0.0,0.0,0.0,0.0,0.0,0.0,2.1753,2.1753,2.174,0.0,0.0,0.0,0.0,0.0,0.0,0.0,2.2111,2.2655,2.2908,2.2728,2.2946,2.2919,2.2706,2.3133,2.2683,2.1318,2.1497,2.2141,2.3231,2.427,2.5209,2.6069,2.6721,2.6712,2.6227,2.609,2.5792,2.5401,2.5668,2.5683,2.5564,0.0,0.0,0.0,0.0,0.0,0.0,0.0,0.0,0.0,2.3392,2.2898,2.2422,2.2153,2.1853,2.165,2.1629,2.1746,2.1872,2.1768,2.2667,2.3575,2.3599,2.3157,2.2701,2.2828,2.1931,2.0833,2.0004,1.9682,1.9321,1.8784,1.8848,1.8833,1.819,1.8147,1.8027,1.7589,1.7401,1.728,1.728,1.626,1.5631,1.5688,1.4524,1.3691,1.3459,1.2966,1.2436,1.1768,1.1801,1.1391,1.0536,1.0324,0.9719,0.8825,0.8049,0.7105,0.6071,0.5779,0.5289,0.4601,0.4189,0.3846,0.3498,0.2645,-0.3628,-1.2898,-1.406,-1.9632,-2.6888,-2.6023,-2.6085,-2.6517,0.0,0.0,0.0,0.0,0.0,0.0,0.0,0.0,2.2609,2.2609,2.2609,2.2583,0.0,0.0,0.0,0.0,0.0,0.0,2.2669,2.312,2.3284,2.2986,2.3407,2.3713,2.3835,2.4478,2.4454,2.3717,2.3317,2.3691,2.4782,2.5162,2.58,2.6617,2.7019,2.6874,2.6292,2.6075,2.5816,2.5541,2.5545,2.5556,2.558,0.0,0.0,0.0,0.0,0.0,0.0,0.0,0.0,0.0,2.4071,2.3549,2.2925,2.3093,2.2668,2.2276,2.2731,2.2817,2.2914,2.3398,2.4418,2.5256,2.5039,2.4245,2.3551,2.3383,2.272,2.1876,2.1015,2.0815,2.0542,1.9845,1.9926,1.9837,1.9109,1.9347,1.9334,1.8756,1.8638,1.8555,1.8341,1.7308,1.6645,1.645,1.5168,1.4328,1.4079,1.3588,1.3014,1.2212,1.2474,1.2175,1.1272,1.0914,1.0376,0.9695,0.8777,0.794,0.7162,0.6346,0.5673,0.511,0.4474,0.396,0.3473,0.0864,-0.3987,-1.0196,-1.3876,-1.8983,-2.443,-2.5737,-2.6301,-2.6351,0.0,0.0,2.2883,2.3064,0.0,0.0,0.0,0.0,2.3035,2.3035,2.3193,2.3285,0.0,0.0,0.0,0.0,0.0,0.0,2.3223,2.3379,2.3508,2.353,2.3687,2.4202,2.5058,2.5412,2.5984,2.6846,2.5474,2.5348,2.6356,2.5759,2.6057,2.7122,2.6583,2.6415,2.6481,2.5806,2.5545,2.5601,2.566,2.5625,2.5549,2.5376,0.0,0.0,0.0,0.0,0.0,0.0,0.0,0.0,2.4813,2.4334,2.37,2.4402,2.3809,2.3223,2.459,2.4264,2.3971,2.5712,2.6203,2.6196,2.6062,2.5358,2.4552,2.39,2.3342,2.2799,2.2356,2.1955,2.1547,2.1077,2.0845,2.0597,2.0042,2.0644,2.0975,2.056,2.0016,1.9547,1.9079,1.8022,1.7224,1.6799,1.5716,1.5121,1.509,1.4509,1.3747,1.2908,1.3326,1.2991,1.1769,1.1418,1.0998,1.0415,0.9392,0.8778,0.8533,0.7123,0.6203,0.58,0.4887,0.4198,0.3449,-0.1171,-0.4181,-0.6726,-1.5827,-1.9656,-2.0659,-2.5215,-2.6397,-2.5726,0.0,0.0,2.3732,2.3777,0.0,0.0,0.0,0.0,0.0,2.4081,0.0,0.0,0.0,0.0,0.0,0.0,0.0,0.0,0.0,2.4118,2.4207,2.4503,2.4554,2.4686,2.4936,2.6279,2.7072,2.7266,2.6177,2.5791,2.6096,2.6111,2.6296,2.6659,2.6683,2.6743,2.6768,2.5927,2.5524,2.5496,2.6064,2.5871,2.5273,2.5894,2.5602,0.0,0.0,0.0,0.0,0.0,0.0,0.0,2.5241,2.4842,2.4771,2.5416,2.4473,2.3541,2.5112,2.507,2.4885,2.6184,2.6928,2.7201,2.655,2.6012,2.523,2.3909,2.3569,2.3319,2.2905,2.2756,2.2651,2.2395,2.2146,2.1833,2.1472,2.0948,2.0711,2.1121,2.0214,1.9727,2.0201,1.884,1.7918,1.7915,1.6765,1.5717,1.5083,1.5085,1.4606,1.3466,1.4095,1.4183,1.3637,1.2812,1.2423,0.0,1.0493,0.974,0.9909,0.8287,0.7253,0.6718,0.561,0.4608,0.3699,0.2252,-0.1156,-0.5961,-1.1565,-1.6355,-2.0582,-2.4531,-2.6288,-2.6594,0.0,0.0,0.0,0.0,0.0,0.0,0.0,0.0,0.0,0.0,0.0,0.0,0.0,0.0,0.0,0.0,0.0,0.0,0.0,2.4609,2.4701,2.4977,2.4985,2.5233,2.5755,2.6631,2.7479,2.8357,2.6998,2.6506,2.6869,2.6641,2.6584,2.6693,2.679,2.6832,2.6744,2.5843,2.5386,2.5292,2.5676,2.552,2.5094,2.5418,2.5168,2.476,2.5522,0.0,0.0,0.0,0.0,0.0,0.0,0.0,2.5251,2.5538,2.4869,2.4241,2.5015,2.5508,2.608,2.7235,2.7528,2.7432,2.7076,2.6633,2.603,2.4878,2.4323,2.3909,2.3522,2.3435,2.3333,2.3054,2.2935,2.2801,2.2395,2.2228,2.2042,2.1894,2.1177,2.0597,2.043,1.9236,1.8429,1.8309,1.727,1.643,1.6035,1.5808,1.532,1.4503,1.4937,1.4949,1.4422,1.3773,1.3433,1.3311,1.1769,1.0839,1.0364,0.8593,0.7492,0.6907,0.5769,0.4893,0.4177,0.3405,-0.01,-0.5605,-1.1085,-1.6018,-2.067,-2.5256,-2.6674,-2.6328,0.0,0.0,0.0,0.0,0.0,0.0,0.0,0.0,0.0,0.0,0.0,0.0,0.0,0.0,0.0,0.0,0.0,0.0,0.0,0.0,0.0,2.5243,2.5251,2.5647,2.6481,2.6656,2.7462,2.8968,2.7677,2.7324,2.7841,2.7144,2.7006,2.7324,2.717,2.7118,2.7038,2.597,2.5417,2.5258,2.5234,2.5108,2.4907,2.4828,2.4698,2.4615,2.5301,2.5059,2.4634,2.6013,0.0,0.0,0.0,0.0,2.5419,2.5507,2.516,2.4838,2.5126,2.6201,2.7434,2.8464,2.8101,2.7545,2.7597,2.7155,2.6578,2.6059,2.5291,2.4614,2.4214,2.4158,2.4032,2.3565,2.3638,2.3535,2.2966,2.3486,2.3557,2.2634,2.2132,2.1532,2.0735,1.9663,1.8887,1.8567,1.776,1.7216,1.7149,1.6714,1.6201,1.5608,1.5915,1.5784,1.5151,1.471,1.438,1.416,1.308,1.1935,1.061,0.894,0.78,0.7063,0.614,0.5386,0.4794,0.3796,0.066,-0.4217,-1.119,-1.5881,-1.9453,-2.5595,-2.6903,-2.5725,0.0,0.0,0.0,0.0,0.0,0.0,0.0,0.0,0.0,0.0,2.543,2.5438,0.0,2.5382,2.5378,2.5431,2.5431,2.5431,2.5428,0.0,0.0,2.5458,2.5458,2.5543,2.5742,2.6484,2.6992,2.7226,2.7751,2.8061,2.8123,2.7281,2.7666,2.9023,2.8275,2.8255,2.867,2.7026,2.6163,2.5863,2.5816,2.5295,2.464,2.5364,2.5092,2.445,2.5355,2.5523,2.5352,2.5515,2.5972,0.0,0.0,0.0,2.555,2.6227,2.5377,2.4657,2.6735,2.7985,2.8858,2.9405,2.8767,2.7998,2.8032,2.7196,2.6449,2.6469,2.6016,2.5524,2.5237,2.5214,2.5098,2.4815,2.4564,2.4143,2.3431,2.3339,2.3308,2.3121,2.2231,2.1823,2.2316,2.0593,1.9413,1.9413,1.8793,1.8054,1.7299,1.8052,1.784,1.6416,1.7216,1.7449,1.6879,1.6039,1.5708,1.5947,1.4228,1.287,1.1729,1.0687,0.9533,0.8302,0.7646,0.6725,0.5592,0.4948,0.3512,0.0823,-0.8091,-1.2186,-1.4132,-2.2834,-2.5886,-2.5681,0.0,0.0,0.0,0.0,0.0,0.0,0.0,0.0,0.0,0.0,0.0,2.5505,2.5504,2.5508,2.5482,2.5455,2.5436,2.5646,2.6086,2.6644,2.696,2.6954,2.6981,2.6807,2.6333,2.7171,2.762,2.7622,2.7963,2.8593,2.9405,2.8489,2.8508,2.9271,2.8799,2.8675,2.8734,2.7407,2.6454,2.5843,2.5759,2.5259,2.4569,2.4817,2.4707,2.4503,2.5264,2.5501,2.557,2.645,2.6686,2.6539,2.6172,0.0,0.0,0.0,2.6023,2.6408,2.7468,2.7931,2.8139,2.8368,2.8152,2.7872,2.7872,2.7375,2.6925,2.6975,2.6808,2.647,2.5888,2.5799,2.5742,2.5647,2.5519,2.5148,2.4324,2.4548,2.4484,2.359,2.2913,2.2515,2.2524,2.1127,2.0243,2.0277,1.9615,1.9051,1.8669,1.8788,1.8574,1.788,1.812,1.8108,1.7828,1.7242,1.6769,1.6416,1.5016,1.3867,1.287,1.2181,1.0578,0.8396,0.7972,0.7058,0.571,0.4886,0.2187,-0.2109,-0.9424,-1.4317,-1.8076,-2.4709,-2.6819,-2.644,0.0,0.0,0.0,0.0,0.0,0.0,0.0,0.0,0.0,0.0,0.0,2.5437,2.5434,0.0,0.0,0.0,2.5842,2.6209,2.6812,2.7556,2.7971,2.7971,2.8012,2.7741,2.7079,2.7712,2.8057,2.8043,2.8203,2.8872,2.9979,2.9486,2.9279,2.9289,2.9255,2.9093,2.8799,2.7817,2.697,2.6265,2.6004,2.5616,2.5162,2.4727,2.4818,2.5217,2.5393,2.5592,2.5943,2.6854,2.6778,2.6264,2.6062,2.6135,0.0,0.0,0.0,2.7787,2.7787,2.7752,2.7761,2.7936,2.7879,2.7853,2.8065,2.7799,2.7496,2.7526,2.7526,2.7338,2.6756,2.6454,2.6229,2.6123,2.6193,2.5944,2.504,2.5657,2.5609,2.4067,2.3719,2.3307,2.267,2.1633,2.0974,2.0958,2.0382,2.0008,1.9889,1.9564,1.9325,1.92,1.8968,1.8793,1.8727,1.8277,1.7666,1.6912,1.599,1.505,1.4089,1.347,1.1773,0.9283,0.8744,0.7747,0.6411,0.5311,0.2031,-0.3005,-0.9783,-1.5259,-2.0,-2.5587,-2.7337,-2.6996,0.0,0.0,0.0,0.0,0.0,0.0,0.0,0.0,0.0,0.0,0.0,2.5298,2.5222,2.5898,2.6359,2.6354,2.7052,2.7501,2.7546,2.7596,2.7635,2.7635,2.7627,0.0,2.757,2.7608,2.7627,2.7627,2.839,2.8809,2.8905,2.9599,2.982,2.96,2.9769,2.9742,2.9494,2.8595,2.8109,2.7809,2.6993,2.6745,2.6767,2.5875,2.6169,2.694,2.5948,2.6117,2.6693,2.5832,2.5513,2.5329,2.4557,2.485,2.5458,0.0,0.0,0.0,2.7787,2.8153,2.8703,2.9401,2.8811,2.8271,2.9055,2.8627,2.8075,2.8129,2.8156,2.8156,2.8174,2.7404,2.6624,2.6264,2.6298,2.6151,2.5397,2.6068,2.6117,2.4613,2.4567,2.4245,2.3261,2.2209,2.1507,2.1386,2.1103,2.0797,2.0487,2.0599,2.0499,2.0066,1.9849,1.9793,1.9924,1.92,1.8598,1.809,1.7341,1.6524,1.5568,1.4733,1.3502,1.2009,1.0687,0.9429,0.8271,0.7219,0.5662,0.3002,-0.6597,-1.1694,-1.4623,-2.2816,-2.6295,-2.6877,0.0,0.0,0.0,0.0,0.0,0.0,0.0,0.0,0.0,0.0,0.0,0.0,0.0,2.6085,2.6243,2.6157,2.7399,2.8184,2.8184,2.8827,2.9216,2.9216,2.9264,2.9002,2.8447,2.8989,2.8964,2.837,2.9169,2.9516,2.9377,2.9666,2.9662,2.9418,2.9607,2.9608,2.9392,2.8994,2.8442,2.7853,2.7537,2.7244,2.6951,2.6581,2.6815,2.727,2.6791,2.7083,2.7603,2.7246,2.67,2.6117,2.5823,2.5566,2.5605,2.6631,2.7714,2.8466,2.7934,2.8306,2.8803,2.8547,2.8469,2.8572,2.8861,2.8558,2.8219,2.8246,2.8246,2.8272,2.8298,2.8012,2.7672,2.7344,2.7391,2.7039,2.5959,2.6573,2.6725,2.5558,2.5422,2.532,2.4985,2.3765,2.2988,2.2931,2.2281,2.1795,2.1532,2.1428,2.1212,2.0894,2.0585,2.0335,2.0081,1.9682,1.9302,1.891,1.8168,1.7464,1.685,1.6083,1.5239,1.4279,1.2811,1.0739,0.8285,0.734,0.5734,0.2895,-0.6933,-1.1782,-1.435,-2.3821,-2.7087,-2.6842,0.0,0.0,0.0,0.0,0.0,2.6044,2.5783,2.5847,2.614,2.6661,0.0,0.0,0.0,0.0,2.6978,2.7144,2.8198,2.8838,2.8838,2.9502,2.9905,2.9905,2.9946,2.9692,2.9121,2.9677,2.9665,2.9014,2.9547,2.9731,2.9607,2.9589,2.9454,2.927,2.9375,2.9351,2.9175,2.9067,2.8705,2.8141,2.8146,2.7996,2.768,2.7381,2.7623,2.8067,2.7704,2.7997,2.8557,2.8277,2.7548,2.6782,2.6782,2.6576,2.6495,2.7497,2.8374,2.8906,2.8378,2.8617,2.8911,2.8404,2.8572,2.8863,2.8863,2.8731,2.8597,2.8621,2.8639,2.8646,2.867,2.867,2.8547,2.8129,2.8129,2.7851,2.7032,2.739,2.7414,2.6498,2.6411,2.6277,2.597,2.5075,2.4392,2.4103,2.345,0.0,2.2529,2.2197,2.1857,2.1521,2.1305,2.1022,2.0652,2.0423,2.0172,1.9978,1.9273,1.8688,1.824,1.7585,1.6847,1.6016,1.4913,1.2645,0.9592,0.8306,0.6572,0.3723,-0.6469,-1.1461,-1.409,-2.3984,-2.7358,-2.7075,0.0,0.0,2.5937,2.5165,2.6336,2.7139,2.6355,2.6892,2.7346,2.7245,0.0,0.0,0.0,0.0,0.0,2.9418,2.9492,2.9492,2.9492,2.9492,2.9492,2.9492,2.9492,2.9492,2.9492,2.9492,2.9492,2.9492,2.9433,2.9392,2.9392,2.9326,2.9262,2.9178,2.913,2.9062,2.8994,2.8929,2.8858,2.881,2.8881,2.8984,2.9034,2.832,2.8649,2.942,2.8632,2.8894,2.9494,2.8704,2.786,2.7148,2.7182,2.7605,2.8046,2.7853,2.8374,2.9017,0.0,0.0,0.0,2.9178,2.92,2.92,2.92,2.92,2.9222,2.9302,2.9323,2.9323,2.9386,2.9407,2.92,2.8547,2.8478,2.8529,2.8504,2.8504,2.8257,2.7514,2.7441,2.7073,2.6175,2.6067,2.5659,2.4721,2.4522,2.41,2.3359,2.2873,2.2432,2.1972,2.2022,2.1969,2.184,2.1488,2.1334,2.1334,2.0733,2.0218,1.9847,1.917,1.8268,1.7275,1.6924,1.5195,1.2522,1.0277,0.8423,0.5915,-0.4966,-1.0478,-1.3427,-2.3002,-2.6948,-2.747,0.0,2.5494,2.5989,2.5744,2.6575,2.7182,2.6956,2.7029,2.7303,0.0,0.0,0.0,2.7672,2.795,2.8413,2.9212,2.9347,2.9347,2.9347,2.9411,2.9433,2.9433,2.9472,2.9492,2.9492,2.9492,2.9472,2.9433,2.9353,2.933,2.9326,2.9262,2.9178,2.9112,2.9062,2.8952,2.8858,2.8881,2.8815,2.8718,2.881,2.9012,2.9301,2.9137,2.9472,2.9996,2.9749,2.9747,2.9784,2.9574,2.8829,2.7918,2.7213,2.7397,2.7874,2.7809,2.8419,2.9085,2.9089,0.0,0.0,0.0,0.0,0.0,2.9377,2.9436,2.9494,2.9513,2.9513,2.9492,2.9409,2.9407,2.937,2.9277,2.9038,2.8779,2.8529,2.8554,2.8506,2.8288,2.8318,2.8233,2.7973,2.7502,2.6889,0.0,2.5481,2.4764,2.3798,2.3374,2.3141,2.3052,2.2979,2.2848,2.2669,2.2371,2.2218,2.2156,2.1423,2.1131,2.1234,2.0362,1.9786,1.9405,1.8687,1.7719,1.6268,1.1988,0.8857,0.5691,-0.5564,-1.0507,-1.2674,-2.3516,-2.6601,-2.55,2.4607,2.551,2.6185,2.5849,2.7045,2.7923,2.7587,2.7735,2.8086,0.0,0.0,0.0,2.8458,2.8495,2.8679,2.9163,2.924,2.9262,2.9262,2.9286,2.931,2.931,2.9351,2.9372,2.9372,2.9372,2.937,2.931,2.9289,2.9246,2.9262,2.9197,2.9112,2.9062,2.8994,2.8881,2.8761,2.881,2.8761,2.8644,2.8737,2.8915,2.9129,2.9297,2.9533,2.982,3.0,3.0003,2.9905,3.0003,2.963,2.8853,2.7058,2.7475,2.85,2.7603,2.8233,2.9228,2.9178,2.9246,2.9332,2.9353,0.0,0.0,2.9662,2.9697,2.9734,2.9734,2.9734,2.9698,2.9608,2.9608,2.9626,2.9716,2.9514,2.9299,2.9098,2.8802,2.873,2.9103,2.8505,2.8248,2.8703,2.8331,2.7774,2.7025,2.6486,2.5579,2.4134,2.4114,2.4028,2.3764,2.3584,2.348,2.3374,2.3221,2.3135,2.3076,2.2513,2.2315,2.2478,2.1813,2.1309,2.1026,2.0541,1.9907,1.8906,1.5138,1.1989,0.829,-0.4055,-0.9034,-1.073,-2.26,-2.5923,-2.4578,0.0,2.5724,2.6591,2.587,2.7643,2.8916,2.8212,2.8691,2.9156,0.0,2.9156,2.9193,2.9285,2.9211,2.9156,2.9156,2.9115,2.9115,2.9156,2.9156,2.9156,2.9178,2.92,2.92,2.92,2.92,2.92,2.92,2.9178,2.9178,2.9178,2.9112,2.9044,2.8952,2.8905,2.8815,2.8694,2.8694,2.8644,2.8612,2.8687,2.8743,2.8797,2.9123,2.9272,2.9355,2.9769,2.9921,2.9972,3.0142,3.019,2.9727,2.7141,2.797,2.9496,2.7605,2.818,2.9437,2.9351,2.9454,2.9551,2.9607,2.9693,0.0,2.9899,2.9842,2.9804,2.9915,2.9934,2.9934,2.9918,2.9918,2.9918,2.9934,2.9943,2.9924,2.9899,2.9235,2.9042,2.9817,2.849,2.7865,2.8727,2.8776,2.8396,2.7523,2.7153,2.6223,2.4483,2.4894,2.4894,2.4209,2.4026,2.3953,2.4008,2.3971,2.3971,2.4008,2.3707,2.359,2.361,2.3286,2.2837,2.2311,2.2376,2.1861,2.0781,1.8998,1.6286,1.1988,-0.0978,-0.6207,-0.7907,-2.0041,-2.4036,-2.3355,2.5203,2.6489,2.7515,2.7303,2.8201,2.8897,2.868,2.879,2.8881,2.8881,2.8881,2.9119,2.9759,2.9265,2.8881,2.8881,2.8615,2.8615,2.8952,2.8779,2.8785,2.9112,2.9156,2.92,2.92,2.92,2.92,2.92,2.9152,2.9089,2.904,2.8975,2.8905,2.8852,2.8785,2.8718,2.8694,2.8637,2.8612,2.8612,2.8785,2.8984,2.9209,2.9494,2.9735,2.994,3.0098,3.0142,3.0142,3.0204,3.0079,2.9861,2.9295,2.9366,2.9584,2.9212,2.9398,2.9732,2.9697,2.975,2.9836,2.9836,2.9342,0.0,2.9884,2.957,2.9284,2.9994,3.0142,3.0114,2.9992,2.9977,3.0022,3.0117,3.0196,3.0145,2.9924,2.9806,2.9794,2.9965,2.9732,2.9346,2.8859,2.9417,2.8902,2.6721,2.5914,2.5336,2.4949,2.4999,2.4966,2.4835,2.4731,2.469,2.4704,2.4486,2.4486,2.4704,2.4204,2.412,2.4388,2.4144,2.3892,2.363,2.3699,2.3457,2.2905,2.157,1.7706,1.1746,0.3366,-0.1419,-0.469,-1.3694,-1.6879,-1.6875,2.5659,2.6617,2.75,2.7629,2.8328,2.8834,2.881,2.8785,2.8785,2.8785,2.8785,2.912,2.9904,2.9284,2.8761,2.8712,2.8601,2.8626,2.8743,2.87,2.8749,2.8929,2.8975,2.8998,2.8998,2.8998,2.8998,2.8998,2.8975,2.8929,2.89,2.8858,2.8881,2.8905,2.8743,2.8743,2.8791,2.8662,2.8587,2.8612,2.8712,2.891,2.9185,2.9456,2.9716,2.9975,3.0128,3.0204,3.0204,3.0204,3.0128,2.9973,2.9467,2.9601,2.9836,2.9307,2.9526,2.9946,2.9867,2.9915,2.9992,2.9992,2.9746,0.0,0.0,2.9947,2.9775,3.0208,3.0304,3.0292,3.0267,3.0254,3.026,3.034,3.0404,3.0405,3.0267,2.9894,2.9806,3.0208,2.9493,2.8975,2.9033,2.941,2.8961,2.7258,2.7152,2.6554,2.5215,2.5538,2.5568,2.5149,2.5139,2.5149,2.5155,2.5014,2.5024,2.5155,2.4886,2.4837,2.4985,2.4861,2.473,2.4625,2.4365,2.4183,2.4011,2.2836,1.9612,1.4742,0.7734,0.3181,-0.0316,-0.7771,-1.1629,-1.3238,2.6146,2.6824,2.7507,2.7778,2.8324,2.8737,2.8712,2.8712,2.8796,2.9105,2.8971,2.9268,3.0212,2.9613,2.9091,2.8979,2.8869,2.8876,2.8987,2.892,2.8905,2.898,2.9168,2.9113,2.8804,2.8931,2.8974,2.8785,2.8785,2.8785,2.8785,2.8785,2.8907,2.913,2.8864,2.8858,2.9053,2.8785,2.8662,2.8662,2.8662,2.8785,2.9026,2.9297,2.9551,2.9789,3.0083,3.019,3.0204,3.0204,3.0171,3.0009,2.9256,2.9579,3.0073,2.9212,2.9522,3.0122,3.0026,3.0085,3.0112,2.9958,2.9902,2.9967,0.0,0.0,0.0,3.034,3.043,3.0471,3.0519,3.052,3.0462,3.0288,3.0477,3.0567,3.0397,2.992,2.9829,3.046,2.9245,2.8607,2.9256,2.9137,2.8805,2.8312,2.8579,2.7811,2.5646,2.6039,2.6036,2.5376,2.5408,2.5449,2.5433,2.5429,2.5434,2.5446,2.5445,2.542,2.5392,2.5327,2.5273,2.5234,2.4723,2.4502,2.4439,2.3513,2.1544,1.8477,1.2102,0.7872,0.4567,-0.1888,-0.6272,-0.9049,2.7028,2.7845,2.8591,2.8591,2.854,2.8492,2.8458,2.8353,2.8756,3.0123,2.9694,2.9819,3.1356,3.0773,3.0308,3.0279,2.9432,2.9308,3.0295,2.9612,2.9285,2.9582,3.0446,3.0268,2.8822,2.9503,2.9521,2.8785,2.8785,2.8761,2.8694,2.8694,2.9075,2.9686,2.912,2.9193,2.966,2.9101,2.8881,2.8881,2.8881,2.8863,2.8957,2.9338,2.9514,2.957,2.9972,3.0147,3.0204,3.0204,3.0079,2.9969,3.0079,3.0084,3.0052,3.0158,3.0278,3.0355,3.0343,3.0355,3.0175,2.9406,2.8687,2.8371,2.9083,0.0,2.8616,3.016,0.0,3.0582,3.0578,0.0,0.0,2.9562,3.0134,3.0428,2.9635,3.0165,3.0641,3.0677,3.0492,3.0102,2.9445,2.8729,2.8563,2.918,2.7948,2.7036,2.6718,2.6071,2.5665,2.5576,2.5579,2.5581,2.5583,2.5581,2.5572,2.5585,2.5584,2.5527,2.5398,2.5269,2.5187,2.5105,2.4927,2.458,2.4144,2.4011,2.2921,2.0883,1.6486,1.2896,0.9587,0.4293,0.1352,-0.0449,2.7238,2.7723,2.821,2.8388,2.8362,2.8309,2.83,2.8594,2.9244,3.035,3.0196,3.0428,3.1586,3.0998,3.0457,3.0366,3.0034,2.9981,3.0409,3.0137,3.0029,3.0155,3.0648,3.0586,2.9935,2.9896,2.9966,3.0067,2.9595,2.9377,2.9352,2.9823,3.002,2.997,2.9698,2.9765,3.0088,2.9728,2.96,2.96,2.96,2.96,2.9593,2.9524,2.9625,2.9872,3.0083,3.0176,3.0204,3.0204,3.0138,3.009,3.0253,3.0247,3.0196,3.0355,3.0398,3.0398,3.0398,3.0398,3.0198,2.9313,2.8852,2.8555,2.8431,2.8133,2.8116,2.8876,0.0,0.0,0.0,0.0,0.0,0.0,3.0472,3.0622,3.0256,3.0587,3.0827,3.072,0.0,0.0,3.0242,2.9916,2.9636,2.9472,2.8339,2.742,2.6933,2.6073,2.5621,2.5661,2.5625,2.5603,2.5597,2.5558,2.55,2.5425,2.543,2.5362,2.5214,2.4928,2.4771,2.4724,2.4362,2.3915,2.3425,2.2963,2.2212,2.1073,1.8248,1.5505,1.2775,1.0416,0.7205,0.364,2.7241,2.7504,2.7818,2.8063,2.8119,2.819,2.8337,2.8805,2.9532,3.0477,3.0606,3.0906,3.1735,3.1505,3.126,3.115,3.126,3.1292,3.1182,3.1129,3.0991,3.0747,3.1106,3.1088,3.0657,3.0486,3.055,3.093,3.0405,3.0115,3.0133,3.0713,3.0884,3.067,3.0501,3.0626,3.0894,3.0613,3.054,3.0551,3.0312,3.0157,2.995,2.962,2.9734,3.0053,3.0128,3.0171,3.0204,3.0204,3.0152,0.0,3.0266,3.026,3.0235,3.0367,3.0398,3.0398,3.0398,3.0398,3.0198,2.9313,2.9113,2.8981,2.8386,2.828,2.8365,2.8689,2.9253,0.0,0.0,0.0,3.0646,3.038,0.0,3.0723,3.0489,3.0719,3.0857,3.0768,3.0746,0.0,0.0,3.0836,3.0547,2.9881,2.8828,2.7913,2.7267,2.6171,2.5595,2.5634,2.5782,2.5749,2.5522,2.5657,2.5557,2.5224,2.5232,2.5146,2.4992,2.4592,2.4417,2.4356,2.3794,2.327,2.2778,2.204,2.1453,2.0878,1.9417,1.7434,1.5296,1.4093,1.0841,0.6778,2.7085,2.7491,2.7789,2.7818,2.7922,2.8176,2.8679,2.8788,2.9315,3.0698,3.0889,3.1185,3.1986,3.2826,3.3299,3.3299,3.3353,3.3389,3.3406,3.2858,3.2181,3.142,3.2321,3.2099,3.0553,3.1392,3.148,3.0697,3.0866,3.0948,3.0948,3.0985,3.1401,3.2117,3.1527,3.1704,3.2389,3.1796,3.1654,3.1778,3.0921,3.0221,2.9702,2.9551,2.968,2.9905,3.0072,0.0,0.0,3.0204,3.0064,0.0,0.0,0.0,0.0,0.0,0.0,0.0,0.0,0.0,0.0,2.9313,0.0,0.0,0.0,0.0,2.9518,0.0,3.0693,3.0732,3.0676,3.0723,3.0498,2.9585,3.0216,0.0,0.0,3.0329,3.0898,3.0898,3.0898,3.0898,0.0,3.0896,3.0827,3.0669,2.9133,2.8154,2.8074,2.6442,2.549,2.551,2.6122,2.6094,2.5318,2.5948,2.5847,2.5,2.5011,2.4943,2.4804,2.4385,2.4174,2.4079,2.3419,2.2848,2.2378,2.1749,2.1227,2.0745,2.0311,1.909,1.7195,1.3947,1.1679,0.9791,2.772,2.7954,2.799,2.7657,2.8049,2.8631,2.9338,2.9878,3.0575,3.162,3.2632,3.3401,3.3663,3.4434,3.4676,3.4112,3.4137,3.3946,3.3474,3.3283,3.3055,3.2808,3.3243,3.3452,3.3417,3.2816,3.2706,3.3068,3.2067,3.165,3.1799,3.2343,3.2451,3.218,3.2128,3.2324,3.2636,3.1881,3.1987,3.2635,3.1759,3.1066,3.0508,2.9978,2.982,2.9921,3.0098,3.019,0.0,3.0204,3.0152,3.0118,3.0253,3.026,3.0241,3.0355,3.0398,0.0,0.0,0.0,3.0258,2.9377,0.0,0.0,0.0,0.0,0.0,0.0,0.0,2.9264,2.9855,3.0464,3.0758,3.0442,3.0659,3.076,0.0,3.0663,3.0811,3.0769,3.0855,3.0873,3.0774,3.0289,3.0143,3.054,2.9013,2.8067,2.8047,2.6924,2.6013,2.5394,2.6071,2.6264,2.5894,2.6594,2.6702,2.6191,2.5697,2.5273,2.4908,2.3876,2.3338,2.3218,2.2626,2.222,2.1882,2.1195,2.0699,2.0361,1.9732,1.8584,1.7124,1.5624,1.3898,1.1804,2.8288,2.8579,2.8559,2.8224,2.865,2.9273,3.0039,3.0786,3.1532,3.2332,3.3569,3.437,3.437,3.5105,3.5344,3.4779,3.5109,3.4888,3.3875,3.4123,3.4091,3.3529,3.3618,3.3917,3.4394,3.3594,3.3369,3.3795,3.3104,3.2547,3.2216,3.3099,3.3073,3.2338,3.2828,3.314,3.3302,3.2723,3.2767,3.3134,3.2275,3.1539,3.0958,0.0,3.0205,2.9988,0.0,3.0204,3.0204,3.0204,3.0199,3.0207,3.0279,3.0305,3.0311,3.0367,3.0398,3.0398,3.0398,3.0449,0.0,2.9796,2.9735,0.0,2.9472,0.0,2.8783,0.0,0.0,0.0,2.9199,3.0098,3.0801,3.0488,3.0703,3.0898,0.0,3.0808,3.0752,3.0712,3.0788,3.0788,3.0682,3.02,3.0055,3.0472,2.9168,2.8212,2.7884,0.0,2.6081,2.5178,2.6121,2.6453,2.5991,2.6973,2.7177,2.661,2.6131,2.5623,2.5012,2.4284,2.3541,2.2815,2.2536,2.2073,2.1432,2.0731,2.0296,1.9945,1.9184,1.8238,1.7272,1.6578,1.4766,1.2278,2.8766,2.9313,2.9575,2.9523,2.9712,3.0056,3.0768,3.1477,3.2184,3.2869,3.368,3.4236,3.4236,3.499,3.5498,3.5446,3.6249,3.6142,3.4661,3.537,3.5144,3.3634,3.3582,3.3635,3.3653,3.3811,3.3626,3.3055,3.3862,3.3586,3.2327,3.3195,3.3204,3.2617,3.3534,3.4062,3.4293,3.42,3.3844,3.3269,3.2443,3.1694,3.1071,3.1159,3.0747,3.0117,3.019,3.0204,3.0204,3.0204,3.0204,3.0199,3.0286,3.0292,3.0305,3.0386,3.0398,3.041,3.039,3.0441,3.051,3.0498,0.0,0.0,0.0,0.0,3.1745,0.0,0.0,0.0,0.0,2.9726,3.0566,2.9785,3.0351,3.0878,3.0804,3.0735,3.0693,3.0709,3.0652,3.0626,3.0601,3.0542,3.051,3.0472,2.9561,2.8591,2.7695,0.0,2.5835,2.4983,2.6349,2.6632,2.5652,2.7091,2.7321,2.6404,2.6368,2.5928,2.5176,2.5497,2.4645,2.291,2.3078,2.2365,2.1039,2.0431,2.0015,1.9617,1.8808,1.8187,1.7571,1.665,1.4325,1.1408,3.0036,3.0762,3.1196,3.1177,3.0801,3.0715,3.144,3.2182,3.2924,3.3761,3.5042,3.5873,3.5873,3.6624,3.6807,3.6118,3.6381,3.6209,3.5314,3.5784,3.5687,3.4729,3.4999,3.54,3.5942,3.5468,3.5214,3.5193,3.4166,3.3593,3.3511,3.2426,3.2533,3.3589,3.3271,3.3543,3.4218,3.2989,3.2443,3.2405,3.2297,3.2166,3.1974,0.0,3.0807,3.019,3.0185,3.0204,3.0204,3.0204,3.0199,3.0207,3.0279,3.0286,3.0323,3.0379,3.0398,3.0402,3.0451,3.0518,3.0591,3.0646,3.07,3.0821,0.0,0.0,0.0,0.0,0.0,0.0,0.0,0.0,3.0015,3.0488,3.0719,3.0827,3.0801,3.0706,3.0626,3.0622,3.0006,2.9834,3.0468,2.9843,2.9629,3.0152,2.9279,2.8593,2.8373,0.0,0.0,2.5694,2.6604,2.6878,2.6351,2.7303,2.7844,2.7929,2.7314,2.6677,2.5965,2.5331,2.427,2.2878,2.276,2.1973,2.0828,2.0379,2.0015,1.9617,1.8808,1.7558,1.6151,1.5318,1.3554,1.1516,3.1247,3.1878,3.2179,3.1852,3.1714,3.18,3.2214,3.2628,3.3218,3.4034,3.5175,3.5918,3.5918,3.6609,3.697,3.6609,3.6673,3.64,3.5523,3.6079,3.6109,3.537,3.5255,3.5548,3.6295,3.5584,3.529,3.5509,3.4517,3.3826,3.3469,3.2884,3.2785,3.311,3.3441,3.3906,3.4315,3.2633,3.2231,3.2654,3.1996,3.1805,0.0,3.1464,3.0837,3.0204,3.0204,3.0204,3.0204,3.0204,3.0213,3.0221,3.0279,3.0299,3.0316,3.0379,3.0425,3.0449,3.0441,3.0552,3.065,3.0645,3.0743,3.0938,3.1287,3.1003,3.058,0.0,0.0,0.0,0.0,0.0,3.0242,3.0776,3.0829,3.0771,3.072,3.0646,3.0579,3.0567,3.0056,2.9918,3.0404,2.9536,2.9276,3.0046,2.9428,0.0,0.0,0.0,0.0,2.5204,2.6302,2.6743,2.6366,2.7629,2.827,2.8353,2.7905,2.7237,2.6382,2.6056,2.4829,2.2984,2.29,2.1984,2.0496,2.0154,1.966,1.9109,1.8266,1.705,1.5652,1.5005,1.37,1.2169,3.2394,3.2826,3.2852,3.2214,3.2714,3.3197,3.3197,3.3197,3.3455,3.4145,3.4887,3.5335,3.5335,3.5921,3.6451,3.686,3.7013,3.6697,3.5765,3.6471,3.6552,3.5792,3.5133,3.5072,3.5654,3.5,3.4699,3.4825,3.477,3.4081,3.2876,3.352,3.3254,3.231,3.3655,3.4264,3.4189,3.2857,3.2692,3.3222,3.1788,3.1309,3.1461,3.1362,3.0856,3.0204,3.0204,3.0204,3.0204,3.0204,3.0213,3.0221,3.0279,3.0318,3.0316,3.0379,3.0449,3.0482,3.0439,3.0556,3.0696,3.0653,3.0771,3.1092,3.1855,3.2031,3.1777,3.0918,3.1262,3.0838,0.0,0.0,3.0838,3.0933,3.0849,3.0708,3.0477,3.0436,3.0399,3.0337,3.018,0.0,3.0378,2.957,2.9322,3.0023,2.9767,0.0,0.0,0.0,0.0,2.456,2.6013,2.6633,2.6267,0.0,2.846,2.8182,2.8182,2.7642,2.6615,2.7052,2.5857,2.3345,2.3341,2.2232,2.0331,1.9919,1.9221,1.8344,1.7516,1.6582,1.5656,1.5232,1.4247,1.3016,3.3635,3.383,3.3835,3.3714,3.43,3.48,3.48,3.48,3.4852,3.499,3.5645,3.6111,3.6111,3.6215,3.6451,3.686,3.69,3.7046,3.7343,3.779,3.7453,3.6168,3.6224,3.6073,3.5555,3.5406,3.505,3.4487,3.4365,3.3956,3.3259,3.1899,3.2275,3.407,3.3025,3.2536,3.2555,3.3051,3.2958,3.2487,3.2365,3.2338,3.2314,3.1691,3.0935,3.0204,3.0204,3.0204,3.0204,3.0204,3.0245,3.0279,3.0312,3.033,3.0379,3.0398,3.0449,3.051,3.056,3.0639,3.0712,3.0821,3.0873,3.0936,3.1094,3.1133,3.0879,3.0019,2.9847,2.9728,2.9216,0.0,0.0,3.1675,3.1148,3.0393,2.9713,2.9547,2.9496,2.9439,2.8772,2.8887,3.0344,3.0021,2.9782,2.9915,2.9608,0.0,0.0,0.0,0.0,0.0,2.7006,0.0,0.0,0.0,2.7777,2.8182,2.8182,2.7794,2.7085,2.7175,2.6264,2.4628,2.3982,2.274,2.112,2.0404,1.9251,1.7868,1.7393,1.6411,1.5187,1.5153,1.4408,1.342,3.4576,3.4663,3.4663,3.4663,3.5266,3.5904,3.6318,3.6579,3.6464,3.5859,3.5749,3.5953,3.6563,3.6597,3.686,3.7469,3.7542,3.7576,3.7731,3.7497,3.7077,3.6509,3.5773,3.5423,3.5497,3.5052,3.4697,3.4404,3.392,3.3355,3.2705,3.1798,3.1856,3.2668,3.2274,3.2574,3.3325,3.2543,0.0,3.292,3.177,3.1603,3.1939,3.1126,3.0567,3.0204,3.0204,3.0204,3.0185,3.0199,3.024,3.0292,3.0299,3.0355,3.0398,3.0398,3.0472,3.0552,3.0552,3.0681,3.0799,3.0801,3.0853,3.0898,3.0898,3.0898,3.0781,3.0351,3.0174,3.0072,3.0108,3.0447,0.0,0.0,0.0,0.0,3.0133,2.961,2.9274,2.9216,2.8395,2.8345,2.959,2.9456,2.9276,2.9289,2.9382,0.0,0.0,0.0,0.0,0.0,0.0,0.0,0.0,0.0,0.0,2.7922,2.7777,2.743,2.6956,2.6873,2.6017,2.4557,2.3562,2.2535,2.1515,2.0053,1.8832,1.776,1.7102,1.6281,1.5445,1.5187,1.464,1.3894,3.5611,3.5745,3.5879,3.6052,3.6759,3.7502,3.7955,3.8397,3.8251,3.6873,3.6116,3.6016,3.6946,3.7017,3.7321,3.8034,3.8101,3.8077,3.7977,3.7211,3.6804,3.6946,3.5349,3.4791,3.5479,3.4643,3.4195,3.4143,3.3695,3.2973,3.2105,3.2105,3.1767,3.1203,3.2011,0.0,0.0,0.0,3.2561,3.3523,3.1477,3.1115,3.1637,3.0605,3.0204,3.0223,3.0414,3.0371,3.0284,3.0636,3.0561,3.0323,3.0328,3.0375,3.0439,3.0439,3.0518,3.0607,3.056,3.0721,3.0873,3.0777,3.0813,3.0898,3.0898,3.0898,3.0898,3.0898,3.0804,3.074,3.0839,3.0722,0.0,0.0,0.0,0.0,0.0,2.9863,2.9448,2.9205,2.867,2.8499,2.8957,2.9008,2.8848,2.8464,2.8911,2.844,2.6737,0.0,0.0,0.0,0.0,2.733,2.8431,0.0,2.7858,2.7701,2.7369,2.7021,2.6691,2.659,2.5878,2.4661,2.3412,2.2477,2.1644,1.971,1.8563,1.7923,1.7028,1.6238,1.5623,1.5232,1.4743,1.414,3.6991,3.7554,3.8053,3.8772,3.9899,4.0424,3.9765,4.0321,4.0108,3.8181,3.7559,3.7306,3.7414,3.7414,3.7614,3.8068,3.8101,3.8314,3.877,3.8042,3.7637,3.7782,3.624,3.5404,3.5497,3.4643,3.3915,3.3299,3.3975,3.3556,0.0,3.2105,3.2067,0.0,0.0,0.0,0.0,3.4264,3.4262,3.372,3.2813,3.2501,3.2405,3.0815,3.0204,3.03,3.1083,3.0923,3.0535,3.2116,3.1646,3.0392,3.0392,3.0472,3.0571,3.0571,3.0633,3.0682,3.0677,3.0788,3.0894,3.0873,3.0897,3.0898,3.0898,3.0898,3.0898,3.0898,3.0834,3.0962,3.1581,3.1083,3.0843,0.0,0.0,0.0,0.0,2.993,3.0012,2.9203,2.9613,2.9724,2.9065,2.9593,2.9303,2.7737,2.794,2.7749,2.682,2.7752,0.0,2.7331,0.0,2.9165,2.9298,2.8246,2.773,2.7701,2.7369,2.7021,2.6691,2.6691,2.6436,2.5947,2.4677,2.3252,2.1684,1.9996,1.91,1.8574,1.7563,1.6324,1.5153,1.5108,1.4501,1.3658,3.8841,3.9067,3.9434,4.025,4.078,4.1149,4.1274,4.1363,4.1117,4.0318,3.9044,3.8312,3.8492,3.8166,3.8099,3.8478,3.8572,3.8695,3.895,3.7748,3.7081,3.7188,3.559,3.4717,3.4717,3.4383,3.3878,3.3187,3.4012,3.3612,0.0,0.0,0.0,0.0,0.0,3.3259,3.4302,3.3747,3.4012,3.4644,3.339,3.3186,3.3532,3.2333,3.1872,3.1929,3.2275,3.2184,3.2027,3.2728,3.2192,3.1255,3.1293,3.1704,3.2064,3.1533,3.1423,3.149,3.149,3.1198,3.0891,3.0894,3.0897,3.0898,3.0898,3.0898,3.0898,3.0855,3.0742,3.0755,3.1032,3.1206,3.1282,0.0,0.0,0.0,0.0,2.9873,2.9562,2.9098,2.8828,2.8715,2.8803,2.9525,2.9912,2.9728,2.9322,2.8557,2.7401,2.7812,2.8427,2.9195,0.0,2.8536,2.9761,2.8194,2.7289,2.71,2.6775,2.6521,2.6399,2.6399,2.5799,2.4719,2.402,2.2838,2.1385,2.0499,1.9798,1.9182,1.8189,1.7285,1.6492,1.6136,1.5557,1.4939,4.0185,4.0354,4.0682,4.1507,4.1728,4.1967,4.2526,4.2357,4.2086,4.185,4.0672,3.9732,3.947,3.882,3.8504,3.8803,3.8862,3.8921,3.8997,3.7701,3.6978,3.7039,3.546,3.4569,3.4569,3.4351,3.4008,3.3564,3.4147,0.0,0.0,0.0,0.0,0.0,3.2844,3.3469,3.4935,3.3872,3.4199,3.5316,3.3921,3.3751,3.4214,3.3327,3.301,3.3029,3.3288,3.3233,3.3111,3.3626,3.3275,3.2598,3.2384,3.2739,3.3095,3.2213,3.1987,3.1976,3.1722,3.1279,3.0909,3.0892,3.0895,3.0897,3.0898,3.0898,3.0878,3.0796,3.0672,3.061,3.0597,3.1062,3.1255,3.0694,0.0,0.0,0.0,3.0231,2.9877,2.9749,2.9346,2.9065,2.9071,2.9794,3.0324,3.0473,0.0,2.9625,2.8519,2.8576,0.0,0.0,0.0,0.0,0.0,2.8074,2.7085,2.6825,2.6399,2.622,2.622,2.6079,2.5313,2.4115,2.3682,2.283,2.1752,2.1041,2.0439,1.9773,1.8745,1.7929,1.7193,1.6787,1.6199,1.5558,4.0935,4.1427,4.1923,4.2737,4.3214,4.3479,4.3479,4.3548,4.3287,4.2492,4.2484,4.1907,4.0191,3.9331,3.8892,3.891,3.891,3.8921,3.8997,3.822,3.7831,0.0,0.0,3.5479,3.5479,3.4716,3.434,3.4386,0.0,0.0,3.3381,0.0,3.2637,3.3599,3.3672,3.4279,3.5297,3.5339,3.5412,3.5418,3.4608,3.428,3.4214,3.3327,3.301,3.3106,3.3983,3.3768,3.3355,3.5087,3.5169,3.4428,3.356,3.3345,3.3239,3.2343,3.2109,3.1914,3.1055,3.0864,3.0907,3.0907,3.0894,3.0897,3.0897,3.0898,3.0857,3.0728,3.0645,3.061,3.0597,3.0617,3.0617,3.0598,0.0,0.0,0.0,3.1095,3.1468,3.1468,3.1987,3.1724,3.0151,3.072,3.0511,0.0,0.0,0.0,0.0,0.0,0.0,2.944,3.0101,0.0,2.9423,2.7954,2.7213,2.7181,2.6521,2.622,2.6168,2.5721,2.5275,2.4847,2.4158,2.3666,2.3157,2.1782,2.0959,2.046,1.9272,1.7892,1.6627,1.6577,1.5946,1.4997,4.2704,4.2831,4.3028,4.3249,4.3444,4.3548,4.3548,4.3667,4.3627,4.3402,4.295,4.2477,4.1878,4.0614,3.9782,0.0,3.9322,3.9064,0.0,3.8331,3.7885,3.7894,3.6352,3.5497,3.5497,3.4716,3.434,3.4386,0.0,0.0,0.0,3.4395,3.4244,3.4699,3.4716,3.499,3.5444,3.5456,3.5546,3.567,3.5418,3.5321,3.5282,3.502,3.4903,3.4942,3.5224,3.5191,3.5084,3.5645,3.5688,3.5451,3.5209,3.5165,3.4998,3.4139,3.3866,3.3807,3.3534,3.2619,3.186,3.2467,3.1749,3.1205,3.234,3.2574,3.2193,3.0949,3.1552,3.2116,3.1526,3.1913,3.2106,3.1507,3.1429,0.0,3.0675,0.0,3.0732,3.0695,3.0767,3.0573,2.9981,3.0701,0.0,0.0,0.0,0.0,0.0,0.0,0.0,0.0,2.8865,0.0,2.8722,2.7495,2.6725,2.6537,2.631,2.622,2.6168,2.5422,2.502,2.4863,2.3879,2.3436,2.3201,2.1871,2.1287,2.1036,1.993,1.9171,1.8753,1.8355,1.778,1.7079,4.3497,4.3513,4.3532,4.3532,4.36,4.3667,4.3667,4.3786,4.3837,4.3837,4.3471,4.3169,4.3169,4.1964,0.0,4.0314,3.9853,3.9454,3.912,3.8618,3.8209,3.7912,3.6928,3.6285,3.5994,3.5205,0.0,3.4936,3.5207,3.5459,3.5627,3.5135,3.5034,3.5288,3.5302,3.5425,3.5609,3.562,3.5689,3.5799,3.5799,3.5799,3.5799,3.5799,3.5799,3.5799,3.5834,3.5857,3.5911,3.5894,3.5895,3.5912,3.5988,3.5991,3.5837,3.4959,3.4705,3.4627,3.4295,3.3417,3.2714,3.3266,3.2604,3.21,3.3162,3.335,3.2994,3.1904,3.2453,3.2967,3.2435,3.2774,3.2938,3.2377,3.201,3.1632,3.11,0.0,3.0554,3.1101,0.0,0.0,0.0,3.0992,3.1164,0.0,0.0,0.0,0.0,0.0,0.0,2.9462,2.8611,0.0,2.8546,2.7572,2.7028,2.6816,2.6407,2.622,2.6168,2.5307,2.4902,2.4823,2.3809,2.3363,2.3216,2.2175,2.1609,2.1321,2.0446,1.985,1.9448,1.8869,1.8267,1.7689,4.3532,4.3548,4.3615,0.0,4.3719,0.0,4.3804,4.3851,4.3897,4.3897,4.3942,4.4005,4.4005,4.3336,4.2259,4.0698,0.0,0.0,0.0,3.9101,3.8767,3.8024,3.7931,3.7594,3.6907,3.6179,3.582,3.5856,3.5018,3.4751,3.4926,3.4926,3.5117,3.5432,3.5476,3.5607,3.5803,3.581,3.5799,3.5799,3.5799,3.5799,3.5799,3.5799,3.5799,3.5799,3.5864,3.5898,3.5892,3.5909,3.5908,3.5912,3.5988,3.5991,3.5837,3.5037,3.4783,3.4608,3.3807,3.3534,3.3495,3.3573,3.3578,3.3548,3.3437,3.3445,3.3457,3.3327,3.333,3.3371,3.3303,3.3333,3.3334,3.3219,3.2502,3.193,3.1807,3.1027,3.0986,0.0,0.0,0.0,0.0,3.1469,3.0603,0.0,0.0,0.0,0.0,0.0,3.1157,2.9464,2.9054,2.8829,2.8767,2.8117,2.7771,2.7822,2.6797,2.625,2.6198,2.5301,2.4863,2.4823,2.3909,2.3422,2.3275,2.2558,2.1941,2.1369,2.0746,1.9952,1.8987,1.8375,1.7754,1.7213,0.0,0.0,4.3753,4.3753,4.3818,4.3883,4.3883,4.3929,4.3974,4.3974,4.4005,4.4005,4.4005,4.3838,4.3318,4.2314,4.1107,4.003,3.9157,3.9101,3.9027,3.8822,3.8282,3.7965,3.7943,3.7272,3.6706,3.6272,3.5397,3.5081,3.5273,3.5283,3.5406,3.562,3.5708,3.5766,3.581,3.5791,3.5799,3.5799,3.5799,3.5799,3.5799,3.5799,3.5799,3.5799,3.5826,3.5852,3.5903,3.5894,3.5923,3.5988,3.5991,3.5991,3.5952,3.5759,3.5681,3.5642,3.5447,3.4901,3.4549,3.5213,3.538,3.5037,3.3691,3.4378,3.492,3.3575,3.4315,3.4983,3.4315,3.4689,3.4903,3.427,3.3866,3.3419,3.2786,3.2333,3.2184,0.0,3.2305,3.2127,3.2184,3.1411,3.1238,0.0,0.0,0.0,0.0,3.1374,3.0358,2.864,2.8587,2.856,2.8414,2.7737,2.7694,2.826,2.7454,2.685,2.6482,2.5376,2.4719,2.441,2.3754,2.3466,2.3363,2.2221,2.1704,2.1465,2.0396,1.985,1.954,1.8975,1.8429,1.7865,4.3804,4.3818,4.3869,4.3869,4.3897,4.3961,4.3961,4.3974,4.4005,4.4005,4.4005,4.4005,4.4005,4.4005,4.367,4.2872,4.1999,4.0977,3.977,3.9723,3.9565,3.9175,3.8876,3.8812,3.8995,3.8319,3.7452,3.6408,3.5534,3.5193,3.5405,3.5393,3.5512,3.5708,3.5775,3.5793,3.5799,3.5799,3.5799,3.5799,3.5799,3.5799,3.5799,3.5799,3.5799,3.5799,3.5842,3.5866,3.5889,3.5904,3.5931,3.5991,3.5991,3.5991,3.5991,3.5991,3.5991,3.5991,3.5991,3.5642,3.5411,3.5886,3.5994,3.5741,3.478,3.5246,3.5626,3.4686,3.5217,3.5696,3.5235,3.5504,3.5627,3.5078,3.4571,3.4051,3.3493,3.2943,0.0,3.3061,3.2688,3.2504,3.2788,3.1897,3.156,3.2302,3.1611,0.0,3.1827,3.1619,3.0712,2.8955,2.8614,2.8587,2.8817,2.8434,2.8456,2.8837,2.7777,2.7059,2.6555,2.5417,2.4679,2.4261,2.3754,2.3538,2.3422,2.2512,2.1894,2.1513,2.0597,2.0055,1.9759,1.9198,1.8602,1.8073,4.3837,4.3883,4.3929,4.3929,4.3942,4.4005,4.4005,4.4005,4.4005,4.4005,4.4005,4.4005,4.4005,4.4036,4.38,4.3111,4.3096,4.234,4.0523,4.0486,4.0151,3.9309,3.9494,3.9705,3.9895,3.9242,3.8183,3.6664,3.5806,3.5403,3.5464,3.5451,3.5535,3.5718,3.5775,3.5801,3.5799,3.5799,3.5799,3.5799,3.5799,3.5799,3.5799,3.5799,3.5799,3.5799,3.5884,3.5905,3.5894,3.5899,3.5942,3.5996,3.5996,3.5999,3.6001,3.6001,3.6001,3.6001,3.5999,3.5999,3.6005,3.5995,3.5995,3.5966,3.5907,3.59,3.5908,3.5894,3.5908,3.5903,3.5892,3.5878,3.5854,3.5824,3.5052,3.4411,3.4316,0.0,3.3192,3.3808,3.324,3.3033,3.3696,3.2639,3.1908,3.1945,3.1469,3.122,3.1347,3.189,3.148,2.9914,2.9176,2.8972,2.9383,2.9515,2.9516,2.94,2.8075,2.712,2.6477,2.5377,2.4639,2.4177,2.3767,2.3566,2.3451,2.283,2.2161,2.1547,2.0881,2.0295,1.9759,1.9198,1.8602,1.805,4.3974,4.3974,4.3974,4.3974,4.4005,4.4005,4.4005,4.4005,4.4005,4.4005,4.4005,4.4005,4.4005,4.4192,4.4318,4.4242,4.4436,4.3403,4.0645,4.0486,4.0221,3.9561,3.9698,3.9939,4.0302,3.9702,3.891,3.7925,3.7057,3.6288,3.5657,3.5649,3.5699,3.5775,3.5801,3.5791,3.5799,3.5799,3.5799,3.5799,3.5799,3.5799,3.5799,3.5799,3.5799,3.5799,3.5884,3.5905,3.5894,3.5899,3.5935,3.5993,3.5993,3.5996,3.5995,3.5995,3.5995,3.5996,3.5995,3.5996,3.5995,3.5993,3.5964,3.5907,3.5903,3.5903,3.5899,3.5889,3.5908,3.5908,3.5903,3.5811,3.5969,3.6677,3.5861,3.5358,3.601,0.0,3.466,3.4699,3.4586,3.4412,3.4157,3.332,3.2878,3.3112,3.2436,3.2306,3.2995,3.2506,3.1869,3.1129,3.074,3.0159,2.9393,3.0021,3.0029,2.94,2.8588,2.7496,2.6052,2.5258,2.4461,2.3681,2.3638,2.3595,2.3508,2.2317,2.1805,2.1568,2.0434,1.9901,1.9759,1.9198,1.8602,1.8041,4.4005,4.4005,4.4005,4.4005,4.4005,4.4005,4.4005,4.4005,4.4005,4.4005,4.4005,4.4079,4.425,4.4374,4.4527,4.4694,4.4834,4.4151,4.2389,4.1855,4.1071,3.9916,4.0062,4.0302,4.0612,3.9883,3.9301,3.8895,3.8067,3.7459,3.7082,3.6658,3.6473,3.6483,3.6015,3.5799,3.5799,3.5799,3.5799,3.5799,3.5799,3.5799,3.5799,3.5799,3.5815,3.5857,3.5898,3.5894,3.59,3.591,3.593,3.5996,3.5996,3.5994,3.5991,3.5991,3.5991,3.5992,3.5995,3.5971,3.5957,3.5957,3.5919,3.5895,3.5895,3.5904,3.5908,3.5908,3.5908,3.5878,3.5801,3.5749,3.5795,3.6091,3.5669,0.0,0.0,3.5337,3.5001,3.4945,3.4831,3.4649,3.445,3.382,3.3489,3.3597,3.3136,3.3013,3.3375,3.3049,3.2499,3.1756,3.0871,3.0285,3.0013,2.9947,2.9748,2.94,2.8307,2.7179,2.5971,2.5234,2.4405,2.3595,2.3595,2.3595,2.3508,2.2377,2.1805,2.1615,2.0434,1.9914,1.9747,1.95,1.9036,1.8439,4.4005,4.4005,4.4005,4.4005,4.4005,4.4005,4.4005,4.4048,4.4109,4.4121,4.4181,4.4318,4.4561,4.4638,4.4787,4.4998,4.5065,4.4803,4.4039,4.335,4.224,4.0558,4.0518,4.0646,4.079,4.0133,3.97,3.9507,3.8678,3.8294,3.8274,3.7473,3.721,3.7365,3.649,3.611,3.609,3.5896,3.5799,3.5799,3.5799,3.5799,3.5799,3.5799,3.583,3.5879,3.5891,3.5908,3.5891,3.5914,3.5957,3.5986,3.5986,3.5984,3.5982,3.5982,3.5982,3.5982,3.5986,3.5932,3.5892,3.5892,3.589,3.5947,3.6162,3.6045,3.6,3.6378,3.6138,3.5866,3.5929,3.5785,3.5658,3.5682,0.0,0.0,0.0,3.5226,3.502,3.5001,3.4811,3.4647,3.4517,3.4124,3.3842,3.3726,3.3538,3.3393,3.3393,3.3393,3.2975,3.2039,3.0772,3.0162,3.0261,2.9698,2.9251,2.8903,2.7831,2.6771,2.5733,2.5155,2.4405,2.3595,2.3595,2.3595,2.3508,2.2498,2.1913,2.1615,2.0547,2.0016,1.9798,1.9798,1.9322,1.8599,4.4005,4.4005,4.4005,4.4005,4.4005,4.4005,4.4005,4.4221,4.4383,4.4465,4.4676,4.483,4.4867,4.5084,4.5266,4.5361,4.5596,4.5399,4.4597,4.4481,4.3593,4.1681,4.1065,4.079,4.079,4.0732,4.0307,3.9507,3.8628,3.8236,3.8287,3.7482,3.7529,3.8266,3.7392,3.7003,3.6945,3.6148,3.5799,3.5799,3.5799,3.5799,3.5799,3.5799,3.5801,3.5812,3.5869,3.5903,3.5918,3.5974,3.5945,3.5907,3.5907,3.5908,3.5919,3.5919,3.5919,3.5904,3.5919,3.5903,3.5894,3.5894,3.5894,3.6103,3.6921,3.6473,3.632,3.7816,3.6828,3.5929,3.6596,3.6009,3.5688,3.6488,0.0,0.0,3.6211,3.5677,3.5147,3.502,3.4983,3.4791,3.4269,3.4197,3.3972,3.3481,3.3393,3.3393,3.3393,3.3393,3.2975,3.2039,3.0977,3.0129,2.9499,2.945,2.8754,2.7466,2.7367,2.651,2.4982,2.4934,2.4405,2.3595,2.3595,2.3595,2.3508,2.2392,2.1819,2.1615,2.0459,1.9926,1.9798,1.9798,1.9081,1.8276,4.4017,4.4121,4.425,4.425,4.4374,4.4511,4.4546,4.465,4.4707,4.4743,4.4839,4.4976,4.5186,4.5304,4.5435,4.5623,4.5742,4.567,4.5355,4.5336,4.4554,4.2758,4.1944,4.1545,4.1545,4.1061,4.0648,4.0324,3.9979,3.9857,3.9878,3.853,3.8373,3.914,3.7722,3.7392,3.7838,3.6984,3.6925,3.7372,3.6828,3.6919,3.7417,3.741,3.7444,3.7411,3.6889,3.6718,3.6626,3.6113,3.5919,3.5987,3.6533,3.6699,3.6805,3.735,3.7506,3.7512,3.7503,3.7127,3.6707,3.6707,3.7116,3.7603,3.7935,3.7683,3.7561,3.8169,3.7705,3.7243,3.7436,3.6785,3.6286,3.6546,0.0,3.5308,3.5596,3.5389,3.5092,3.4851,3.4632,3.4353,3.3998,3.3807,3.3633,3.3422,3.3393,3.3393,3.3393,3.2848,3.2265,3.166,3.0885,3.0377,3.0096,2.9218,2.8506,2.798,2.6759,2.5944,2.5494,2.4842,2.4664,2.4792,2.3969,2.3849,2.4119,2.2623,2.1913,2.1643,2.0964,2.0562,2.0376,2.0727,2.0545,2.0028,4.4336,4.4438,4.4561,4.4561,4.4707,4.4853,4.49,4.4969,4.5036,4.5063,4.5126,4.5266,4.5488,4.5541,4.5591,4.578,4.58,4.58,4.58,4.58,4.5162,4.3769,4.2609,4.2009,4.2022,4.1209,4.0808,4.0792,4.0555,4.0595,4.0868,3.9461,3.9256,4.0014,3.8557,3.8246,3.8732,3.7586,3.7605,3.8313,3.7444,3.7624,3.8394,3.8419,3.8461,3.8418,3.7812,3.7602,3.7527,3.6922,3.6709,3.6824,3.7428,3.7603,3.7779,3.8656,3.8714,3.8558,3.8831,3.848,3.7954,3.7681,3.8052,3.8578,3.885,3.8595,3.8442,3.8957,3.8501,3.8073,3.8216,3.7571,3.6888,3.6564,3.6222,3.5897,3.5649,3.5526,3.5363,3.5129,3.457,3.4074,3.3815,3.3615,3.3509,3.3411,3.3393,3.3334,3.3208,3.2453,3.1823,3.1397,3.0804,3.041,3.0179,2.8986,2.8257,2.8009,2.633,2.5532,2.5557,2.471,2.4676,2.5241,2.4088,2.4103,2.4775,2.2901,2.2197,2.2255,2.1459,2.11,2.1075,2.1453,2.124,2.0689,4.4896,4.4905,4.4912,4.4912,4.4912,4.4912,4.4912,4.5126,4.5323,4.5399,4.5629,4.5795,4.58,4.58,4.58,4.58,4.58,4.58,4.58,4.58,4.5432,4.4639,4.2957,4.2041,4.2105,4.1265,4.0812,4.0807,4.0004,4.0053,4.0888,4.0073,4.013,4.0869,4.0053,3.9703,3.9606,3.7858,3.7625,3.8333,3.7469,3.7648,3.8433,3.8505,3.8514,3.8526,3.8506,3.8502,3.8519,3.85,3.85,3.85,3.8519,3.8519,3.8694,3.9552,3.9201,3.8714,3.9571,3.9805,3.961,3.8733,3.8519,3.8753,3.961,3.9042,3.8772,4.037,3.9224,3.8124,3.8894,3.8304,3.7445,3.6661,3.7177,3.7426,3.6606,3.6217,3.6001,3.6017,3.4926,3.4093,3.3834,3.3807,3.3671,3.3422,3.3411,3.3208,3.2813,3.2299,3.1806,3.1397,3.0804,3.0162,2.9433,2.8738,2.8047,2.73,2.608,2.5291,2.4895,2.4508,2.4447,2.4567,2.3924,2.4373,2.5401,2.3073,2.2748,2.3645,2.1969,2.1491,2.169,2.1703,2.0836,1.9688,4.4931,4.5042,4.5167,4.5167,4.5342,4.5472,4.5507,4.5596,4.5645,4.5673,4.5757,4.5786,4.58,4.58,4.58,4.58,4.58,4.58,4.58,4.58,4.5717,4.5512,4.4428,4.3557,4.295,4.2121,4.1427,4.0877,4.0625,4.0645,4.0878,4.0082,4.013,4.0869,4.0053,4.0014,4.0461,3.9381,3.9429,4.0149,3.934,3.953,4.0306,4.0312,4.0326,4.0235,3.9622,3.9404,3.9318,3.8714,3.85,3.8617,3.9221,3.9825,4.039,4.0643,4.0526,4.039,4.0643,4.0641,4.0396,3.9617,3.9804,4.0252,4.0505,4.0184,3.997,4.0463,4.0041,3.9658,3.9871,3.9202,3.8534,3.8285,3.7941,3.7544,3.7129,3.6973,3.6767,3.6317,3.5465,3.4776,3.4404,3.3866,3.3481,3.3411,3.3147,3.2813,3.2468,3.2003,3.149,3.1078,3.0757,3.0493,3.0195,2.9466,2.8754,2.8042,2.7058,2.6751,2.704,2.5785,2.577,2.6632,2.5495,2.504,2.5018,2.3464,2.2706,2.2536,2.1524,2.1383,2.1741,2.2034,2.1636,2.0913,4.5304,4.5379,4.5505,4.5505,4.5626,4.5742,4.5791,4.5791,4.5805,4.58,4.58,4.58,4.58,4.58,4.58,4.58,4.58,4.5814,4.5847,4.5847,4.586,4.5899,4.5428,4.4749,4.3877,4.2737,4.1906,4.1402,4.1072,4.0888,4.0888,4.0402,4.0422,4.0888,4.0418,4.0474,4.089,4.007,4.0233,4.0935,4.012,4.0311,4.1093,4.1107,4.1104,4.1028,4.0496,4.0304,4.0234,3.9708,3.9532,3.963,4.0156,4.0682,4.111,4.111,4.1071,4.1081,4.1412,4.1169,4.0877,4.1092,4.1208,4.1302,4.1302,4.1125,4.0969,4.0969,4.0609,4.0406,4.0731,4.0081,3.9412,3.9069,3.8858,3.8518,3.7904,3.7681,3.7413,3.6934,3.6011,3.5323,3.5108,3.4353,3.3677,3.3196,3.2957,3.2601,3.2109,3.1714,3.1317,3.0912,3.0733,3.0419,3.0079,2.993,2.9402,2.8533,2.747,2.7123,2.7235,2.6138,2.6183,2.7126,2.6063,2.5607,2.5463,2.4034,2.3236,2.2774,2.2086,2.1834,2.1848,2.2475,2.2168,2.1391,4.5795,4.5805,4.58,4.58,4.58,4.58,4.58,4.58,4.58,4.58,4.58,4.58,4.58,4.58,4.58,4.58,4.5814,4.5827,4.5893,4.5906,4.5899,4.5917,4.596,4.5623,4.4827,4.3158,4.2286,4.2189,4.1335,4.0907,4.0907,4.0907,4.0888,4.0906,4.096,4.0994,4.0947,4.0219,4.0333,4.094,4.0214,4.0389,4.1108,4.1108,4.11,4.1114,4.1192,4.1162,4.111,4.111,4.111,4.111,4.111,4.1085,4.1098,4.1175,4.1085,4.116,4.1985,4.1579,4.1287,4.2878,4.2684,4.2072,4.2008,4.1874,4.1802,4.1802,4.1109,4.075,4.1476,4.096,4.0157,3.9355,3.9814,3.989,3.8809,3.8324,3.7981,3.7691,3.6608,3.591,3.591,3.5186,3.4217,3.3094,3.2923,3.2557,3.1854,3.1524,3.124,3.0912,3.0651,3.0195,2.9516,3.0137,2.9838,2.8666,2.7662,2.6901,2.6351,2.5952,2.6108,2.6647,2.6048,2.6093,2.6396,2.4776,2.4072,2.4016,2.3239,2.2605,2.218,2.3018,2.2461,2.132,4.58,4.58,4.58,4.58,4.58,4.58,4.58,4.58,4.58,4.58,4.58,4.58,4.58,4.58,4.58,4.58,4.5847,4.5874,4.5893,4.5899,4.5917,4.598,4.5991,4.5906,4.5714,4.4083,4.2879,4.2189,4.1335,4.0907,4.0907,4.0907,4.0924,4.0986,4.0987,4.0998,4.098,4.0873,4.0917,4.1054,4.0892,4.0938,4.1104,4.1097,4.11,4.1192,4.1875,4.1688,4.111,4.111,4.111,4.111,4.111,4.103,4.1071,4.1703,4.1789,4.186,4.2731,4.2739,4.2733,4.3734,4.3766,4.3406,4.2874,4.2656,4.2546,4.2546,4.2393,4.2316,4.2488,4.182,4.117,4.0979,4.0403,3.9794,3.925,3.8891,3.857,3.8191,3.7358,3.6789,3.6725,3.6019,3.5281,3.465,3.3826,3.3125,3.2683,3.1657,3.1055,3.0912,3.0733,3.0526,3.0278,3.0031,2.9524,2.8682,2.865,2.8341,2.781,2.7357,2.723,2.74,2.72,2.6733,2.5979,2.5146,2.4757,2.4641,2.301,2.2803,2.3393,2.2923,2.2261,2.143,4.58,4.58,4.58,4.58,4.58,4.58,4.58,4.58,4.58,4.58,4.58,4.58,4.58,4.58,4.5814,4.5847,4.5887,4.5912,4.5944,4.5949,4.596,4.5994,4.5994,4.6007,4.6054,4.479,4.3694,4.2811,4.2364,4.1723,4.0949,4.1357,4.1363,4.0998,4.1039,4.1055,4.1089,4.1522,4.1476,4.1142,4.156,4.1464,4.1154,4.1564,4.171,4.1785,4.2662,4.2676,4.2299,4.2299,4.2252,4.2202,4.2202,4.2112,4.2075,4.2501,4.2518,4.2618,4.3447,4.3316,4.3195,4.4422,4.4364,4.3903,4.3561,4.3407,4.3367,4.3367,4.308,4.2928,4.331,4.256,4.1753,4.1374,4.0681,3.9927,3.9208,3.8924,3.867,3.8322,3.7893,3.7461,3.7047,3.6417,3.5699,3.4925,3.4158,3.3575,3.318,3.2459,3.19,3.1465,3.1308,3.1,3.0526,3.0027,2.9468,2.8878,2.8793,2.8448,2.7978,2.771,2.7625,2.7625,2.7625,2.6935,2.5778,2.5512,2.5064,2.4392,2.307,2.2752,2.2979,2.2668,2.2121,2.135,4.58,4.58,4.58,4.58,4.58,4.58,4.58,4.58,4.58,4.58,4.58,4.5814,4.5814,4.5814,4.5841,4.5906,4.5925,4.5949,4.5991,4.6003,4.6005,4.6027,4.6027,4.6054,4.6118,4.5417,4.4611,4.3733,4.3586,4.2724,4.1245,4.2103,4.1974,4.1038,4.1385,4.1465,4.1386,4.2249,4.2213,4.1601,4.2323,4.2173,4.1602,4.2323,4.2565,4.265,4.3507,4.3805,4.3778,4.3622,4.3489,4.3382,4.3382,4.3272,4.3192,4.3327,4.3265,4.3344,4.417,4.381,4.3558,4.4953,4.4762,4.4227,4.4227,4.4227,4.4227,4.4227,4.3692,4.3424,4.4112,4.3292,4.2299,4.1635,4.1042,4.0262,3.9239,3.9043,3.8865,3.8325,3.8241,3.792,3.7283,3.6856,3.615,3.5094,3.4557,3.4112,3.3634,3.338,3.2959,3.2194,3.2076,3.1606,3.0764,3.0254,2.9726,2.9124,2.8585,2.81,2.7625,2.7625,2.7625,2.7625,2.7625,2.698,2.5988,2.5841,2.5273,2.4367,2.352,2.2933,2.2536,2.2655,2.2185,2.1331,4.58,4.58,4.58,4.58,4.58,4.58,4.58,4.58,4.58,4.58,4.58,4.5814,4.5893,4.5899,4.5893,4.5905,4.5949,4.5991,4.5991,4.6005,4.6037,4.6084,4.6084,4.6118,4.6195,4.6078,4.5586,4.4703,4.3966,4.3072,4.2139,4.3017,4.2585,4.1152,4.2676,4.2926,4.2285,4.315,4.3455,4.3357,4.348,4.3431,4.3278,4.3395,4.3422,4.3546,4.4403,4.4651,4.4443,4.3685,4.333,4.3221,4.3221,4.3144,4.3159,4.3852,4.398,4.4057,4.4917,4.505,4.501,4.5239,4.5201,4.5125,4.5125,4.5125,4.5125,4.5125,4.5029,4.4991,4.5105,4.4186,4.3398,4.3284,4.2098,4.0866,3.9993,4.0203,3.9886,3.8389,3.8225,3.8156,3.8047,3.7977,3.7577,3.6679,3.5948,3.5174,3.438,3.3693,3.3194,3.2964,3.2827,3.2408,3.1702,3.1182,3.0398,2.9261,2.8788,2.8246,2.7625,2.7625,2.7625,2.7625,2.7625,2.7515,2.7274,2.624,2.5994,2.6175,2.4571,2.4197,2.451,2.3726,2.29,2.2126,4.58,4.58,4.58,4.58,4.58,4.5955,4.6438,4.6109,4.5988,4.6505,4.617,4.5874,4.5899,4.5937,4.596,4.596,4.5983,4.6026,4.6046,4.6063,4.6084,4.6153,4.6153,4.6175,4.6205,4.6205,4.6033,4.5683,4.5265,4.4379,4.3102,4.3941,4.3691,4.2589,4.3351,4.3498,4.3189,4.4059,4.4129,4.3685,4.4167,4.4058,4.365,4.4143,4.4332,4.4435,4.5226,4.5473,4.5345,4.4851,4.4587,4.4473,4.4473,4.4395,4.4346,4.471,4.4766,4.4819,4.5201,4.5297,4.5297,4.5297,4.5297,4.5297,4.5297,4.5297,4.5297,4.5297,4.5151,4.5023,4.5023,4.436,4.3671,4.3165,4.2298,4.1405,4.0565,4.0518,4.031,3.9568,3.9478,3.9227,3.8546,3.8275,3.7704,3.6632,3.5998,3.5531,3.5115,3.4756,3.4286,3.3717,3.3595,3.3155,3.2364,3.1502,3.0806,3.0276,2.9522,2.8592,2.7625,2.7625,2.7625,2.7625,2.7625,2.724,2.6534,2.6,2.5771,2.5603,2.4187,2.3657,2.3696,2.2828,2.2432,2.218]}]]